[[{"header":{"parameterUnit":"m.s-1","parameterCategory":1,"la1":31.0,"la2":29.5877,"lo1":-88.7671,"lo2":-86.6584,"dy":0.0162,"dx":0.0185,"nx":115,"ny":88,"refTime":"2023-06-03T18:00:00:Z","depth":0,"parameterNumber":2,"parameterNumberName":"U-component_of_WINDS"},"data":[0.0,0.0,0.0,0.0,0.0,0.0,0.0,0.0,0.0,0.0,0.0,0.0,0.0,0.0,0.0,0.0,0.0,0.0,0.0,0.0,0.0,0.0,0.0,0.0,0.0,0.0,0.0,0.0,0.0,0.0,0.0,0.0,0.0,0.0,0.0,0.0,0.0,0.0,0.0,0.0,0.0,0.0,0.0,0.0,0.0,0.0,0.0,0.0,0.0,0.0,0.0,0.0,0.0,0.0,0.0,0.0,0.0,0.0,0.0,0.0,0.0,0.0,0.0,0.0,0.0,0.0,0.0,0.0,0.0,0.0,0.0,0.0,0.0,0.0,0.0,0.0,0.0,0.0,0.0,0.0,0.0,0.0,0.0,0.0,0.0,0.0,0.0,0.0,0.0,0.0,0.0,0.0,0.0,0.0,0.0,0.0,0.0,0.0,0.0,0.0,0.0,0.0,0.0,0.0,0.0,0.0,0.0,0.0,0.0,0.0,0.0,0.0,0.0,0.0,0.0,0.0,0.0,0.0,0.0,0.0,0.0,0.0,0.0,0.0,0.0,0.0,0.0,0.0,0.0,0.0,0.0,0.0,0.0,0.0,0.0,0.0,0.0,0.0,0.0,0.0,0.0,0.0,0.0,0.0,0.0,0.0,0.0,0.0,0.0,0.0,0.0,0.0,0.0,0.0,0.0,0.0,0.0,0.0,0.0,0.0,0.0,0.0,0.0,0.0,0.0,0.0,0.0,0.0,0.0,0.0,0.0,0.0,0.0,0.0,0.0,0.0,0.0,0.0,0.0,0.0,0.0,0.0,0.0,0.0,0.0,0.0,0.0,0.0,0.0,0.0,0.0,0.0,0.0,0.0,0.0,0.0,0.0,0.0,0.0,0.0,0.0,0.0,0.0,0.0,0.0,0.0,0.0,0.0,0.0,0.0,0.0,0.0,0.0,0.0,0.0,0.0,0.0,0.0,0.0,0.0,0.0,0.0,0.0,0.0,0.0,0.0,0.0,0.0,0.0,0.0,0.0,0.0,0.0,0.0,0.0,0.0,0.0,0.0,0.0,0.0,0.0,0.0,0.0,0.0,0.0,0.0,0.0,0.0,0.0,0.0,0.0,0.0,0.0,0.0,0.0,0.0,0.0,0.0,0.0,0.0,0.0,0.0,0.0,0.0,0.0,0.0,0.0,0.0,0.0,0.0,0.0,0.0,0.0,0.0,0.0,0.0,0.0,0.0,0.0,0.0,0.0,0.0,0.0,0.0,0.0,0.0,0.0,0.0,0.0,0.0,0.0,0.0,0.0,0.0,0.0,0.0,0.0,0.0,0.0,0.0,0.0,0.0,0.0,0.0,0.0,0.0,0.0,0.0,0.0,0.0,0.0,0.0,0.0,0.0,0.0,0.0,0.0,0.0,0.0,0.0,0.0,0.0,0.0,0.0,0.0,0.0,0.0,0.0,0.0,0.0,0.0,0.0,0.0,0.0,0.0,0.0,0.0,0.0,0.0,0.0,0.0,0.0,0.0,0.0,0.0,0.0,0.0,0.0,0.0,0.0,0.0,0.0,0.0,0.0,0.0,0.0,0.0,0.0,0.0,0.0,0.0,0.0,0.0,0.0,0.0,0.0,0.0,0.0,0.0,0.0,0.0,0.0,0.0,0.0,0.0,0.0,0.0,0.0,0.0,0.0,0.0,0.0,0.0,0.0,0.0,0.0,0.0,0.0,0.0,0.0,0.0,0.0,0.0,0.0,0.0,0.0,0.0,0.0,0.0,0.0,0.0,0.0,0.0,0.0,0.0,0.0,0.0,0.0,0.0,0.0,0.0,0.0,0.0,0.0,0.0,0.0,0.0,0.0,0.0,0.0,0.0,0.0,0.0,0.0,0.0,0.0,0.0,0.0,0.0,0.0,0.0,0.0,0.0,0.0,0.0,0.0,0.0,0.0,0.0,0.0,0.0,0.0,0.0,0.0,0.0,0.0,0.0,0.0,0.0,0.0,0.0,0.0,0.0,0.0,0.0,0.0,0.0,0.0,0.0,0.0,0.0,0.0,0.0,0.0,0.0,0.0,0.0,0.0,0.0,0.0,0.0,0.0,0.0,0.0,0.0,0.0,0.0,0.0,0.0,0.0,0.0,0.0,0.0,0.0,0.0,0.0,0.0,0.0,0.0,0.0,0.0,0.0,0.0,0.0,0.0,0.0,0.0,0.0,0.0,0.0,0.0,0.0,0.0,0.0,0.0,0.0,0.0,0.0,0.0,0.0,0.0,0.0,0.0,0.0,0.0,0.0,0.0,0.0,0.0,0.0,0.0,0.0,0.0,0.0,0.0,0.0,0.0,0.0,0.0,0.0,0.0,0.0,0.0,0.0,0.0,0.0,0.0,0.0,0.0,0.0,0.0,0.0,0.0,0.0,0.0,0.0,0.0,0.0,0.0,0.0,0.0,0.0,0.0,0.0,0.0,0.0,0.0,0.0,0.0,0.0,0.0,0.0,0.0,0.0,0.0,0.0,0.0,0.0,0.0,0.0,0.0,0.0,0.0,0.0,0.0,0.0,0.0,0.0,0.0,0.0,0.0,0.0,0.0,0.0,0.0,0.0,0.0,0.0,0.0,0.0,0.0,0.0,0.0,0.0,0.0,0.0,0.0,0.0,0.0,0.0,0.0,0.0,0.0,0.0,0.0,0.0,0.0,0.0,0.0,0.0,0.0,0.0,0.0,0.0,0.0,0.0,0.0,0.0,0.0,0.0,0.0,0.0,0.0,0.0,0.0,0.0,0.0,0.0,0.0,0.0,0.0,0.0,0.0,0.0,0.0,0.0,0.0,0.0,0.0,0.0,0.0,0.0,0.0,0.0,0.0,0.0,0.0,0.0,0.0,0.0,0.0,0.0,0.0,0.0,0.0,0.0,0.0,0.0,0.0,0.0,0.0,0.0,0.0,0.0,0.0,0.0,0.0,0.0,0.0,0.0,0.0,0.0,0.0,0.0,0.0,0.0,0.0,0.0,0.0,0.0,0.0,0.0,0.0,0.0,0.0,0.0,0.0,0.0,0.0,0.0,0.0,0.0,0.0,0.0,0.0,0.0,0.0,0.0,0.0,0.0,0.0,0.0,0.0,0.0,0.0,0.0,0.0,0.0,0.0,0.0,0.0,0.0,0.0,0.0,0.0,0.0,0.0,0.0,0.0,0.0,0.0,0.0,0.0,0.0,0.0,0.0,0.0,0.0,0.0,0.0,0.0,0.0,0.0,0.0,0.0,0.0,0.0,0.0,0.0,0.0,0.0,0.0,0.0,0.0,0.0,0.0,0.0,0.0,0.0,0.0,0.0,0.0,0.0,0.0,0.0,0.0,0.0,0.0,0.0,0.0,0.0,0.0,0.0,0.0,0.0,0.0,0.0,0.0,0.0,0.0,0.0,0.0,0.0,0.0,0.0,0.0,0.0,0.0,0.0,0.0,0.0,0.0,0.0,0.0,0.0,0.0,0.0,0.0,0.0,0.0,0.0,0.0,0.0,0.0,0.0,0.0,0.0,0.0,0.0,0.0,0.0,0.0,0.0,0.0,0.0,0.0,0.0,0.0,0.0,0.0,0.0,0.0,0.0,0.0,0.0,0.0,0.0,0.0,0.0,0.0,0.0,0.0,0.0,0.0,0.0,0.0,0.0,0.0,0.0,0.0,0.0,0.0,0.0,0.0,0.0,0.0,0.0,0.0,0.0,0.0,0.0,0.0,0.0,0.0,0.0,0.0,0.0,0.0,0.0,0.0,0.0,0.0,0.0,0.0,0.0,0.0,0.0,0.0,0.0,0.0,0.0,0.0,0.0,0.0,0.0,0.0,0.0,0.0,0.0,0.0,0.0,0.0,0.0,0.0,0.0,0.0,0.0,0.0,0.0,0.0,0.0,0.0,0.0,0.0,0.0,0.0,0.0,0.0,0.0,0.0,0.0,0.0,0.0,0.0,0.0,0.0,0.0,0.0,0.0,0.0,0.0,0.0,0.0,0.0,0.0,0.0,0.0,0.0,0.0,0.0,0.0,0.0,0.0,0.0,0.0,0.0,0.0,0.0,0.0,0.0,0.0,0.0,0.0,0.0,0.0,0.0,0.0,0.0,0.0,0.0,0.0,0.0,0.0,0.0,0.0,0.0,0.0,0.0,0.0,0.0,0.0,0.0,0.0,0.0,0.0,0.0,0.0,0.0,0.0,0.0,0.0,0.0,0.0,0.0,0.0,0.0,0.0,0.0,0.0,0.0,0.0,0.0,0.0,0.0,0.0,0.0,-1.2871,0.0,0.0,0.0,0.0,0.0,0.0,0.0,0.0,0.0,0.0,0.0,0.0,0.0,0.0,0.0,0.0,0.0,0.0,0.0,0.0,0.0,0.0,0.0,0.0,0.0,0.0,0.0,0.0,0.0,0.0,0.0,0.0,0.0,0.0,0.0,0.0,0.0,0.0,0.0,0.0,0.0,0.0,0.0,0.0,0.0,0.0,0.0,0.0,0.0,0.0,0.0,0.0,0.0,0.0,0.0,0.0,0.0,0.0,0.0,0.0,0.0,0.0,0.0,0.0,0.0,0.0,0.0,0.0,0.0,0.0,0.0,0.0,0.0,0.0,0.0,0.0,0.0,0.0,0.0,0.0,0.0,0.0,0.0,0.0,0.0,0.0,0.0,0.0,0.0,0.0,0.0,0.0,0.0,0.0,0.0,0.0,0.0,0.0,0.0,0.0,0.0,0.0,0.0,0.0,0.0,0.0,0.0,0.0,0.0,0.0,-1.464,-1.4512,-1.4222,-1.3941,-1.3647,0.0,0.0,0.0,0.0,0.0,0.0,0.0,0.0,0.0,0.0,0.0,0.0,0.0,0.0,0.0,0.0,0.0,0.0,0.0,0.0,0.0,0.0,0.0,0.0,0.0,0.0,0.0,0.0,0.0,0.0,0.0,0.0,0.0,0.0,0.0,0.0,0.0,0.0,0.0,0.0,0.0,0.0,0.0,0.0,0.0,0.0,0.0,0.0,0.0,0.0,0.0,0.0,0.0,0.0,0.0,0.0,0.0,0.0,0.0,0.0,0.0,0.0,0.0,0.0,0.0,0.0,0.0,0.0,0.0,0.0,0.0,0.0,0.0,0.0,0.0,0.0,0.0,0.0,0.0,0.0,0.0,0.0,0.0,0.0,0.0,0.0,0.0,0.0,0.0,0.0,0.0,0.0,0.0,0.0,0.0,0.0,0.0,0.0,0.0,0.0,0.0,0.0,0.0,0.0,0.0,0.0,0.0,0.0,0.0,0.0,0.0,0.0,-1.4949,-1.4628,-1.4305,0.0,0.0,0.0,0.0,0.0,0.0,0.0,0.0,0.0,0.0,0.0,0.0,0.0,0.0,0.0,0.0,0.0,0.0,0.0,0.0,0.0,0.0,0.0,0.0,0.0,0.0,0.0,0.0,0.0,0.0,0.0,0.0,0.0,0.0,0.0,0.0,0.0,0.0,0.0,0.0,0.0,0.0,0.0,0.0,0.0,0.0,0.0,0.0,0.0,0.0,0.0,0.0,0.0,0.0,0.0,0.0,0.0,0.0,0.0,0.0,0.0,0.0,0.0,0.0,0.0,0.0,0.0,0.0,0.0,0.0,0.0,0.0,0.0,0.0,0.0,0.0,0.0,0.0,0.0,0.0,0.0,0.0,0.0,0.0,0.0,0.0,0.0,0.0,0.0,0.0,0.0,0.0,0.0,0.0,0.0,0.0,0.0,0.0,0.0,0.0,0.0,0.0,0.0,0.0,0.0,0.0,0.0,0.0,0.0,0.0,-1.6107,-1.5901,-1.5756,0.0,-1.4709,0.0,0.0,0.0,0.0,0.0,0.0,0.0,0.0,0.0,0.0,0.0,0.0,0.0,0.0,0.0,0.0,0.0,0.0,0.0,0.0,0.0,0.0,0.0,0.0,0.0,0.0,0.0,0.0,0.0,0.0,0.0,0.0,0.0,0.0,0.0,0.0,0.0,0.0,0.0,0.0,0.0,0.0,0.0,0.0,0.0,0.0,0.0,0.0,0.0,0.0,0.0,0.0,0.0,0.0,0.0,0.0,0.0,0.0,0.0,0.0,0.0,0.0,0.0,0.0,0.0,0.0,0.0,0.0,0.0,0.0,0.0,0.0,0.0,0.0,0.0,0.0,0.0,0.0,0.0,0.0,0.0,0.0,0.0,0.0,0.0,0.0,0.0,0.0,0.0,0.0,0.0,0.0,0.0,0.0,0.0,0.0,0.0,0.0,0.0,0.0,0.0,0.0,0.0,0.0,0.0,0.0,0.0,0.0,0.0,0.0,-1.6808,-1.6723,-1.625,-1.5724,0.0,0.0,0.0,0.0,0.0,0.0,0.0,0.0,0.0,0.0,0.0,0.0,0.0,0.0,0.0,0.0,0.0,0.0,0.0,0.0,0.0,0.0,0.0,0.0,0.0,0.0,0.0,0.0,0.0,0.0,0.0,0.0,0.0,0.0,0.0,0.0,0.0,0.0,0.0,0.0,0.0,0.0,0.0,0.0,0.0,0.0,0.0,0.0,0.0,0.0,0.0,0.0,0.0,0.0,0.0,0.0,0.0,0.0,0.0,0.0,0.0,0.0,0.0,0.0,0.0,0.0,0.0,0.0,0.0,0.0,0.0,0.0,0.0,0.0,0.0,0.0,0.0,0.0,0.0,0.0,0.0,0.0,0.0,0.0,0.0,0.0,0.0,0.0,0.0,0.0,0.0,0.0,0.0,0.0,0.0,0.0,0.0,0.0,0.0,0.0,0.0,0.0,0.0,0.0,0.0,0.0,0.0,0.0,0.0,0.0,-1.7756,-1.7723,-1.7728,-1.7053,-1.6397,-1.5825,0.0,0.0,0.0,0.0,0.0,0.0,0.0,0.0,0.0,0.0,0.0,0.0,0.0,0.0,0.0,0.0,0.0,0.0,0.0,0.0,0.0,0.0,0.0,0.0,0.0,0.0,0.0,0.0,0.0,0.0,0.0,0.0,0.0,0.0,0.0,0.0,0.0,0.0,0.0,0.0,0.0,0.0,0.0,0.0,0.0,0.0,0.0,0.0,0.0,0.0,0.0,0.0,0.0,0.0,0.0,0.0,0.0,0.0,0.0,0.0,0.0,0.0,0.0,0.0,0.0,0.0,0.0,0.0,0.0,0.0,0.0,0.0,0.0,0.0,0.0,0.0,0.0,0.0,0.0,0.0,0.0,0.0,0.0,0.0,0.0,0.0,0.0,0.0,0.0,0.0,0.0,0.0,0.0,0.0,0.0,0.0,0.0,0.0,0.0,0.0,0.0,0.0,0.0,0.0,0.0,0.0,0.0,0.0,-1.8976,-1.8892,-1.894,-1.9159,-1.8252,-1.7524,0.0,0.0,0.0,0.0,0.0,0.0,0.0,0.0,0.0,0.0,0.0,0.0,0.0,0.0,0.0,0.0,0.0,0.0,0.0,0.0,0.0,0.0,0.0,0.0,0.0,0.0,0.0,0.0,0.0,0.0,0.0,0.0,0.0,0.0,0.0,0.0,0.0,0.0,0.0,0.0,0.0,0.0,0.0,0.0,0.0,0.0,0.0,0.0,0.0,0.0,0.0,0.0,0.0,0.0,0.0,0.0,0.0,0.0,0.0,0.0,0.0,0.0,0.0,0.0,0.0,0.0,0.0,0.0,0.0,0.0,0.0,0.0,0.0,0.0,0.0,0.0,0.0,0.0,0.0,0.0,0.0,0.0,0.0,0.0,0.0,0.0,0.0,0.0,0.0,0.0,0.0,0.0,0.0,0.0,0.0,0.0,0.0,0.0,0.0,0.0,0.0,0.0,0.0,0.0,0.0,0.0,0.0,0.0,0.0,-1.9525,-1.9768,-1.982,-1.9649,-1.8772,-1.7974,0.0,0.0,0.0,0.0,0.0,0.0,0.0,0.0,0.0,0.0,0.0,0.0,0.0,0.0,0.0,0.0,0.0,0.0,0.0,0.0,0.0,0.0,0.0,0.0,0.0,0.0,0.0,0.0,0.0,0.0,0.0,0.0,0.0,0.0,0.0,0.0,0.0,0.0,0.0,0.0,0.0,0.0,0.0,0.0,0.0,0.0,0.0,0.0,0.0,0.0,0.0,0.0,0.0,0.0,0.0,0.0,0.0,0.0,0.0,0.0,0.0,0.0,0.0,0.0,0.0,0.0,0.0,0.0,0.0,0.0,0.0,0.0,0.0,0.0,0.0,0.0,0.0,0.0,0.0,0.0,0.0,0.0,0.0,0.0,0.0,0.0,0.0,0.0,0.0,0.0,0.0,0.0,0.0,0.0,0.0,0.0,0.0,0.0,0.0,0.0,0.0,0.0,0.0,0.0,0.0,0.0,0.0,0.0,0.0,-2.0355,0.0,-2.0845,-2.0595,-1.9704,-1.8857,0.0,0.0,0.0,0.0,0.0,0.0,0.0,0.0,0.0,0.0,0.0,0.0,0.0,0.0,0.0,0.0,0.0,0.0,0.0,0.0,0.0,0.0,0.0,0.0,0.0,0.0,0.0,0.0,0.0,0.0,0.0,0.0,0.0,0.0,0.0,0.0,0.0,0.0,0.0,0.0,0.0,0.0,0.0,0.0,0.0,0.0,0.0,0.0,0.0,0.0,0.0,0.0,0.0,0.0,0.0,0.0,0.0,0.0,0.0,0.0,0.0,0.0,0.0,0.0,0.0,0.0,0.0,0.0,0.0,0.0,0.0,0.0,0.0,0.0,0.0,0.0,0.0,0.0,0.0,0.0,0.0,0.0,0.0,0.0,0.0,0.0,0.0,0.0,0.0,0.0,0.0,0.0,0.0,0.0,0.0,0.0,0.0,0.0,0.0,0.0,0.0,0.0,0.0,0.0,0.0,0.0,0.0,0.0,-2.0396,-2.1569,-2.1971,-2.2146,-2.217,-2.1112,-2.0138,0.0,0.0,0.0,0.0,0.0,0.0,0.0,0.0,0.0,0.0,0.0,0.0,0.0,0.0,0.0,0.0,0.0,0.0,0.0,0.0,0.0,0.0,0.0,0.0,0.0,0.0,0.0,0.0,0.0,0.0,0.0,0.0,0.0,0.0,0.0,0.0,0.0,0.0,0.0,0.0,0.0,0.0,0.0,0.0,0.0,0.0,0.0,0.0,0.0,0.0,0.0,0.0,0.0,0.0,0.0,0.0,0.0,0.0,0.0,0.0,0.0,0.0,0.0,0.0,0.0,0.0,0.0,0.0,0.0,0.0,0.0,0.0,0.0,0.0,0.0,0.0,0.0,0.0,0.0,0.0,0.0,0.0,0.0,0.0,0.0,0.0,0.0,0.0,0.0,0.0,0.0,0.0,0.0,0.0,0.0,0.0,0.0,0.0,0.0,0.0,0.0,0.0,0.0,0.0,0.0,0.0,0.0,0.0,0.0,-2.1845,-2.2359,-2.2537,-2.231,-2.1365,-2.0492,0.0,0.0,0.0,0.0,0.0,0.0,0.0,0.0,0.0,0.0,0.0,0.0,0.0,0.0,0.0,0.0,0.0,0.0,0.0,0.0,0.0,0.0,0.0,0.0,0.0,0.0,0.0,0.0,0.0,0.0,0.0,0.0,0.0,0.0,0.0,0.0,0.0,0.0,0.0,0.0,0.0,0.0,0.0,0.0,0.0,0.0,0.0,0.0,0.0,0.0,0.0,0.0,0.0,0.0,0.0,0.0,0.0,0.0,0.0,0.0,0.0,0.0,0.0,0.0,0.0,0.0,0.0,0.0,0.0,0.0,0.0,0.0,0.0,0.0,0.0,0.0,0.0,0.0,0.0,0.0,0.0,0.0,0.0,0.0,0.0,0.0,0.0,0.0,0.0,0.0,0.0,0.0,0.0,0.0,0.0,0.0,0.0,0.0,0.0,0.0,0.0,0.0,0.0,0.0,0.0,0.0,0.0,0.0,0.0,-2.2849,-2.3107,-2.308,-2.2818,-2.2063,-2.1285,-2.0415,0.0,0.0,0.0,0.0,0.0,0.0,0.0,0.0,0.0,0.0,0.0,0.0,0.0,0.0,0.0,0.0,0.0,0.0,0.0,0.0,0.0,0.0,0.0,0.0,0.0,0.0,0.0,0.0,0.0,0.0,0.0,0.0,0.0,0.0,0.0,0.0,0.0,0.0,0.0,0.0,0.0,0.0,0.0,0.0,0.0,0.0,0.0,0.0,0.0,0.0,0.0,0.0,0.0,0.0,0.0,0.0,0.0,0.0,0.0,0.0,0.0,0.0,0.0,0.0,0.0,0.0,0.0,0.0,0.0,0.0,0.0,0.0,0.0,0.0,0.0,0.0,0.0,0.0,0.0,0.0,0.0,0.0,0.0,0.0,0.0,0.0,0.0,0.0,0.0,0.0,0.0,0.0,0.0,0.0,0.0,0.0,0.0,0.0,0.0,0.0,0.0,0.0,0.0,0.0,0.0,0.0,0.0,0.0,-2.4461,-2.4168,-2.384,-2.3603,-2.3223,-2.2366,0.0,0.0,0.0,0.0,0.0,0.0,0.0,0.0,0.0,0.0,0.0,0.0,0.0,0.0,0.0,0.0,0.0,0.0,0.0,0.0,0.0,0.0,0.0,0.0,0.0,0.0,0.0,0.0,0.0,0.0,0.0,0.0,0.0,0.0,0.0,0.0,0.0,0.0,0.0,0.0,0.0,0.0,0.0,0.0,0.0,0.0,0.0,0.0,0.0,0.0,0.0,0.0,0.0,0.0,0.0,0.0,0.0,0.0,0.0,0.0,0.0,0.0,0.0,0.0,0.0,0.0,0.0,0.0,0.0,0.0,0.0,0.0,0.0,0.0,0.0,0.0,0.0,0.0,0.0,0.0,0.0,0.0,0.0,0.0,0.0,0.0,0.0,0.0,0.0,0.0,0.0,0.0,0.0,0.0,0.0,0.0,0.0,0.0,0.0,0.0,0.0,0.0,0.0,0.0,0.0,0.0,0.0,0.0,0.0,-2.5209,-2.522,-2.497,-2.4525,-2.3692,-2.2923,0.0,0.0,0.0,0.0,0.0,0.0,0.0,0.0,0.0,0.0,0.0,0.0,0.0,0.0,0.0,0.0,0.0,0.0,0.0,0.0,0.0,0.0,0.0,0.0,0.0,0.0,0.0,0.0,0.0,0.0,0.0,0.0,0.0,0.0,0.0,0.0,0.0,0.0,0.0,0.0,0.0,0.0,0.0,0.0,0.0,0.0,0.0,0.0,0.0,0.0,0.0,0.0,0.0,0.0,0.0,0.0,0.0,0.0,0.0,0.0,0.0,0.0,0.0,0.0,0.0,0.0,0.0,0.0,0.0,0.0,0.0,0.0,0.0,0.0,0.0,0.0,0.0,0.0,0.0,0.0,0.0,0.0,0.0,0.0,0.0,0.0,0.0,0.0,0.0,0.0,0.0,0.0,0.0,0.0,0.0,0.0,0.0,0.0,0.0,0.0,0.0,0.0,0.0,0.0,0.0,0.0,0.0,0.0,-2.4513,-2.5848,-2.5978,-2.6009,-2.5947,-2.4811,-2.378,0.0,0.0,0.0,0.0,0.0,0.0,0.0,0.0,0.0,0.0,0.0,0.0,0.0,0.0,0.0,0.0,0.0,0.0,0.0,0.0,0.0,0.0,0.0,0.0,0.0,0.0,0.0,0.0,0.0,0.0,0.0,0.0,0.0,0.0,0.0,0.0,0.0,0.0,0.0,0.0,0.0,0.0,0.0,0.0,0.0,0.0,0.0,0.0,0.0,0.0,0.0,0.0,0.0,0.0,0.0,0.0,0.0,0.0,0.0,0.0,0.0,0.0,0.0,0.0,0.0,0.0,0.0,0.0,0.0,0.0,0.0,0.0,0.0,0.0,0.0,0.0,0.0,0.0,0.0,0.0,0.0,0.0,0.0,0.0,0.0,0.0,0.0,0.0,0.0,0.0,0.0,0.0,0.0,0.0,0.0,0.0,0.0,0.0,0.0,0.0,0.0,0.0,0.0,0.0,0.0,0.0,0.0,0.0,-2.5421,-2.6273,-2.6529,-2.6867,-2.7342,-2.6112,-2.4725,0.0,0.0,0.0,0.0,0.0,0.0,0.0,0.0,0.0,0.0,0.0,0.0,0.0,0.0,0.0,0.0,0.0,0.0,0.0,0.0,0.0,0.0,0.0,0.0,0.0,0.0,0.0,0.0,0.0,0.0,0.0,0.0,0.0,0.0,0.0,0.0,0.0,0.0,0.0,0.0,0.0,0.0,0.0,0.0,0.0,0.0,0.0,0.0,0.0,0.0,0.0,0.0,0.0,0.0,0.0,0.0,0.0,0.0,0.0,0.0,0.0,0.0,0.0,0.0,0.0,0.0,0.0,0.0,0.0,0.0,0.0,0.0,0.0,0.0,0.0,0.0,0.0,0.0,0.0,0.0,0.0,0.0,0.0,0.0,0.0,0.0,0.0,0.0,0.0,0.0,0.0,0.0,0.0,0.0,0.0,0.0,0.0,0.0,0.0,0.0,0.0,0.0,0.0,0.0,0.0,0.0,0.0,0.0,-2.5553,-2.6273,-2.6685,-2.7079,-2.7386,-2.6214,-2.5062,0.0,0.0,0.0,0.0,0.0,0.0,0.0,0.0,0.0,0.0,0.0,0.0,0.0,0.0,0.0,0.0,0.0,0.0,0.0,0.0,0.0,0.0,0.0,0.0,0.0,0.0,0.0,0.0,0.0,0.0,0.0,0.0,0.0,0.0,0.0,0.0,0.0,0.0,0.0,0.0,0.0,0.0,0.0,0.0,0.0,0.0,0.0,0.0,-2.2123,0.0,0.0,0.0,0.0,0.0,0.0,0.0,0.0,0.0,0.0,0.0,0.0,0.0,0.0,0.0,0.0,0.0,0.0,0.0,0.0,0.0,0.0,0.0,0.0,0.0,0.0,0.0,0.0,0.0,0.0,0.0,0.0,0.0,0.0,0.0,0.0,0.0,0.0,0.0,0.0,0.0,0.0,0.0,0.0,0.0,0.0,0.0,0.0,0.0,0.0,0.0,0.0,0.0,0.0,0.0,0.0,0.0,0.0,0.0,-2.6039,-2.6499,-2.7099,-2.7508,-2.7458,-2.6689,-2.5669,0.0,0.0,0.0,0.0,0.0,0.0,0.0,0.0,0.0,0.0,0.0,0.0,0.0,0.0,0.0,0.0,0.0,0.0,0.0,0.0,0.0,0.0,0.0,0.0,0.0,0.0,0.0,0.0,0.0,0.0,0.0,0.0,0.0,0.0,0.0,0.0,0.0,0.0,0.0,0.0,0.0,0.0,0.0,0.0,0.0,0.0,0.0,0.0,0.0,0.0,0.0,0.0,0.0,0.0,0.0,0.0,0.0,0.0,0.0,0.0,0.0,0.0,0.0,0.0,0.0,0.0,0.0,0.0,0.0,0.0,0.0,0.0,0.0,0.0,0.0,0.0,0.0,0.0,0.0,0.0,0.0,0.0,0.0,0.0,0.0,0.0,0.0,0.0,0.0,0.0,0.0,0.0,0.0,0.0,0.0,0.0,0.0,0.0,0.0,0.0,0.0,0.0,0.0,0.0,0.0,0.0,0.0,-2.5379,-2.6516,-2.6789,-2.7559,-2.7855,-2.7575,-2.7248,-2.6184,-2.4426,0.0,0.0,0.0,0.0,0.0,0.0,0.0,0.0,0.0,0.0,0.0,0.0,0.0,0.0,0.0,0.0,0.0,0.0,0.0,0.0,0.0,0.0,0.0,0.0,0.0,0.0,0.0,0.0,0.0,0.0,0.0,0.0,0.0,0.0,0.0,0.0,0.0,0.0,-2.3509,-2.3566,0.0,0.0,0.0,0.0,0.0,0.0,0.0,0.0,-2.2701,0.0,0.0,0.0,0.0,0.0,0.0,0.0,0.0,0.0,0.0,0.0,0.0,0.0,0.0,0.0,0.0,0.0,0.0,0.0,0.0,0.0,0.0,0.0,0.0,0.0,0.0,0.0,0.0,0.0,0.0,0.0,0.0,0.0,0.0,0.0,0.0,0.0,0.0,0.0,0.0,0.0,0.0,0.0,0.0,0.0,0.0,0.0,0.0,0.0,0.0,0.0,0.0,0.0,0.0,0.0,0.0,-2.4133,-2.558,-2.6611,-2.718,-2.774,-2.7806,-2.7452,-2.7299,-2.6338,-2.4569,0.0,0.0,0.0,0.0,0.0,0.0,0.0,0.0,0.0,0.0,0.0,0.0,0.0,0.0,0.0,0.0,0.0,0.0,0.0,0.0,0.0,0.0,0.0,0.0,0.0,0.0,0.0,0.0,0.0,0.0,0.0,0.0,0.0,0.0,0.0,0.0,0.0,0.0,0.0,-2.3595,-2.3595,0.0,0.0,0.0,0.0,0.0,0.0,0.0,0.0,-2.3957,0.0,0.0,0.0,0.0,0.0,0.0,0.0,0.0,0.0,0.0,0.0,0.0,0.0,0.0,0.0,0.0,0.0,0.0,0.0,0.0,0.0,0.0,0.0,0.0,0.0,0.0,0.0,0.0,0.0,0.0,0.0,0.0,0.0,0.0,0.0,0.0,0.0,0.0,0.0,0.0,0.0,0.0,0.0,0.0,0.0,0.0,0.0,0.0,0.0,0.0,0.0,0.0,0.0,0.0,0.0,-2.4625,-2.5633,-2.6474,-2.7194,-2.7576,-2.7655,-2.7401,-2.7196,-2.6338,0.0,0.0,0.0,0.0,0.0,0.0,0.0,0.0,0.0,0.0,0.0,0.0,0.0,0.0,0.0,0.0,0.0,0.0,0.0,0.0,0.0,0.0,0.0,0.0,0.0,0.0,0.0,0.0,0.0,0.0,0.0,0.0,0.0,0.0,0.0,0.0,0.0,0.0,0.0,0.0,-2.425,-2.4474,-2.4806,0.0,0.0,0.0,0.0,0.0,0.0,-2.4834,-2.4554,0.0,0.0,0.0,0.0,0.0,0.0,0.0,0.0,0.0,0.0,0.0,0.0,0.0,0.0,0.0,0.0,0.0,0.0,0.0,0.0,0.0,0.0,0.0,0.0,0.0,0.0,0.0,0.0,0.0,0.0,0.0,0.0,0.0,0.0,0.0,0.0,0.0,0.0,0.0,0.0,0.0,0.0,0.0,0.0,0.0,0.0,0.0,0.0,0.0,0.0,0.0,0.0,0.0,0.0,0.0,-2.5016,-2.5652,-2.6319,-2.7155,-2.744,-2.7488,-2.735,-2.7107,-2.6301,0.0,0.0,0.0,0.0,0.0,0.0,0.0,0.0,0.0,0.0,0.0,0.0,0.0,0.0,0.0,0.0,0.0,0.0,0.0,0.0,0.0,0.0,0.0,0.0,0.0,0.0,0.0,0.0,0.0,0.0,0.0,0.0,0.0,0.0,0.0,0.0,0.0,0.0,0.0,0.0,0.0,-2.5423,-2.594,-2.6016,0.0,0.0,0.0,0.0,-2.5766,-2.5701,0.0,0.0,0.0,0.0,0.0,0.0,0.0,0.0,0.0,0.0,0.0,0.0,0.0,0.0,0.0,0.0,0.0,0.0,0.0,0.0,0.0,0.0,0.0,0.0,0.0,0.0,0.0,0.0,0.0,0.0,0.0,0.0,0.0,0.0,0.0,0.0,0.0,0.0,0.0,0.0,0.0,0.0,0.0,0.0,0.0,0.0,0.0,0.0,0.0,0.0,0.0,0.0,0.0,0.0,0.0,0.0,-2.5422,-2.5616,-2.6261,-2.743,-2.7444,-2.7314,-2.7055,-2.7003,-2.6287,0.0,0.0,0.0,0.0,0.0,0.0,0.0,0.0,0.0,0.0,0.0,0.0,0.0,0.0,0.0,0.0,0.0,0.0,0.0,0.0,0.0,0.0,0.0,0.0,0.0,0.0,0.0,0.0,0.0,0.0,0.0,0.0,0.0,0.0,0.0,0.0,0.0,0.0,0.0,0.0,0.0,-2.5895,-2.6016,-2.6016,-2.6183,0.0,0.0,-2.7725,-2.8106,-2.8326,0.0,0.0,0.0,0.0,0.0,0.0,0.0,0.0,0.0,0.0,0.0,0.0,0.0,0.0,0.0,0.0,0.0,0.0,0.0,0.0,0.0,0.0,0.0,0.0,0.0,0.0,0.0,0.0,0.0,0.0,0.0,0.0,0.0,0.0,0.0,0.0,0.0,0.0,0.0,0.0,0.0,0.0,0.0,0.0,0.0,0.0,0.0,0.0,0.0,0.0,0.0,0.0,0.0,0.0,0.0,-2.2995,-2.526,-2.5349,-2.6035,-2.7327,-2.7248,-2.7107,-2.7003,-2.6937,-2.6236,0.0,0.0,0.0,0.0,0.0,0.0,0.0,0.0,0.0,0.0,0.0,0.0,0.0,0.0,0.0,0.0,0.0,0.0,0.0,0.0,0.0,0.0,0.0,0.0,0.0,0.0,0.0,0.0,0.0,0.0,0.0,0.0,0.0,0.0,0.0,0.0,0.0,0.0,0.0,0.0,0.0,0.0,-2.7821,-2.7944,0.0,0.0,0.0,-2.9182,-2.9154,0.0,0.0,0.0,0.0,0.0,0.0,0.0,0.0,0.0,0.0,0.0,0.0,0.0,0.0,0.0,0.0,0.0,0.0,0.0,0.0,0.0,0.0,0.0,0.0,0.0,0.0,0.0,0.0,0.0,0.0,0.0,0.0,0.0,0.0,0.0,0.0,0.0,0.0,0.0,0.0,0.0,0.0,0.0,0.0,0.0,0.0,0.0,0.0,0.0,0.0,0.0,0.0,0.0,0.0,0.0,0.0,0.0,-2.5114,-2.5272,-2.5918,-2.7086,-2.6989,-2.6951,-2.6951,-2.6846,0.0,0.0,0.0,0.0,0.0,0.0,0.0,0.0,0.0,0.0,0.0,0.0,0.0,0.0,0.0,0.0,0.0,0.0,0.0,0.0,0.0,0.0,0.0,0.0,0.0,0.0,0.0,-2.1277,0.0,0.0,0.0,0.0,0.0,0.0,0.0,0.0,0.0,0.0,0.0,0.0,0.0,0.0,-2.8258,-2.9289,-2.955,-2.9792,0.0,0.0,-3.0403,-3.0208,-3.0123,-2.9921,0.0,0.0,0.0,0.0,0.0,0.0,0.0,0.0,0.0,0.0,0.0,0.0,0.0,0.0,0.0,0.0,0.0,0.0,0.0,0.0,0.0,0.0,0.0,0.0,0.0,0.0,0.0,0.0,0.0,0.0,0.0,0.0,0.0,0.0,0.0,0.0,0.0,0.0,0.0,0.0,0.0,0.0,0.0,0.0,0.0,0.0,0.0,0.0,0.0,0.0,0.0,0.0,0.0,0.0,-2.3574,-2.5062,-2.5515,-2.617,-2.6974,-2.6884,-2.6832,-2.6832,-2.6779,-2.6445,0.0,0.0,0.0,0.0,0.0,0.0,0.0,0.0,0.0,0.0,0.0,0.0,0.0,0.0,0.0,0.0,0.0,0.0,0.0,0.0,0.0,0.0,0.0,0.0,0.0,0.0,0.0,0.0,0.0,0.0,0.0,0.0,0.0,0.0,0.0,0.0,0.0,0.0,0.0,0.0,0.0,-2.9304,-2.9412,-2.995,-3.0314,0.0,-3.0845,-3.1296,-3.1769,-3.1957,-3.2077,-3.2169,0.0,0.0,0.0,0.0,0.0,0.0,0.0,0.0,0.0,0.0,0.0,0.0,0.0,0.0,0.0,0.0,0.0,0.0,0.0,0.0,0.0,0.0,0.0,0.0,0.0,0.0,0.0,0.0,0.0,0.0,0.0,0.0,0.0,0.0,0.0,0.0,0.0,0.0,0.0,0.0,0.0,0.0,0.0,0.0,0.0,0.0,0.0,0.0,0.0,0.0,0.0,0.0,0.0,-2.3963,-2.4869,-2.5523,-2.6163,-2.6855,-2.6846,-2.6794,-2.6794,-2.6698,-2.6289,0.0,0.0,0.0,0.0,0.0,0.0,0.0,0.0,0.0,0.0,0.0,0.0,0.0,0.0,0.0,0.0,0.0,0.0,0.0,0.0,0.0,0.0,0.0,0.0,0.0,0.0,0.0,0.0,-2.2359,-2.2693,-2.3669,0.0,0.0,0.0,0.0,0.0,0.0,0.0,0.0,0.0,0.0,-3.0026,-3.0334,-3.0609,0.0,0.0,-3.217,-3.2437,-3.2869,-3.287,-3.2679,-3.2362,-3.199,0.0,0.0,0.0,0.0,0.0,0.0,0.0,0.0,0.0,0.0,0.0,0.0,0.0,0.0,0.0,0.0,0.0,0.0,0.0,0.0,0.0,0.0,0.0,0.0,0.0,0.0,-2.2217,-2.2324,0.0,0.0,0.0,0.0,0.0,0.0,0.0,0.0,0.0,0.0,0.0,0.0,0.0,0.0,0.0,0.0,0.0,0.0,0.0,0.0,0.0,0.0,0.0,0.0,-2.4399,-2.4785,-2.5662,-2.6315,-2.6765,-2.6794,-2.6794,-2.6779,-2.6578,-2.6309,0.0,0.0,0.0,0.0,0.0,0.0,0.0,0.0,0.0,0.0,0.0,0.0,0.0,0.0,0.0,0.0,0.0,0.0,0.0,0.0,0.0,0.0,0.0,0.0,0.0,0.0,0.0,0.0,-2.3081,-2.3497,-2.4383,0.0,0.0,0.0,0.0,0.0,0.0,0.0,0.0,0.0,0.0,-3.0502,-3.0864,-3.1218,-3.1807,-3.273,-3.2974,-3.3276,-3.3632,-3.352,-3.3187,-3.2796,0.0,0.0,0.0,0.0,0.0,0.0,0.0,0.0,0.0,0.0,0.0,0.0,0.0,0.0,0.0,0.0,0.0,0.0,0.0,0.0,0.0,0.0,0.0,0.0,0.0,0.0,0.0,-2.217,0.0,0.0,-2.2417,0.0,0.0,0.0,0.0,0.0,0.0,0.0,0.0,0.0,0.0,0.0,0.0,0.0,0.0,0.0,0.0,0.0,0.0,0.0,0.0,0.0,0.0,-2.4863,-2.4814,-2.6112,-2.6765,-2.6794,-2.6794,-2.6794,-2.6779,-2.6578,-2.6496,-2.6453,0.0,0.0,0.0,0.0,0.0,0.0,0.0,0.0,0.0,0.0,0.0,0.0,0.0,0.0,0.0,0.0,0.0,0.0,0.0,0.0,0.0,0.0,0.0,0.0,0.0,0.0,-2.3589,-2.3872,-2.4089,0.0,0.0,0.0,0.0,0.0,0.0,0.0,0.0,0.0,-2.9955,-3.0377,-3.0689,-3.0734,-3.1702,-3.2482,-3.2542,-3.302,-3.3585,-3.4129,-3.3883,-3.3682,0.0,0.0,0.0,0.0,0.0,0.0,0.0,0.0,0.0,0.0,0.0,0.0,0.0,0.0,0.0,0.0,0.0,0.0,0.0,0.0,0.0,0.0,0.0,0.0,0.0,0.0,0.0,-2.1935,-2.2091,0.0,0.0,0.0,0.0,0.0,0.0,0.0,0.0,0.0,0.0,0.0,-2.626,-2.6155,0.0,0.0,0.0,0.0,0.0,0.0,0.0,0.0,0.0,0.0,0.0,0.0,-2.5473,-2.5517,-2.6329,-2.6794,-2.6794,-2.6794,-2.6712,-2.6592,-2.6418,-2.6073,-2.5381,0.0,0.0,0.0,0.0,0.0,0.0,0.0,0.0,0.0,0.0,0.0,0.0,0.0,0.0,0.0,0.0,0.0,0.0,0.0,0.0,0.0,0.0,0.0,0.0,0.0,-2.3496,0.0,0.0,0.0,0.0,0.0,0.0,0.0,0.0,0.0,0.0,-2.9403,-3.0615,-3.0263,-3.1093,-3.1648,-3.156,-3.2287,-3.3013,0.0,0.0,0.0,0.0,0.0,0.0,0.0,0.0,0.0,0.0,0.0,0.0,0.0,0.0,-3.1162,-3.1516,-3.1612,-3.1461,-3.0925,0.0,0.0,0.0,0.0,0.0,0.0,0.0,0.0,0.0,0.0,0.0,0.0,0.0,0.0,-2.2477,-2.2637,-2.2782,0.0,0.0,0.0,0.0,0.0,0.0,0.0,0.0,-2.5782,-2.6175,-2.6788,-2.66,-2.6659,-2.6859,-2.6818,-2.6386,0.0,0.0,0.0,0.0,0.0,0.0,0.0,0.0,-2.564,-2.5669,-2.6327,-2.6712,-2.6712,-2.6712,-2.6645,-2.651,-2.6218,-2.5711,-2.4981,-2.4341,-2.3825,0.0,0.0,0.0,0.0,0.0,0.0,0.0,0.0,0.0,0.0,0.0,0.0,0.0,0.0,0.0,0.0,0.0,0.0,0.0,0.0,0.0,0.0,0.0,-2.4722,0.0,0.0,0.0,0.0,0.0,0.0,0.0,0.0,0.0,-2.8174,-2.9744,-3.0914,-3.0792,-3.1426,-3.1921,-3.2046,0.0,0.0,0.0,0.0,0.0,0.0,0.0,-3.4232,-3.3619,-3.3494,-3.3368,-3.2731,-3.2372,-3.2169,-3.2169,0.0,0.0,-3.2164,-3.2235,-3.1998,-3.1555,-3.1181,-3.1015,-3.1015,-3.1029,-3.1151,0.0,0.0,0.0,0.0,-2.3162,0.0,0.0,0.0,-2.3537,-2.3626,0.0,-2.396,0.0,0.0,0.0,0.0,-2.4448,-2.5097,0.0,0.0,-2.5987,-2.6614,-2.724,-2.7087,-2.7286,-2.7822,-2.7692,-2.7383,-2.6947,-2.5977,-2.5103,0.0,0.0,0.0,0.0,0.0,-2.544,-2.5469,-2.6146,-2.6539,-2.6553,-2.6582,-2.6582,-2.6543,-2.6018,-2.5578,-2.5188,-2.4392,-2.3861,-2.371,-2.3001,0.0,0.0,0.0,0.0,0.0,0.0,0.0,0.0,0.0,0.0,0.0,0.0,0.0,0.0,0.0,0.0,0.0,0.0,0.0,0.0,-2.6208,0.0,0.0,0.0,0.0,0.0,0.0,0.0,0.0,0.0,-2.904,-2.9653,-3.0264,-3.0867,-3.1608,0.0,0.0,0.0,0.0,-3.2939,-3.2954,-3.3511,-3.3925,-3.3896,-3.3913,-3.3718,-3.334,0.0,0.0,-3.2629,-3.2314,-3.2169,-3.2169,-3.2169,-3.2169,-3.2228,-3.2214,-3.2214,-3.2128,-3.2101,-3.2155,-3.2155,-3.2046,-3.2087,-2.4563,0.0,0.0,0.0,0.0,-2.3189,-2.3241,-2.3294,-2.3513,-2.3602,-2.3668,-2.3951,0.0,0.0,0.0,0.0,0.0,0.0,-2.5602,-2.5909,-2.5972,-2.6286,-2.6778,-2.6608,-2.6826,-2.7276,-2.7322,-2.7225,-2.7014,-2.6771,-2.6343,-2.5759,0.0,0.0,0.0,0.0,-2.6069,-2.6044,-2.6737,-2.7052,-2.7052,-2.7481,-2.7541,-2.7228,-2.6707,-2.6149,-2.5482,-2.5074,-2.462,-2.4125,-2.3401,0.0,0.0,0.0,0.0,0.0,0.0,0.0,0.0,0.0,0.0,0.0,0.0,0.0,0.0,0.0,0.0,0.0,0.0,0.0,-2.6471,-2.6726,-2.693,0.0,0.0,0.0,0.0,0.0,0.0,0.0,0.0,0.0,-3.0031,-3.0659,-3.1267,0.0,0.0,-3.2307,-3.2492,-3.2897,-3.3155,-3.3141,-3.3394,0.0,-3.3452,-3.3494,-3.3353,-3.3071,-3.283,-3.2602,-3.253,-3.2314,-3.2169,-3.2169,-3.2169,-3.2169,-3.2169,-3.2169,-3.2169,-3.2169,-3.2169,-3.2169,-3.2169,-3.2169,-3.2169,-2.5494,-2.4626,-2.4136,-2.3947,-2.3879,-2.3893,-2.4069,-2.4272,-2.4231,-2.4352,-2.4612,-2.4632,-2.464,-2.4654,-2.4693,0.0,0.0,0.0,-2.5936,-2.6231,-2.6315,-2.6618,-2.7069,-2.6919,-2.7053,-2.7488,-2.755,-2.7441,-2.7162,-2.7244,-2.6992,-2.6483,0.0,-2.668,-2.6666,-2.668,-2.668,-2.6694,-2.7103,-2.7371,-2.7371,-2.7667,-2.7631,-2.7244,-2.6749,-2.6209,-2.568,-2.5411,-2.5118,-2.4753,-2.4158,-2.3858,0.0,0.0,0.0,0.0,0.0,0.0,0.0,0.0,0.0,0.0,0.0,-2.3655,-2.4204,0.0,0.0,0.0,-2.6627,-2.7332,-2.7673,-2.7577,0.0,0.0,0.0,0.0,0.0,0.0,0.0,-2.9237,-2.9979,-3.0585,-3.0807,-3.1222,-3.1575,-3.1914,-3.2131,-3.2372,-3.261,0.0,-3.3044,-3.3058,-3.303,-3.2974,-3.3071,-3.2959,-3.2846,-3.2646,-3.2444,-3.2372,-3.2386,-3.2255,-3.2182,-3.2169,-3.2169,-3.2169,-3.2169,-3.2169,-3.2169,-3.2169,-3.2169,-3.2169,-3.2169,-3.2169,-3.2169,-2.6563,-2.6279,-2.5418,-2.5046,-2.5005,-2.5005,-2.5303,-2.5778,-2.5336,-2.5474,-2.601,-2.5672,-2.5535,-2.5577,-2.559,0.0,-2.5618,-2.6155,-2.6403,-2.6431,-2.6804,-2.723,-2.7775,-2.7525,-2.7659,-2.8208,-2.8131,-2.7851,-2.7367,-2.7417,-2.7211,-2.681,-2.71,-2.7166,-2.7189,-2.7189,-2.7129,-2.7189,-2.7377,-2.7506,-2.7575,-2.7414,-2.716,-2.6911,-2.6392,-2.6005,-2.584,-2.5498,-2.5409,-2.5458,-2.5006,-2.4858,-2.5027,0.0,0.0,0.0,0.0,0.0,0.0,0.0,0.0,0.0,0.0,0.0,0.0,0.0,0.0,-2.6374,-2.7234,0.0,-2.8546,-2.8627,0.0,0.0,0.0,-2.9018,-2.9695,-2.975,-3.0021,-3.0772,0.0,0.0,-3.1654,-3.1778,-3.1889,-3.2055,-3.1958,-3.2068,-3.2621,-3.269,-3.2632,-3.2632,-3.2591,-3.2563,-3.2632,-3.2451,-3.2253,-3.2263,-3.2187,-3.2241,-3.2182,-3.2169,-3.2169,-3.2169,-3.2169,-3.2169,-3.2169,-3.2169,-3.2169,-3.2169,-3.2169,-3.2169,-3.2169,-3.2169,-3.2169,-2.682,-2.6392,-2.5867,-2.5426,-2.5005,-2.5005,-2.5086,-2.5208,-2.5229,-2.5199,-2.5293,-2.5778,-2.6116,-2.6421,-2.6421,-2.6421,-2.6435,-2.6571,-2.6579,-2.6458,-2.6593,-2.6787,-2.7096,-2.7046,-2.7221,-2.7497,-2.759,-2.7537,-2.7327,-2.7446,-2.7446,-2.7315,-2.7367,-2.7237,-2.6809,-2.6829,-2.6843,-2.6829,-2.7291,-2.7816,-2.8343,-2.8139,-2.7884,-2.7575,-2.7315,-2.6791,-2.6038,-2.5935,-2.5794,-2.5497,-2.5355,-2.5402,-2.5628,-2.5497,0.0,0.0,0.0,0.0,0.0,0.0,0.0,0.0,0.0,-2.573,-2.5985,0.0,-2.7037,0.0,-2.7904,-2.8502,-2.8702,-2.9059,0.0,0.0,-2.9753,-3.0038,-3.0242,-3.0256,-3.031,-3.0515,-3.0937,-3.1264,-3.14,-3.1809,-3.2109,-3.2181,-3.2225,-3.2324,-3.2475,-3.2359,-3.2314,-3.23,-3.2286,-3.2286,-3.23,-3.2286,-3.2173,-3.2214,-3.2228,-3.2169,-3.2169,-3.2169,-3.2169,-3.2169,-3.2169,-3.2169,-3.2169,-3.2169,-3.2096,-3.1923,-3.2082,-3.2169,-3.2169,-3.2169,-3.2169,-2.6651,-2.6277,-2.6017,-2.5548,-2.5005,-2.5005,-2.5111,-2.5314,-2.5127,-2.5097,-2.5168,-2.5364,-2.5567,-2.5746,-2.5759,-2.5746,-2.5773,-2.5968,-2.5968,-2.5921,-2.6052,-2.6275,-2.6634,-2.6596,-2.6791,-2.7134,-2.7281,-2.7281,-2.7134,-2.7268,-2.7281,-2.7268,-2.7268,-2.7144,-2.6852,-2.6953,-2.7067,-2.708,-2.745,-2.7913,-2.8235,-2.8039,-2.7855,-2.759,-2.7323,-2.6912,-2.6391,-2.6324,-2.6251,-2.6141,-2.5936,-2.5935,-2.619,-2.5955,-2.5811,0.0,0.0,0.0,0.0,0.0,0.0,0.0,0.0,0.0,0.0,0.0,-2.7715,-2.7985,-2.8333,-2.8774,-2.9097,-2.9358,-2.9658,-2.9997,-3.0269,-3.0513,-3.0785,-3.0798,-3.0907,-3.1165,-3.149,-3.168,-3.1707,-3.1979,-3.2169,-3.2169,-3.23,-3.2286,-3.23,-3.2241,-3.2169,-3.2169,-3.2169,-3.2169,-3.2169,-3.2169,-3.2169,-3.2169,-3.2169,-3.2169,-3.2169,-3.2169,-3.2196,-3.2164,-3.2177,-3.215,-3.1977,-3.1963,-3.189,-3.1803,-3.1803,-3.189,-3.1977,-3.199,-3.193,-2.6345,-2.6175,-2.5959,-2.5548,-2.4935,-2.4948,-2.5189,-2.5563,-2.4993,-2.494,-2.5269,-2.4779,-2.4651,-2.4718,-2.4731,-2.4731,-2.4758,-2.5084,-2.5248,-2.5274,-2.5439,-2.5845,-2.631,-2.6231,-2.6473,-2.6943,-2.6956,-2.6956,-2.6956,-2.6956,-2.6943,-2.6956,-2.6956,-2.6956,-2.6943,-2.7201,-2.7403,-2.7469,-2.7577,-2.7723,-2.7723,-2.7523,-2.7403,-2.7201,-2.6863,-2.6726,-2.6645,-2.6589,-2.6671,-2.693,-2.6524,-2.6374,-2.6765,-2.6321,-2.6046,0.0,-2.6046,0.0,0.0,0.0,0.0,0.0,0.0,0.0,0.0,-2.8,-2.8276,-2.8587,-2.8587,-2.8831,-2.9414,-2.955,-2.9849,-3.0446,-3.0581,-3.0839,-3.1341,-3.1409,-3.1599,-3.2114,-3.2169,-3.2169,-3.2155,-3.2169,-3.2169,-3.2169,-3.2169,-3.2241,-3.2169,-3.2169,-3.2169,-3.2169,-3.2169,-3.2169,-3.2169,-3.2169,-3.2169,-3.2169,-3.2196,-3.2182,-3.2109,-3.2123,-3.2164,-3.2171,-3.2071,-3.1857,-3.1482,-3.1468,-3.1408,-3.1447,-3.1447,-3.1447,-3.1596,-3.1622,-3.1662,-2.6672,-2.6175,-2.5959,-2.549,-2.4848,-2.465,-2.4704,-2.4939,-2.4576,-2.4563,-2.4801,-2.4589,-2.4735,-2.5148,-2.5312,-2.5449,-2.5387,-2.5491,-2.5543,-2.5543,-2.5382,-2.5602,-2.5996,-2.5955,-2.6181,-2.6577,-2.6602,-2.6602,-2.6602,-2.6602,-2.6602,-2.6602,-2.6602,-2.6602,-2.6602,0.0,0.0,0.0,-2.7134,-2.7146,-2.7146,-2.7146,-2.7011,-2.6794,-2.6726,0.0,-2.6521,-2.6533,-2.6671,-2.6943,-2.6921,0.0,0.0,0.0,0.0,0.0,0.0,0.0,0.0,0.0,0.0,0.0,-2.7432,-2.7472,-2.7762,-2.8118,-2.8365,-2.8587,-2.8587,-2.8831,-2.9428,-2.993,-3.0473,-3.1056,-3.1544,-3.1897,-3.2006,-3.2006,-3.2074,-3.2155,-3.2169,-3.2169,-3.2169,-3.2169,-3.2169,-3.2169,-3.2169,-3.2169,-3.2169,-3.2169,-3.2169,-3.2169,-3.2169,-3.2169,-3.2169,-3.2169,-3.2109,-3.205,-3.2104,-3.2044,-3.1844,-3.1951,-3.2192,-3.2146,-3.1683,-3.1162,-3.0686,-3.0647,-3.0664,-3.081,-3.0849,-3.0999,-3.1286,-3.136,-3.1299,-2.5925,-2.5595,-2.5409,-2.5104,0.0,-2.4421,-2.4332,-2.4345,-2.4157,-2.4125,-2.4159,-2.4099,-2.4205,-2.4461,-2.4548,-2.461,-2.461,-2.4548,-2.45,-2.45,-2.4289,-2.4469,-2.4962,-2.4949,-2.5325,-2.6025,-2.6038,-2.6244,-2.6508,-2.6521,-2.6521,-2.6521,-2.6521,-2.6521,-2.6521,-2.6521,-2.6602,-2.6863,-2.6863,-2.6863,-2.6863,-2.6863,-2.6807,-2.6602,-2.6589,0.0,0.0,0.0,0.0,0.0,0.0,0.0,0.0,-2.7469,-2.7469,-2.7469,-2.7469,-2.7469,-2.7469,-2.7469,-2.7469,-2.7469,-2.7469,-2.7603,-2.7934,-2.817,-2.8379,-2.8587,-2.8587,-2.8831,-2.9428,-3.0038,-3.0649,-3.1246,-3.1816,-3.2169,-3.2169,-3.2169,-3.2169,-3.2169,-3.2169,-3.2169,-3.2169,-3.2169,-3.2169,-3.2169,-3.2169,-3.2169,-3.2169,-3.2169,-3.2169,-3.2169,-3.2169,-3.2169,-3.2009,-3.2036,-3.1963,-3.183,-3.181,-3.1763,-3.1535,-3.1514,-3.1633,-3.1801,-3.1418,-3.0807,-3.0188,-2.9871,-2.9808,-3.0126,-3.0203,-3.019,-3.0343,-3.0508,-3.0672,-2.5211,-2.5124,-2.5091,-2.4972,-2.4726,-2.4459,-2.4188,-2.3923,-2.3863,0.0,0.0,-2.3509,-2.3509,-2.3509,-2.3556,-2.3569,-2.3569,-2.3463,-2.3403,-2.3403,-2.321,-2.3452,-2.3979,-2.3991,-2.4506,-2.5435,-2.5448,-2.5699,-2.6163,-2.6264,-2.6382,-2.6314,-2.6414,-2.6521,-2.6521,-2.6521,-2.6521,-2.6645,-2.6658,-2.6658,-2.6645,-2.6658,-2.6577,-2.6521,-2.6521,-2.6521,-2.6521,-2.6521,-2.6658,-2.6956,-2.7024,-2.7146,-2.7469,-2.7469,-2.7469,-2.7469,-2.7469,-2.7469,-2.7469,-2.7469,-2.7469,-2.7469,-2.7469,-2.7669,-2.8013,-2.8183,-2.8365,-2.8509,-2.8587,-2.8831,-2.9428,-2.9916,-3.054,-3.1219,-3.1734,-3.2046,-3.2155,-3.2169,-3.2169,-3.2169,-3.2169,-3.2169,-3.2169,-3.2169,-3.2169,-3.2169,-3.2169,-3.2169,-3.2169,-3.2169,-3.2182,-3.2209,-3.2123,-3.2023,-3.1877,-3.1803,-3.1757,-3.1522,-3.154,-3.1492,-3.1163,-3.0885,-3.0989,-3.13,-3.107,-3.0496,-2.977,-2.9312,-2.9133,-2.9512,-2.9626,-2.9574,-2.9419,-2.9586,-2.9831,-2.572,-2.5571,-2.6082,-2.5993,-2.5576,-2.5265,-2.4735,-2.4149,-2.3687,-2.333,-2.3198,-2.3198,-2.3198,-2.3198,-2.333,-2.3463,-2.3463,-2.3403,-2.3403,-2.3403,-2.3198,-2.3439,-2.3979,-2.3991,-2.433,-2.4895,-2.4933,-2.4971,-2.5084,-2.5498,-2.5711,-2.5787,-2.6214,-2.6521,-2.6521,-2.6521,-2.6533,-2.6533,-2.6521,-2.6521,-2.6533,-2.6521,-2.6521,-2.6521,-2.6521,-2.6521,-2.6521,-2.6521,-2.6671,-2.6956,-2.7024,-2.7146,-2.7469,-2.7469,-2.7469,-2.7469,-2.7469,-2.7469,-2.7469,-2.7469,-2.7469,-2.7469,-2.7469,-2.759,-2.7855,-2.8,-2.8197,-2.8365,-2.8509,-2.8831,-2.9387,-2.9564,-3.0079,-3.1083,-3.1355,-3.1612,-3.2087,-3.2169,-3.2169,-3.2169,-3.2169,-3.2182,-3.2182,-3.2182,-3.2182,-3.2182,-3.2109,-3.2109,-3.1963,-3.2109,-3.2209,-3.2204,-3.2017,-3.1917,-3.171,-3.1548,-3.1286,-3.1136,-3.1346,-3.1248,-3.0407,-3.0075,-3.0139,-3.0509,-3.0253,-2.9806,-2.9229,-2.8848,-2.8795,-2.9069,-2.9197,-2.9118,-2.9131,-2.9131,-2.9131,-2.6269,-2.6103,-2.631,-2.6096,-2.5623,-2.5103,-2.4653,-2.4357,-2.4078,-2.3929,-2.3816,-2.3666,-2.3602,-2.3577,-2.3349,-2.3271,-2.3198,-2.321,-2.321,-2.321,-2.3125,-2.3276,-2.3502,-2.3527,-2.3828,-2.4343,-2.4381,-2.4531,-2.4833,-2.5071,-2.5322,-2.5611,-2.6176,-2.6521,-2.6521,-2.6521,-2.6521,-2.6521,-2.6521,-2.6521,-2.6521,-2.6521,-2.6521,-2.6521,-2.6521,-2.6521,-2.6521,-2.6521,-2.6602,-2.6794,-2.6943,-2.7146,-2.7403,-2.7456,-2.7469,-2.7469,-2.7469,-2.7469,-2.7469,-2.7469,-2.7469,-2.7469,-2.7469,-2.7523,-2.7643,-2.7802,-2.8052,-2.8287,-2.8379,-2.8603,-2.898,-2.9279,-2.9713,-3.0228,-3.0866,-3.1395,-3.168,-3.2006,-3.2169,-3.2182,-3.2223,-3.2164,-3.205,-3.199,-3.193,-3.1904,-3.189,-3.1817,-3.1582,-3.1656,-3.1757,-3.1911,-3.171,-3.1508,-3.1185,-3.0973,-3.0748,-3.052,-3.0752,-3.056,-2.9869,-2.9422,-2.9266,-2.9571,-2.9341,-2.9008,-2.8827,-2.8621,-2.8657,-2.8676,-2.8736,-2.8749,-2.8749,-2.8657,-2.8657,-2.6816,-2.6556,-2.6578,-2.624,-2.5601,-2.5028,-2.4777,-2.4764,-2.4777,-2.4843,-2.4822,-2.4417,-2.418,-2.4142,-2.3715,-2.3514,-2.3453,-2.3514,-2.3527,-2.3514,-2.3514,-2.3502,-2.3514,-2.3453,-2.3691,-2.4079,-2.4104,-2.4342,-2.4653,-2.4803,-2.514,-2.5652,-2.617,-2.6396,-2.6396,-2.6396,-2.6383,-2.6396,-2.6396,-2.6396,-2.6521,-2.6521,-2.6521,-2.6521,-2.6521,-2.6521,-2.6521,-2.6521,-2.6589,-2.6726,-2.6875,-2.7079,-2.7281,-2.7403,-2.7469,-2.7469,-2.7469,-2.7469,-2.7469,-2.7469,-2.7469,-2.7469,-2.7469,-2.7469,-2.7523,-2.7656,-2.7855,-2.817,-2.8235,-2.8314,-2.8525,-2.8915,-2.9253,-2.9429,-3.0296,-3.088,-3.1124,-3.1612,-3.1979,-3.192,-3.2096,-3.2144,-3.1857,-3.1696,-3.1548,-3.1447,-3.1447,-3.1299,-3.1136,-3.1035,-3.1149,-3.125,-3.1163,-3.0934,-3.0454,-3.0291,-3.0126,-2.9921,-2.9995,-2.9839,-2.9365,-2.8839,-2.8657,-2.8937,-2.873,-2.8603,-2.8548,-2.8481,-2.8505,-2.8566,-2.859,-2.851,-2.851,-2.851,-2.851,-2.7157,-2.6918,-2.7249,-2.6886,-2.6102,-2.5852,-2.5644,-2.5481,-2.5681,-2.5901,-2.589,-2.5078,-2.4757,-2.4745,-2.4657,-2.4607,-2.4619,-2.4657,-2.4632,-2.4619,-2.4669,-2.4669,-2.4607,-2.4568,-2.4553,-2.4449,-2.4437,-2.4384,-2.4288,-2.4821,-2.5351,-2.5844,-2.5955,-2.598,-2.598,-2.598,-2.5968,-2.598,-2.5968,-2.6107,-2.6452,-2.6521,-2.6521,-2.6521,-2.6521,-2.6521,-2.6521,-2.6521,-2.6589,-2.6726,-2.6863,-2.7079,-2.7281,-2.739,-2.7469,-2.7469,-2.7469,-2.7469,-2.7469,-2.7469,-2.7469,-2.7469,-2.7469,-2.7469,-2.7469,-2.7536,-2.759,-2.7855,-2.8,-2.8145,-2.8145,-2.8329,-2.8702,-2.9147,-2.9551,-2.9862,-3.0432,-3.1015,-3.1311,-3.1168,-3.1721,-3.2071,-3.1609,-3.132,-3.1071,-3.1048,-3.0836,-3.0685,-3.052,-3.0368,-3.0216,-3.0126,-3.019,-3.0254,-2.9872,-2.9601,-2.9574,-2.9431,-2.93,-2.9155,-2.887,-2.8743,-2.8548,-2.8633,-2.8578,-2.8474,-2.8474,-2.8498,-2.8498,-2.8498,-2.851,-2.851,-2.851,-2.851,-2.851,-2.7679,-2.7262,-2.7432,-2.6985,-2.622,-2.6119,-2.598,-2.5828,-2.598,-2.6201,-2.6358,-2.5988,-2.5598,-2.5272,-2.4958,-2.4833,-2.4833,-2.4833,-2.4833,-2.4833,-2.4833,-2.4833,-2.482,-2.4678,-2.4549,-2.4471,-2.4394,-2.4251,-2.423,-2.4627,-2.5005,-2.5306,-2.5656,-2.591,-2.5923,-2.5923,-2.5923,-2.5923,-2.5923,-2.5968,-2.6107,-2.6119,-2.6188,-2.6327,-2.6327,-2.6396,-2.6465,-2.6521,-2.6533,-2.6589,-2.6739,-2.693,-2.7079,-2.7268,-2.7403,-2.7469,-2.7469,-2.7469,-2.7469,-2.7469,-2.7469,-2.7469,-2.7469,-2.7469,-2.7469,-2.7469,-2.7523,-2.7656,-2.7789,-2.7921,-2.8079,-2.8249,-2.8408,-2.8663,-2.9172,-2.9577,-2.9686,-3.024,-3.0573,-3.0663,-3.1149,-3.1422,-3.111,-3.0735,-3.0495,-3.0444,-3.0292,-3.0037,-2.9896,-2.9741,-2.9586,-2.9419,-2.9431,-2.9484,-2.9447,-2.9238,-2.9106,-2.9028,-2.8895,-2.8669,-2.8657,-2.8566,-2.8474,-2.851,-2.851,-2.851,-2.851,-2.851,-2.851,-2.851,-2.851,-2.851,-2.851,-2.851,-2.851,-2.7842,-2.7456,-2.7268,-2.685,-2.6233,-2.6188,-2.6144,-2.598,-2.6131,-2.6339,-2.6452,-2.6521,-2.6239,-2.5824,-2.5423,-2.5272,-2.5272,-2.5272,-2.5272,-2.5272,-2.5272,-2.5285,-2.5272,-2.5062,-2.493,-2.4851,-2.4664,-2.4384,-2.4297,-2.4554,-2.484,-2.49,-2.5378,-2.556,-2.563,-2.5618,-2.556,-2.556,-2.556,-2.556,-2.563,-2.563,-2.577,-2.6062,-2.6131,-2.6201,-2.6314,-2.6327,-2.6396,-2.6396,-2.6521,-2.6726,-2.6943,-2.7146,-2.7335,-2.7456,-2.7469,-2.7469,-2.7469,-2.7469,-2.7469,-2.7469,-2.7469,-2.7469,-2.7469,-2.7469,-2.7469,-2.7523,-2.7656,-2.7789,-2.7934,-2.8052,-2.8157,-2.8197,-2.8797,-2.9026,-2.8866,-2.9361,-2.9731,-2.9816,-3.0303,-3.0642,-3.0253,-3.0062,-3.0023,-2.9844,-2.9664,-2.9484,-2.9263,-2.9263,-2.9197,-2.8973,-2.8816,-2.887,-2.9106,-2.8961,-2.8724,-2.8724,-2.859,-2.851,-2.851,-2.851,-2.851,-2.851,-2.851,-2.851,-2.851,-2.851,-2.851,-2.851,-2.851,-2.851,-2.851,-2.851,-2.851,-2.7469,-2.7281,-2.6726,-2.6477,-2.6213,-2.6201,-2.6201,-2.6213,-2.6201,-2.6339,-2.6452,-2.6521,-2.6508,-2.6377,-2.6289,-2.642,-2.642,-2.6302,-2.6289,-2.6276,-2.6327,-2.6364,-2.6389,-2.6208,-2.5951,-2.562,-2.5235,-2.4932,-2.472,-2.4791,-2.4838,-2.4826,-2.4838,-2.4861,-2.4861,-2.4861,-2.4861,-2.4861,-2.4849,-2.4861,-2.4873,-2.4861,-2.5206,-2.577,-2.5898,-2.5898,-2.5898,-2.591,-2.598,-2.6201,-2.6302,-2.6496,-2.6714,-2.7053,-2.7335,-2.7469,-2.7469,-2.7469,-2.7469,-2.7469,-2.7469,-2.7469,-2.7469,-2.7469,-2.7469,-2.7469,-2.7469,-2.7469,-2.7536,-2.7536,-2.759,-2.7789,-2.7842,-2.7842,-2.8027,-2.8093,-2.7921,-2.8383,-2.8536,-2.8516,-2.9339,-2.973,-2.913,-2.9406,-2.9481,-2.93,-2.9118,-2.904,-2.8961,-2.8882,-2.8816,-2.8669,-2.859,-2.8578,-2.8724,-2.8724,-2.8578,-2.8498,-2.859,-2.851,-2.851,-2.851,-2.851,-2.851,-2.851,-2.851,-2.851,-2.851,-2.851,-2.851,-2.851,-2.851,-2.851,-2.851,-2.851,-2.7201,-2.693,-2.6602,-2.6396,-2.6201,-2.6327,-2.6339,-2.6213,-2.6339,-2.6408,-2.6465,-2.6521,-2.6521,-2.6521,-2.6521,-2.6521,-2.6521,-2.6521,-2.6521,-2.6452,-2.6396,-2.6258,-2.627,-2.5828,-2.5606,-2.5465,-2.504,-2.4622,-2.4273,-2.42,-2.42,-2.4273,-2.4345,-2.4418,-2.4418,-2.4418,-2.4429,-2.4418,-2.4429,-2.4418,-2.4418,-2.4418,-2.455,-2.4838,-2.517,-2.5382,-2.5535,-2.5676,-2.5758,-2.5828,-2.5968,-2.6233,-2.6496,-2.6985,-2.7335,-2.7403,-2.7469,-2.7469,-2.7469,-2.7469,-2.7469,-2.7469,-2.7469,-2.7469,-2.7469,-2.7469,-2.7469,-2.7469,-2.7403,-2.7403,-2.7403,-2.759,-2.7723,-2.7656,-2.7789,-2.7789,-2.7549,-2.7598,-2.7627,-2.7697,-2.8445,-2.8923,-2.909,-2.9131,-2.9077,-2.8895,-2.8816,-2.8657,-2.8657,-2.8578,-2.8578,-2.851,-2.851,-2.851,-2.8566,-2.8578,-2.851,-2.851,-2.851,-2.851,-2.851,-2.851,-2.851,-2.851,-2.851,-2.851,-2.851,-2.851,-2.851,-2.851,-2.851,-2.851,-2.851,-2.851,-2.851,-2.6794,-2.6533,-2.6452,-2.6327,-2.6327,-2.6465,-2.6396,-2.6339,-2.6465,-2.6521,-2.6521,-2.6521,-2.6521,-2.6521,-2.6521,-2.6521,-2.6465,-2.6465,-2.6396,-2.6408,-2.6201,-2.605,-2.591,-2.5548,-2.5229,-2.5016,-2.4467,-2.4043,-2.3751,-2.3666,-2.3604,-2.3604,-2.374,-2.3824,-2.3824,-2.3824,-2.3824,-2.3824,-2.3824,-2.3824,-2.3824,-2.3886,-2.3897,-2.397,-2.4311,-2.4743,-2.504,-2.5253,-2.5324,-2.5453,-2.5594,-2.5886,-2.6289,-2.6769,-2.7066,-2.7121,-2.7335,-2.7469,-2.7469,-2.7469,-2.7469,-2.7469,-2.7469,-2.7469,-2.7482,-2.7482,-2.7403,-2.7335,-2.7281,-2.7214,-2.7134,-2.7323,-2.739,-2.7255,-2.739,-2.731,-2.6973,-2.685,-2.6943,-2.7279,-2.7854,-2.8369,-2.8748,-2.8803,-2.8749,-2.8736,-2.8578,-2.851,-2.851,-2.851,-2.851,-2.851,-2.851,-2.851,-2.851,-2.851,-2.851,-2.851,-2.851,-2.851,-2.851,-2.851,-2.851,-2.851,-2.851,-2.851,-2.851,-2.851,-2.851,-2.851,-2.851,-2.851,-2.851,-2.851,-2.851,-2.6245,-2.627,-2.6213,-2.6327,-2.6452,-2.6452,-2.6521,-2.6452,-2.6452,-2.6521,-2.6521,-2.6521,-2.6521,-2.6521,-2.6521,-2.6521,-2.6452,-2.6258,-2.6201,-2.6201,-2.598,-2.5758,-2.5618,-2.5324,-2.4945,-2.4587,-2.3948,-2.3519,-2.3298,-2.315,-2.299,-2.3001,-2.3001,-2.3075,-2.299,-2.3075,-2.3001,-2.3075,-2.3075,-2.3075,-2.3001,-2.3224,-2.3372,-2.3372,-2.3582,-2.3959,-2.449,-2.4706,-2.4838,-2.5028,-2.517,-2.5594,-2.6082,-2.6371,-2.6496,-2.6714,-2.7079,-2.7281,-2.7335,-2.7403,-2.7469,-2.7469,-2.7469,-2.7429,-2.7468,-2.7294,-2.7201,-2.6998,-2.6943,-2.6875,-2.6726,-2.6726,-2.6701,-2.6714,-2.6714,-2.6577,-2.6302,-2.6258,-2.6433,-2.7078,-2.7492,-2.8008,-2.8379,-2.851,-2.859,-2.851,-2.851,-2.851,-2.851,-2.851,-2.851,-2.851,-2.851,-2.851,-2.851,-2.851,-2.851,-2.851,-2.851,-2.851,-2.851,-2.851,-2.851,-2.851,-2.851,-2.851,-2.851,-2.851,-2.851,-2.851,-2.851,-2.851,-2.851,-2.851,-2.851,-2.6258,-2.6396,-2.6396,-2.6465,-2.6521,-2.6521,-2.6521,-2.6521,-2.6521,-2.6521,-2.6521,-2.6521,-2.6521,-2.6521,-2.6521,-2.6396,-2.627,-2.598,-2.591,-2.6062,-2.5688,-2.5382,-2.517,-2.4754,-2.425,-2.3717,-2.3361,-2.3075,-2.2852,-2.2692,-2.2628,-2.2628,-2.2617,-2.2553,-2.2553,-2.2628,-2.2553,-2.2628,-2.2553,-2.2617,-2.2777,-2.2852,-2.2927,-2.3075,-2.3298,-2.3519,-2.3677,-2.4116,-2.4418,-2.4467,-2.4766,-2.5123,-2.5523,-2.5886,-2.6164,-2.6508,-2.6714,-2.693,-2.7092,-2.7146,-2.7134,-2.7146,-2.7146,-2.7172,-2.7224,-2.7024,-2.6824,-2.6595,-2.6483,-2.6371,-2.6176,-2.6025,-2.6025,-2.6302,-2.6245,-2.6037,-2.5853,-2.5839,-2.6154,-2.6554,-2.7107,-2.7723,-2.8136,-2.8395,-2.8462,-2.8474,-2.8498,-2.851,-2.851,-2.851,-2.851,-2.851,-2.851,-2.851,-2.851,-2.851,-2.851,-2.851,-2.851,-2.851,-2.851,-2.851,-2.851,-2.851,-2.851,-2.851,-2.851,-2.851,-2.851,-2.851,-2.851,-2.851,-2.851,-2.851,-2.851,-2.6119,-2.6396,-2.6396,-2.6396,-2.6452,-2.6521,-2.6521,-2.6521,-2.6521,-2.6521,-2.6521,-2.6521,-2.6452,-2.6396,-2.6396,-2.6258,-2.598,-2.5618,-2.5535,-2.5548,-2.5265,-2.4897,-2.4671,-2.4105,-2.3677,-2.3224,-2.2927,-2.2703,-2.2478,-2.2262,-2.2166,-2.2187,-2.2187,-2.2176,-2.2176,-2.2252,-2.2252,-2.2327,-2.2317,-2.2478,-2.2553,-2.2703,-2.2777,-2.2927,-2.3075,-2.315,-2.3224,-2.3604,-2.3897,-2.4043,-2.4345,-2.4778,-2.5111,-2.5465,-2.5746,-2.6,-2.6289,-2.6577,-2.6726,-2.6782,-2.6794,-2.6875,-2.6794,-2.682,-2.6858,-2.6615,-2.6414,-2.6077,-2.5975,-2.5886,-2.5606,-2.5453,-2.5453,-2.5618,-2.5606,-2.5477,-2.5384,-2.5409,-2.5607,-2.5981,-2.6498,-2.7038,-2.7508,-2.798,-2.8198,-2.8234,-2.839,-2.851,-2.851,-2.851,-2.8486,-2.8486,-2.851,-2.851,-2.851,-2.851,-2.851,-2.851,-2.851,-2.851,-2.851,-2.851,-2.851,-2.851,-2.851,-2.851,-2.851,-2.851,-2.851,-2.851,-2.8414,-2.851,-2.851,-2.851,-2.851,-2.591,-2.6213,-2.6213,-2.6327,-2.6452,-2.6521,-2.6521,-2.6521,-2.6521,-2.6521,-2.6521,-2.6521,-2.6396,-2.6201,-2.6201,-2.5992,-2.5618,-2.5382,-2.5016,-2.4731,-2.4467,-2.4261,-2.4043,-2.3519,-2.315,-2.2927,-2.2628,-2.2327,-2.2241,-2.2025,-2.1807,-2.1949,-2.1949,-2.1883,-2.1949,-2.2025,-2.2187,-2.2176,-2.2327,-2.2402,-2.2478,-2.2639,-2.2703,-2.2777,-2.2927,-2.3001,-2.3075,-2.3224,-2.3446,-2.3593,-2.397,-2.4345,-2.4718,-2.504,-2.5241,-2.5382,-2.5873,-2.6164,-2.6289,-2.6358,-2.644,-2.6577,-2.644,-2.6371,-2.6352,-2.6188,-2.5849,-2.5451,-2.5499,-2.5394,-2.5099,-2.5016,-2.4957,-2.4838,-2.4969,-2.4969,-2.479,-2.4788,-2.514,-2.5518,-2.5749,-2.6012,-2.6716,-2.7287,-2.7543,-2.7741,-2.8017,-2.8162,-2.8222,-2.815,-2.833,-2.8294,-2.8126,-2.8065,-2.7933,-2.7933,-2.7921,-2.7921,-2.8041,-2.821,-2.8354,-2.8493,-2.8464,-2.8488,-2.8306,-2.8366,-2.8318,-2.8162,-2.8126,-2.8053,-2.8138,-2.839,-2.8438,-2.8445,-2.839,-2.6188,-2.6396,-2.6396,-2.6465,-2.6521,-2.6521,-2.6521,-2.6521,-2.6521,-2.6521,-2.6521,-2.6521,-2.6408,-2.6213,-2.6201,-2.591,-2.5394,-2.5016,-2.4659,-2.4322,-2.3813,-2.3519,-2.3298,-2.2852,-2.2703,-2.2703,-2.2553,-2.2478,-2.2553,-2.2327,-2.2252,-2.2252,-2.2176,-2.2252,-2.2252,-2.2252,-2.2327,-2.2338,-2.2327,-2.2478,-2.2617,-2.2692,-2.2777,-2.2927,-2.3001,-2.3001,-2.3001,-2.3075,-2.3224,-2.3593,-2.3666,-2.397,-2.4345,-2.4478,-2.4671,-2.5016,-2.5382,-2.5594,-2.5816,-2.5955,-2.6037,-2.6107,-2.5955,-2.5828,-2.5828,-2.5535,-2.5288,-2.5063,-2.504,-2.4921,-2.4694,-2.4622,-2.455,-2.4418,-2.455,-2.4622,-2.4464,-2.4669,-2.502,-2.5319,-2.5749,-2.6186,-2.6491,-2.6844,-2.714,-2.7164,-2.7308,-2.7452,-2.756,-2.7536,-2.7609,-2.7416,-2.7272,-2.7296,-2.7296,-2.7296,-2.7284,-2.7236,-2.7404,-2.7705,-2.8023,-2.8355,-2.8472,-2.8467,-2.7936,-2.7782,-2.7601,-2.742,-2.7468,-2.7572,-2.7524,-2.7633,-2.8101,-2.8251,-2.8114,-2.6339,-2.6521,-2.6521,-2.6521,-2.6521,-2.6521,-2.6521,-2.6521,-2.6521,-2.6521,-2.6521,-2.6521,-2.6327,-2.6062,-2.5992,-2.5618,-2.5111,-2.4671,-2.4322,-2.3897,-2.3298,-2.3075,-2.2927,-2.2703,-2.2703,-2.2703,-2.2553,-2.2553,-2.2553,-2.2478,-2.2402,-2.2402,-2.2392,-2.2392,-2.2402,-2.2478,-2.2553,-2.2553,-2.2617,-2.2703,-2.2841,-2.2841,-2.2852,-2.3001,-2.3001,-2.3001,-2.3001,-2.3001,-2.315,-2.3372,-2.3519,-2.3604,-2.3886,-2.4127,-2.4334,-2.4671,-2.4897,-2.5194,-2.5324,-2.5407,-2.5477,-2.5477,-2.5324,-2.5265,-2.5206,-2.5052,-2.4886,-2.4754,-2.4706,-2.4562,-2.4418,-2.4345,-2.4345,-2.4261,-2.4345,-2.4418,-2.42,-2.4407,-2.4653,-2.4989,-2.5312,-2.5745,-2.5979,-2.6294,-2.6488,-2.6635,-2.6851,-2.6947,-2.7007,-2.6911,-2.6851,-2.6779,-2.6803,-2.6911,-2.6947,-2.6947,-2.6911,-2.6839,-2.6827,-2.7128,-2.742,-2.7835,-2.7843,-2.7739,-2.7429,-2.7134,-2.6815,-2.6704,-2.6944,-2.7004,-2.6848,-2.6971,-2.7384,-2.7754,-2.7645,-2.6327,-2.6521,-2.6521,-2.6521,-2.6521,-2.6521,-2.6521,-2.6521,-2.6521,-2.6521,-2.6452,-2.6465,-2.6258,-2.591,-2.5688,-2.5265,-2.479,-2.4406,-2.397,-2.353,-2.3075,-2.2852,-2.3001,-2.2852,-2.2777,-2.2703,-2.2703,-2.2628,-2.2553,-2.2553,-2.2478,-2.2553,-2.2553,-2.2478,-2.2553,-2.2703,-2.2703,-2.2777,-2.2852,-2.2927,-2.3001,-2.3001,-2.3001,-2.3001,-2.3001,-2.3001,-2.3001,-2.3001,-2.3075,-2.3224,-2.3298,-2.3372,-2.3593,-2.3897,-2.4116,-2.4189,-2.4478,-2.4694,-2.4814,-2.4766,-2.4778,-2.4897,-2.4849,-2.4718,-2.4718,-2.4706,-2.4634,-2.449,-2.449,-2.4418,-2.4273,-2.42,-2.4273,-2.4273,-2.4418,-2.4418,-2.4273,-2.4273,-2.4345,-2.4562,-2.4741,-2.4933,-2.5242,-2.5613,-2.6021,-2.6045,-2.6238,-2.6322,-2.637,-2.6346,-2.6382,-2.6454,-2.6526,-2.6635,-2.6647,-2.6647,-2.6574,-2.6502,-2.6418,-2.6526,-2.6586,-2.6854,-2.6878,-2.6757,-2.648,-2.62,-2.5858,-2.5953,-2.6315,-2.644,-2.6236,-2.633,-2.6569,-2.6839,-2.6959,-2.6452,-2.6521,-2.6521,-2.6521,-2.6521,-2.6521,-2.6521,-2.6533,-2.6521,-2.6521,-2.6452,-2.6327,-2.6119,-2.591,-2.5535,-2.5052,-2.4574,-2.4189,-2.3677,-2.3161,-2.3001,-2.2927,-2.2927,-2.2777,-2.2628,-2.2703,-2.2703,-2.2777,-2.2852,-2.2852,-2.2841,-2.2852,-2.2852,-2.2841,-2.2852,-2.2852,-2.2927,-2.2927,-2.3001,-2.3001,-2.3001,-2.3001,-2.3001,-2.3001,-2.3001,-2.3001,-2.3001,-2.3001,-2.3001,-2.3075,-2.3075,-2.315,-2.3372,-2.3446,-2.3593,-2.3751,-2.3959,-2.4116,-2.4177,-2.4261,-2.4334,-2.4406,-2.4406,-2.4334,-2.4345,-2.4345,-2.4345,-2.4273,-2.4261,-2.4273,-2.4273,-2.4357,-2.4429,-2.4429,-2.4634,-2.4718,-2.4646,-2.4646,-2.4718,-2.4921,-2.4981,-2.5123,-2.5253,-2.5313,-2.554,-2.5516,-2.5588,-2.5673,-2.5745,-2.5817,-2.5889,-2.6021,-2.6009,-2.6069,-2.6069,-2.6069,-2.6081,-2.6069,-2.6021,-2.5985,-2.6045,-2.619,-2.6299,-2.5985,-2.5612,-2.5362,-2.5311,-2.5373,-2.5769,-2.5769,-2.5781,-2.5889,-2.6068,-2.6214,-2.631,-2.6521,-2.6521,-2.6521,-2.6521,-2.6521,-2.6521,-2.6521,-2.6589,-2.6521,-2.6521,-2.6533,-2.6339,-2.6062,-2.5828,-2.5382,-2.4969,-2.4562,-2.4043,-2.353,-2.3075,-2.3001,-2.3001,-2.3001,-2.2852,-2.2777,-2.2841,-2.2852,-2.2927,-2.3001,-2.3001,-2.3001,-2.3001,-2.3001,-2.3001,-2.3001,-2.3001,-2.3001,-2.3001,-2.3001,-2.3001,-2.3001,-2.3001,-2.3001,-2.3001,-2.3001,-2.3001,-2.3001,-2.3001,-2.3001,-2.3001,-2.3001,-2.3075,-2.315,-2.3224,-2.3372,-2.3446,-2.3666,-2.374,-2.3824,-2.3824,-2.397,-2.4055,-2.4043,-2.4127,-2.42,-2.4189,-2.4189,-2.4189,-2.42,-2.42,-2.4345,-2.4418,-2.4502,-2.4646,-2.4849,-2.4921,-2.4933,-2.4861,-2.4861,-2.5052,-2.504,-2.5182,-2.5253,-2.5312,-2.5324,-2.542,-2.542,-2.5492,-2.548,-2.5528,-2.548,-2.5516,-2.5444,-2.542,-2.5432,-2.5456,-2.5516,-2.554,-2.5576,-2.5564,-2.5588,-2.5732,-2.5888,-2.5599,-2.5289,-2.5348,-2.5302,-2.5312,-2.5312,-2.5432,-2.5528,-2.5552,-2.5612,-2.5745,-2.5805,-2.6521,-2.6521,-2.6521,-2.6521,-2.6533,-2.6521,-2.6589,-2.6658,-2.6589,-2.6589,-2.6589,-2.6327,-2.6062,-2.577,-2.5253,-2.4909,-2.4406,-2.397,-2.3298,-2.3075,-2.3001,-2.3001,-2.3001,-2.3001,-2.2927,-2.3001,-2.3001,-2.3001,-2.3001,-2.3001,-2.3001,-2.3001,-2.3001,-2.3001,-2.3001,-2.3001,-2.3001,-2.3001,-2.3001,-2.3001,-2.3001,-2.3001,-2.3001,-2.3001,-2.3001,-2.3001,-2.3001,-2.3001,-2.3001,-2.3001,-2.3001,-2.3001,-2.3075,-2.315,-2.3224,-2.3235,-2.3372,-2.3446,-2.3519,-2.3593,-2.3666,-2.3824,-2.3897,-2.397,-2.4116,-2.4189,-2.4189,-2.4189,-2.4261,-2.4345,-2.4502,-2.4646,-2.4706,-2.4849,-2.5052,-2.5123,-2.5123,-2.4981,-2.4992,-2.5123,-2.5182,-2.5241,-2.5241,-2.5312,-2.5312,-2.5312,-2.5312,-2.5312,-2.5312,-2.5312,-2.5312,-2.5312,-2.5312,-2.5312,-2.5312,-2.5312,-2.5312,-2.5312,-2.5312,-2.5312,-2.5312,-2.5408,-2.5587,-2.5503,-2.5324,-2.5312,-2.5312,-2.5312,-2.5312,-2.5312,-2.5336,-2.542,-2.5384,-2.5324,-2.5396,-2.6521,-2.6521,-2.6521,-2.6521,-2.6533,-2.6589,-2.6714,-2.6726,-2.6726,-2.6658,-2.6658,-2.6188,-2.598,-2.5688,-2.5135,-2.449,-2.397,-2.3519,-2.3224,-2.3001,-2.3001,-2.3001,-2.3001,-2.3001,-2.3001,-2.3001,-2.3001,-2.3001,-2.3001,-2.3001,-2.3001,-2.3001,-2.3001,-2.3001,-2.3001,-2.3001,-2.3001,-2.3001,-2.3001,-2.3001,-2.3001,-2.3001,-2.3001,-2.3001,-2.3001,-2.3001,-2.3001,-2.3001,-2.3001,-2.3001,-2.3001,-2.3001,-2.3001,-2.3075,-2.3075,-2.3075,-2.315,-2.3224,-2.3372,-2.3372,-2.3457,-2.3604,-2.3824,-2.3897,-2.397,-2.4105,-2.4189,-2.4261,-2.4345,-2.4562,-2.4718,-2.4849,-2.4981,-2.5123,-2.5182,-2.5253,-2.5253,-2.5111,-2.5052,-2.5123,-2.517,-2.5241,-2.5182,-2.5253,-2.5241,-2.5241,-2.5312,-2.5312,-2.5312,-2.5312,-2.5312,-2.5312,-2.5312,-2.5312,-2.5312,-2.5312,-2.5312,-2.5312,-2.5312,-2.5312,-2.5312,-2.5312,-2.5312,-2.5312,-2.5312,-2.5312,-2.5312,-2.5312,-2.5312,-2.5312,-2.5312,-2.5312,-2.5312,-2.5312,-2.5312,-2.6189,-2.6521,-2.6589,-2.6589,-2.6658,-2.6794,-2.693,-2.6998,-2.6943,-2.6875,-2.6726,-2.6314,-2.5968,-2.5618,-2.5076,-2.4345,-2.3751,-2.3372,-2.3224,-2.3075,-2.3001,-2.3001,-2.3001,-2.3001,-2.3001,-2.3001,-2.3001,-2.3001,-2.3001,-2.3001,-2.3001,-2.3001,-2.3001,-2.3001,-2.3001,-2.3001,-2.3001,-2.3001,-2.3001,-2.3001,-2.3001,-2.3001,-2.3001,-2.3001,-2.3001,-2.3001,-2.3001,-2.3001,-2.3001,-2.3001,-2.3001,-2.3001,-2.3001,-2.3001,-2.3001,-2.3001,-2.3001,-2.3075,-2.3224,-2.3298,-2.3457,-2.3751,-2.3897,-2.397,-2.4043,-2.4116,-2.4261,-2.4345,-2.4562,-2.4706,-2.4909,-2.5052,-2.5123,-2.5182,-2.5241,-2.5241,-2.5182,-2.5111,-2.5111,-2.5052,-2.4981,-2.4981,-2.5052,-2.5052,-2.517,-2.5241,-2.5241,-2.5241,-2.5312,-2.5312,-2.5312,-2.5312,-2.5312,-2.5312,-2.5312,-2.5312,-2.5312,-2.5312,-2.5312,-2.5312,-2.5312,-2.5312,-2.5312,-2.5312,-2.5312,-2.5312,-2.5312,-2.5312,-2.5312,-2.5312,-2.5241,-2.5241,-2.5312,-2.5312,-2.5241,-2.6118,-2.6521,-2.6645,-2.6714,-2.6794,-2.693,-2.7146,-2.7214,-2.7079,-2.7024,-2.6943,-2.6371,-2.5886,-2.5548,-2.4909,-2.4273,-2.3519,-2.3372,-2.315,-2.3001,-2.3001,-2.3001,-2.3001,-2.3001,-2.3001,-2.3001,-2.3001,-2.3001,-2.3001,-2.3001,-2.3001,-2.3001,-2.3001,-2.3001,-2.3001,-2.3001,-2.3001,-2.3001,-2.3001,-2.3001,-2.3001,-2.3001,-2.3001,-2.3001,-2.3001,-2.3001,-2.3001,-2.3001,-2.3001,-2.3001,-2.3001,-2.3001,-2.3001,-2.3001,-2.3001,-2.3001,-2.3012,-2.315,-2.3298,-2.3446,-2.3593,-2.3897,-2.397,-2.4043,-2.4127,-2.4273,-2.4345,-2.4562,-2.4778,-2.4921,-2.5123,-2.5123,-2.5182,-2.5253,-2.5312,-2.5241,-2.5111,-2.504,-2.4921,-2.4849,-2.4706,-2.4706,-2.4778,-2.4921,-2.4981,-2.5052,-2.5123,-2.5182,-2.5253,-2.5312,-2.5312,-2.5312,-2.5312,-2.5312,-2.5312,-2.5312,-2.5312,-2.5312,-2.5312,-2.5312,-2.5312,-2.5312,-2.5312,-2.5324,-2.5312,-2.5312,-2.5312,-2.5229,-2.5146,-2.5146,-2.5158,-2.517,-2.5123,-2.5123,-2.5123,-2.6526,-2.6658,-2.6726,-2.6794,-2.6943,-2.7214,-2.7268,-2.7268,-2.7079,-2.7024,-2.6956,-2.6258,-2.5828,-2.5394,-2.4622,-2.3897,-2.3457,-2.3298,-2.315,-2.3001,-2.3001,-2.3001,-2.3001,-2.3001,-2.3001,-2.3001,-2.3001,-2.3001,-2.3001,-2.3001,-2.3001,-2.3001,-2.3001,-2.3001,-2.3001,-2.3001,-2.3001,-2.3001,-2.3001,-2.3001,-2.3001,-2.3001,-2.3001,-2.3001,-2.3001,-2.3001,-2.3001,-2.3001,-2.3001,-2.3001,-2.3001,-2.3001,-2.3001,-2.3001,-2.3001,-2.3075,-2.315,-2.3372,-2.3519,-2.3666,-2.3813,-2.4043,-2.4116,-2.42,-2.4273,-2.4418,-2.4634,-2.4981,-2.5052,-2.5123,-2.5182,-2.5241,-2.53,-2.5312,-2.5312,-2.5241,-2.5111,-2.4909,-2.479,-2.449,-2.4334,-2.449,-2.4562,-2.4706,-2.4849,-2.4921,-2.4992,-2.5052,-2.5111,-2.5182,-2.5253,-2.5253,-2.5312,-2.5312,-2.5312,-2.5312,-2.5241,-2.5241,-2.5241,-2.5241,-2.5182,-2.5182,-2.5265,-2.5277,-2.5265,-2.5158,-2.5052,-2.4981,-2.4981,-2.4992,-2.4957,-2.4909,-2.4861,-2.4861,-2.4921,-2.6658,-2.6726,-2.693,-2.7066,-2.7214,-2.7335,-2.739,-2.7403,-2.7214,-2.6998,-2.6794,-2.6302,-2.5688,-2.4981,-2.4189,-2.3666,-2.3372,-2.3224,-2.3075,-2.3001,-2.3001,-2.3001,-2.3001,-2.3001,-2.3001,-2.3001,-2.3001,-2.3001,-2.3001,-2.3001,-2.3001,-2.3001,-2.3001,-2.3001,-2.3001,-2.3001,-2.3001,-2.3001,-2.3001,-2.3001,-2.3001,-2.3001,-2.3001,-2.3001,-2.3001,-2.3001,-2.3001,-2.3001,-2.3001,-2.3001,-2.3001,-2.3001,-2.3075,-2.3075,-2.315,-2.3224,-2.3446,-2.3604,-2.3604,-2.3824,-2.397,-2.4116,-2.42,-2.4273,-2.4418,-2.4634,-2.4838,-2.504,-2.5182,-2.5253,-2.5241,-2.5312,-2.5312,-2.5312,-2.5312,-2.5111,-2.4981,-2.4849,-2.4718,-2.4345,-2.4043,-2.4116,-2.4189,-2.4116,-2.4273,-2.449,-2.4634,-2.4778,-2.4909,-2.5052,-2.5123,-2.5182,-2.5253,-2.5312,-2.5312,-2.5312,-2.517,-2.517,-2.5182,-2.5111,-2.4969,-2.4981,-2.5171,-2.529,-2.5242,-2.5111,-2.4838,-2.4732,-2.4815,-2.4791,-2.4754,-2.4706,-2.4646,-2.4683,-2.4671,-2.685,-2.6863,-2.7214,-2.7335,-2.7335,-2.7469,-2.7469,-2.7469,-2.7268,-2.6998,-2.6577,-2.6082,-2.5324,-2.4478,-2.3897,-2.353,-2.3224,-2.3065,-2.3001,-2.3001,-2.3001,-2.3001,-2.3001,-2.3001,-2.3001,-2.3001,-2.3001,-2.3001,-2.3001,-2.3001,-2.3001,-2.3001,-2.3001,-2.3001,-2.3001,-2.3001,-2.3001,-2.3001,-2.3001,-2.3001,-2.3001,-2.3001,-2.3001,-2.3001,-2.3001,-2.3001,-2.3001,-2.3001,-2.3001,-2.3001,-2.3075,-2.3075,-2.315,-2.3298,-2.3372,-2.3446,-2.3677,-2.3824,-2.3824,-2.3897,-2.4043,-2.42,-2.4273,-2.4418,-2.4706,-2.4981,-2.5111,-2.5182,-2.5241,-2.5241,-2.5312,-2.5312,-2.5312,-2.5312,-2.5312,-2.5052,-2.4861,-2.479,-2.4574,-2.4116,-2.3824,-2.3593,-2.3593,-2.353,-2.3677,-2.397,-2.4273,-2.4429,-2.4634,-2.4849,-2.4921,-2.4981,-2.5052,-2.5123,-2.5123,-2.5111,-2.504,-2.504,-2.5064,-2.4981,-2.4826,-2.4908,-2.5147,-2.5266,-2.511,-2.4574,-2.4028,-2.4339,-2.4589,-2.4552,-2.4443,-2.4478,-2.4478,-2.4443,-2.4288,-2.7268,-2.7268,-2.7281,-2.739,-2.7456,-2.7469,-2.7469,-2.7469,-2.7146,-2.6875,-2.644,-2.5581,-2.4743,-2.4043,-2.3751,-2.3383,-2.3075,-2.3001,-2.3001,-2.3001,-2.3001,-2.3001,-2.3001,-2.3001,-2.3001,-2.3001,-2.3001,-2.3001,-2.3001,-2.3001,-2.3001,-2.3001,-2.3001,-2.3001,-2.3001,-2.3001,-2.3001,-2.3001,-2.3001,-2.3001,-2.3001,-2.3001,-2.3001,-2.3001,-2.3001,-2.3001,-2.3001,-2.3001,-2.3075,-2.3075,-2.3224,-2.3298,-2.3298,-2.3446,-2.3593,-2.3604,-2.3813,-2.3897,-2.3897,-2.4043,-2.4116,-2.4273,-2.4418,-2.4622,-2.4909,-2.5052,-2.5182,-2.5253,-2.5312,-2.5312,-2.5312,-2.5312,-2.5312,-2.5312,-2.5241,-2.5123,-2.4933,-2.4861,-2.4574,-2.397,-2.3677,-2.3446,-2.3139,-2.3075,-2.315,-2.3519,-2.3824,-2.4055,-2.4345,-2.4562,-2.4646,-2.4718,-2.479,-2.4861,-2.4861,-2.4861,-2.4849,-2.4873,-2.4897,-2.4718,-2.4611,-2.4788,-2.494,-2.4809,-2.4545,-2.3913,-2.3414,-2.3654,-2.3906,-2.4097,-2.4131,-2.402,-2.3897,-2.3801,-2.3655,-2.7323,-2.7403,-2.739,-2.7469,-2.7469,-2.7469,-2.7469,-2.7335,-2.7079,-2.6589,-2.5955,-2.5194,-2.455,-2.397,-2.3677,-2.3383,-2.3075,-2.3001,-2.3001,-2.3001,-2.3001,-2.3001,-2.3001,-2.3001,-2.3001,-2.3001,-2.3001,-2.3001,-2.3001,-2.3001,-2.3001,-2.3001,-2.3001,-2.3001,-2.3001,-2.3001,-2.3001,-2.3001,-2.3001,-2.3001,-2.3001,-2.3001,-2.3001,-2.3001,-2.3001,-2.3001,-2.3001,-2.315,-2.315,-2.3224,-2.3372,-2.3446,-2.3519,-2.3666,-2.3751,-2.3824,-2.397,-2.4043,-2.4043,-2.4189,-2.4273,-2.4418,-2.4694,-2.4909,-2.5111,-2.5182,-2.5241,-2.5312,-2.5312,-2.5312,-2.5312,-2.5312,-2.5312,-2.5312,-2.5253,-2.5123,-2.4992,-2.4861,-2.4502,-2.397,-2.3604,-2.3372,-2.3075,-2.2692,-2.2852,-2.3001,-2.3298,-2.3604,-2.3897,-2.4116,-2.42,-2.4345,-2.4418,-2.449,-2.4502,-2.4574,-2.4718,-2.4681,-2.4644,-2.4476,-2.4296,-2.4349,-2.4441,-2.4226,-2.3903,-2.3305,-2.2922,-2.2985,-2.3239,-2.3588,-2.3632,-2.3519,-2.3372,-2.315,-2.3001,-2.7403,-2.7469,-2.7469,-2.7469,-2.7469,-2.7469,-2.7403,-2.7268,-2.7011,-2.6302,-2.5394,-2.4849,-2.4345,-2.3897,-2.3593,-2.3372,-2.3075,-2.3001,-2.3001,-2.3001,-2.3001,-2.3001,-2.3001,-2.3001,-2.3001,-2.3001,-2.3001,-2.3001,-2.3001,-2.3001,-2.3001,-2.3001,-2.3001,-2.3001,-2.3001,-2.3001,-2.3001,-2.3001,-2.3001,-2.3001,-2.3001,-2.3001,-2.3001,-2.3001,-2.3001,-2.3001,-2.3075,-2.315,-2.3224,-2.3372,-2.3519,-2.3677,-2.374,-2.3813,-2.397,-2.4043,-2.4127,-2.4189,-2.4189,-2.4273,-2.4418,-2.4694,-2.4778,-2.4981,-2.5123,-2.5123,-2.5123,-2.5123,-2.5182,-2.5241,-2.5253,-2.5241,-2.5312,-2.5312,-2.5312,-2.5182,-2.4981,-2.4849,-2.4345,-2.3897,-2.3604,-2.3224,-2.2703,-2.2392,-2.2402,-2.2628,-2.2927,-2.315,-2.3298,-2.3519,-2.3677,-2.3824,-2.3897,-2.4043,-2.42,-2.42,-2.4127,-2.4139,-2.4112,-2.4146,-2.4022,-2.3965,-2.4044,-2.4129,-2.3624,-2.282,-2.2424,-2.2392,-2.2733,-2.3158,-2.3117,-2.3075,-2.2777,-2.2628,-2.2488,-2.7469,-2.7469,-2.7469,-2.7469,-2.7469,-2.7469,-2.7403,-2.7201,-2.6794,-2.6013,-2.5087,-2.4539,-2.4043,-2.3666,-2.3446,-2.3224,-2.3075,-2.3001,-2.3001,-2.3001,-2.3001,-2.3001,-2.3001,-2.3001,-2.3001,-2.3001,-2.3001,-2.3001,-2.3001,-2.3001,-2.3001,-2.3001,-2.3001,-2.3001,-2.3001,-2.3001,-2.3001,-2.3001,-2.3001,-2.3001,-2.3001,-2.3001,-2.3001,-2.3001,-2.3001,-2.3001,-2.3075,-2.3224,-2.3372,-2.3383,-2.3677,-2.3897,-2.3886,-2.4032,-2.4116,-2.42,-2.42,-2.4189,-2.42,-2.4345,-2.4562,-2.4838,-2.4849,-2.4921,-2.4992,-2.4992,-2.4861,-2.4921,-2.4992,-2.5123,-2.5111,-2.5182,-2.5241,-2.5241,-2.5241,-2.5182,-2.4981,-2.4706,-2.4261,-2.3824,-2.3446,-2.3075,-2.2478,-2.2101,-2.2025,-2.2176,-2.2553,-2.2703,-2.2703,-2.2852,-2.3075,-2.3235,-2.3372,-2.3446,-2.3593,-2.3604,-2.3604,-2.3615,-2.366,-2.3716,-2.3494,-2.3196,-2.3444,-2.3802,-2.3241,-2.2252,-2.1931,-2.1782,-2.2157,-2.2446,-2.2681,-2.2553,-2.2327,-2.2101,-2.1959,-2.7469,-2.7469,-2.7469,-2.7469,-2.7469,-2.7403,-2.7201,-2.6782,-2.6139,-2.5441,-2.4945,-2.4467,-2.397,-2.3666,-2.3372,-2.3224,-2.3075,-2.3001,-2.3001,-2.3001,-2.3001,-2.3001,-2.3001,-2.3001,-2.3001,-2.3001,-2.3001,-2.3001,-2.3001,-2.3001,-2.3001,-2.3001,-2.3001,-2.3001,-2.3001,-2.3001,-2.3001,-2.3001,-2.3001,-2.3001,-2.3001,-2.3001,-2.3001,-2.3001,-2.3001,-2.3001,-2.3075,-2.3298,-2.3446,-2.353,-2.3824,-2.4043,-2.4043,-2.4189,-2.4189,-2.4189,-2.42,-2.4273,-2.4345,-2.4418,-2.4418,-2.4634,-2.4706,-2.479,-2.4849,-2.4861,-2.4801,-2.4801,-2.479,-2.4921,-2.5123,-2.5111,-2.5182,-2.5182,-2.5123,-2.4909,-2.4706,-2.449,-2.4127,-2.3751,-2.3446,-2.3001,-2.2402,-2.1883,-2.1731,-2.1655,-2.1873,-2.2025,-2.2101,-2.2252,-2.2402,-2.2563,-2.2713,-2.2841,-2.2979,-2.3001,-2.3075,-2.3012,-2.3163,-2.3326,-2.3079,-2.2638,-2.2412,-2.2573,-2.2129,-2.1762,-2.1527,-2.1476,-2.1527,-2.1721,-2.1949,-2.2025,-2.1731,-2.1589,-2.1436,-2.7469,-2.7469,-2.7469,-2.7469,-2.7403,-2.7335,-2.6998,-2.6427,-2.5594,-2.5099,-2.4826,-2.425,-2.3813,-2.3593,-2.3298,-2.315,-2.3001,-2.3001,-2.3001,-2.3001,-2.3001,-2.3001,-2.3001,-2.3001,-2.3001,-2.3001,-2.3001,-2.3001,-2.3001,-2.3001,-2.3001,-2.3001,-2.3001,-2.3001,-2.3001,-2.3001,-2.3001,-2.3001,-2.3001,-2.3001,-2.3001,-2.3001,-2.3001,-2.3001,-2.3001,-2.3001,-2.315,-2.3298,-2.3593,-2.3677,-2.3897,-2.4189,-2.4189,-2.4189,-2.4189,-2.4189,-2.42,-2.4273,-2.42,-2.42,-2.4116,-2.4043,-2.4345,-2.4502,-2.449,-2.4345,-2.4345,-2.4345,-2.4502,-2.4634,-2.4766,-2.4826,-2.4981,-2.4981,-2.4921,-2.4706,-2.4562,-2.4345,-2.4055,-2.3666,-2.3298,-2.2841,-2.2327,-2.1807,-2.1436,-2.1359,-2.1272,-2.1425,-2.1578,-2.1731,-2.1873,-2.2025,-2.2111,-2.2252,-2.2317,-2.2402,-2.2402,-2.2413,-2.2638,-2.2897,-2.2551,-2.2032,-2.1686,-2.1415,-2.1242,-2.1155,-2.1088,-2.1088,-2.1185,-2.1272,-2.1359,-2.1282,-2.1138,-2.1061,-2.1061,-2.7469,-2.7469,-2.7469,-2.7403,-2.7335,-2.7201,-2.6782,-2.6151,-2.537,-2.4897,-2.4718,-2.397,-2.3593,-2.3519,-2.315,-2.3001,-2.3001,-2.3001,-2.3001,-2.3001,-2.3001,-2.3001,-2.3001,-2.3001,-2.3001,-2.3001,-2.3001,-2.3001,-2.3001,-2.3001,-2.3001,-2.3001,-2.3001,-2.3001,-2.3001,-2.3001,-2.3001,-2.3001,-2.3001,-2.3001,-2.3001,-2.3001,-2.3001,-2.3001,-2.3001,-2.3001,-2.315,-2.3372,-2.3519,-2.374,-2.397,-2.4116,-2.4189,-2.4189,-2.4189,-2.4189,-2.4189,-2.4055,-2.3897,-2.3824,-2.3677,-2.3457,-2.3604,-2.3751,-2.3824,-2.3751,-2.3751,-2.3824,-2.3897,-2.4043,-2.4189,-2.449,-2.4718,-2.4718,-2.4718,-2.4574,-2.4418,-2.4127,-2.3897,-2.353,-2.315,-2.2628,-2.2025,-2.1502,-2.1205,-2.1051,-2.0974,-2.0964,-2.1118,-2.1282,-2.1349,-2.1415,-2.1568,-2.1655,-2.1731,-2.1873,-2.1873,-2.1883,-2.2043,-2.2192,-2.1845,-2.1553,-2.1195,-2.0914,-2.071,-2.071,-2.076,-2.0944,-2.1051,-2.1061,-2.0974,-2.0974,-2.0896,-2.0819,-2.0819,-2.7469,-2.7469,-2.7469,-2.7403,-2.7201,-2.6782,-2.622,-2.5734,-2.5123,-2.4706,-2.4334,-2.3824,-2.353,-2.3361,-2.3161,-2.3001,-2.3001,-2.3001,-2.3001,-2.3001,-2.3001,-2.3001,-2.3001,-2.3001,-2.3001,-2.3001,-2.3001,-2.3001,-2.3001,-2.3001,-2.3001,-2.3001,-2.3001,-2.3001,-2.3001,-2.3001,-2.3001,-2.3001,-2.3001,-2.3001,-2.3001,-2.3001,-2.3001,-2.3001,-2.3001,-2.3001,-2.3075,-2.3372,-2.353,-2.3677,-2.397,-2.42,-2.4189,-2.42,-2.42,-2.397,-2.397,-2.3897,-2.3519,-2.3372,-2.315,-2.2852,-2.2777,-2.2927,-2.3075,-2.315,-2.315,-2.3235,-2.3372,-2.3593,-2.374,-2.397,-2.4116,-2.4189,-2.4116,-2.4043,-2.3897,-2.3666,-2.3372,-2.3075,-2.2703,-2.2262,-2.1655,-2.1339,-2.1041,-2.0896,-2.0819,-2.0731,-2.0809,-2.0896,-2.0974,-2.1031,-2.1108,-2.1272,-2.1262,-2.1328,-2.1339,-2.1359,-2.1584,-2.1614,-2.1343,-2.1051,-2.076,-2.0585,-2.0585,-2.0595,-2.0615,-2.0722,-2.0819,-2.0731,-2.0654,-2.0654,-2.0654,-2.0586,-2.0508,-2.7469,-2.7469,-2.7469,-2.7335,-2.6998,-2.6383,-2.5816,-2.5394,-2.4992,-2.4562,-2.4189,-2.3751,-2.353,-2.3298,-2.3075,-2.3001,-2.3001,-2.3001,-2.3001,-2.3001,-2.3001,-2.3001,-2.3001,-2.3001,-2.3001,-2.3001,-2.3001,-2.3001,-2.3001,-2.3001,-2.3001,-2.3001,-2.3001,-2.3001,-2.3001,-2.3001,-2.3001,-2.3001,-2.3001,-2.3001,-2.3001,-2.3001,-2.3001,-2.3001,-2.3001,-2.3001,-2.3075,-2.3383,-2.3457,-2.353,-2.3824,-2.397,-2.397,-2.397,-2.3824,-2.3666,-2.3666,-2.3446,-2.315,-2.2852,-2.2628,-2.2327,-2.2111,-2.2122,-2.2262,-2.2488,-2.2563,-2.2713,-2.2927,-2.3139,-2.3298,-2.3372,-2.3446,-2.3519,-2.3519,-2.3446,-2.3224,-2.3065,-2.2777,-2.2478,-2.2176,-2.1807,-2.1425,-2.1108,-2.0867,-2.0799,-2.0731,-2.0654,-2.0644,-2.0731,-2.0731,-2.0789,-2.0876,-2.0954,-2.0954,-2.0954,-2.0954,-2.0964,-2.0974,-2.0994,-2.0819,-2.0731,-2.0624,-2.0624,-2.0566,-2.0566,-2.0634,-2.0566,-2.0654,-2.0489,-2.042,-2.043,-2.0352,-2.0274,-2.0186,-2.7469,-2.7469,-2.7456,-2.7134,-2.6645,-2.6107,-2.5535,-2.5016,-2.4849,-2.4574,-2.4127,-2.3751,-2.3446,-2.3224,-2.3075,-2.3001,-2.3001,-2.3001,-2.3001,-2.3001,-2.3001,-2.3001,-2.3001,-2.3001,-2.3001,-2.3001,-2.3001,-2.3001,-2.3001,-2.3001,-2.3001,-2.3001,-2.3001,-2.3001,-2.3001,-2.3001,-2.3001,-2.3001,-2.3001,-2.3001,-2.3001,-2.3001,-2.3001,-2.3001,-2.3001,-2.3001,-2.3075,-2.315,-2.3298,-2.3372,-2.3446,-2.3519,-2.3519,-2.3519,-2.3446,-2.3298,-2.3298,-2.299,-2.2692,-2.2402,-2.2187,-2.1883,-2.1589,-2.1533,-2.1686,-2.1894,-2.2035,-2.2122,-2.2338,-2.2478,-2.2628,-2.2777,-2.2927,-2.2927,-2.2927,-2.2852,-2.2628,-2.2392,-2.2166,-2.1939,-2.1711,-2.1339,-2.1108,-2.0779,-2.0789,-2.0644,-2.0644,-2.0566,-2.0566,-2.0644,-2.0644,-2.0634,-2.0644,-2.0722,-2.0722,-2.0722,-2.0644,-2.0644,-2.0644,-2.0644,-2.0731,-2.0654,-2.0576,-2.0576,-2.0576,-2.0576,-2.0566,-2.0576,-2.0498,-2.042,-2.0274,-2.0205,-2.0127,-1.996,-1.996,-2.7469,-2.7469,-2.7201,-2.6863,-2.644,-2.6037,-2.5489,-2.4849,-2.4861,-2.4418,-2.3824,-2.3593,-2.3372,-2.3075,-2.3075,-2.3001,-2.3001,-2.3001,-2.3001,-2.3001,-2.3001,-2.3001,-2.3001,-2.3001,-2.3001,-2.3001,-2.3001,-2.3001,-2.3001,-2.3001,-2.3001,-2.3001,-2.3001,-2.3001,-2.3001,-2.3001,-2.3001,-2.3001,-2.3001,-2.3001,-2.3001,-2.3001,-2.3001,-2.3001,-2.3001,-2.3001,-2.3001,-2.3001,-2.3075,-2.3075,-2.3075,-2.315,-2.315,-2.315,-2.3001,-2.2852,-2.2852,-2.2553,-2.2145,-2.1907,-2.1638,-2.1375,-2.1165,-2.1158,-2.1255,-2.1379,-2.1425,-2.1578,-2.1752,-2.1894,-2.2035,-2.2187,-2.2338,-2.2338,-2.2338,-2.2187,-2.2025,-2.1873,-2.1645,-2.1405,-2.1252,-2.1011,-2.0779,-2.0702,-2.0624,-2.0634,-2.0644,-2.0576,-2.0576,-2.0644,-2.0644,-2.0566,-2.0566,-2.0654,-2.0576,-2.0576,-2.0576,-2.0576,-2.0644,-2.0644,-2.0576,-2.0576,-2.0576,-2.0576,-2.0576,-2.0566,-2.0489,-2.042,-2.0342,-2.0196,-2.0039,-1.996,-1.9803,-1.9636,-1.9645,-2.7469,-2.7456,-2.7146,-2.6726,-2.6289,-2.5886,-2.5419,-2.4861,-2.4646,-2.4189,-2.3677,-2.3593,-2.3372,-2.3075,-2.3001,-2.3001,-2.3001,-2.3001,-2.3001,-2.3001,-2.3001,-2.3001,-2.3001,-2.3001,-2.3001,-2.3001,-2.3001,-2.3001,-2.3001,-2.3001,-2.3001,-2.3001,-2.3001,-2.3001,-2.3001,-2.3001,-2.3001,-2.3001,-2.3001,-2.3001,-2.3001,-2.3001,-2.2927,-2.2927,-2.2852,-2.2852,-2.2777,-2.2692,-2.2692,-2.2703,-2.2703,-2.2703,-2.2703,-2.2703,-2.2628,-2.2478,-2.2327,-2.2111,-2.1745,-2.1318,-2.1055,-2.0807,-2.0371,-2.0272,-2.0662,-2.0791,-2.0625,-2.0817,-2.1328,-2.1512,-2.1512,-2.1665,-2.1731,-2.1731,-2.1731,-2.1655,-2.1502,-2.1359,-2.1282,-2.1118,-2.0954,-2.0789,-2.0634,-2.0634,-2.0634,-2.0644,-2.0566,-2.0576,-2.0576,-2.0576,-2.0576,-2.0576,-2.0576,-2.0576,-2.0576,-2.0576,-2.0576,-2.0576,-2.0576,-2.0576,-2.0576,-2.0576,-2.0576,-2.0576,-2.0566,-2.0391,-2.0391,-2.0255,-2.0108,-1.996,-1.9803,-1.9645,-1.9478,-1.939,-1.9469,-2.7469,-2.7469,-2.7146,-2.6726,-2.6233,-2.5816,-2.5265,-2.479,-2.4418,-2.397,-2.3593,-2.3593,-2.3309,-2.315,-2.3001,-2.3001,-2.3001,-2.3001,-2.3001,-2.3001,-2.3001,-2.3001,-2.3001,-2.3001,-2.3001,-2.3001,-2.3001,-2.3001,-2.3001,-2.3001,-2.3001,-2.3001,-2.3001,-2.3001,-2.3001,-2.3001,-2.3001,-2.3001,-2.3001,-2.3001,-2.3001,-2.3001,-2.2852,-2.2777,-2.2628,-2.2553,-2.2402,-2.2327,-2.2327,-2.2252,-2.2176,-2.2176,-2.2176,-2.2176,-2.2101,-2.1949,-2.1738,-2.1501,-2.1192,-2.0642,-2.0287,-1.9969,-1.9507,-1.9574,-2.0068,-2.0062,-1.9974,-2.0141,-2.0635,-2.0918,-2.0907,-2.0994,-2.0994,-2.1125,-2.1125,-2.1185,-2.1051,-2.0974,-2.0906,-2.0829,-2.0731,-2.0644,-2.0634,-2.0634,-2.0566,-2.0566,-2.0576,-2.0576,-2.0576,-2.0576,-2.0576,-2.0576,-2.0576,-2.0576,-2.0576,-2.0576,-2.0566,-2.0576,-2.0576,-2.0576,-2.0576,-2.0576,-2.0576,-2.0586,-2.0498,-2.0304,-2.0148,-2.0089,-1.9863,-1.9724,-1.9557,-1.9478,-1.939,-1.9381,-1.9292,-2.7469,-2.7469,-2.7146,-2.6726,-2.6277,-2.5804,-2.5265,-2.479,-2.4345,-2.397,-2.3593,-2.3372,-2.3224,-2.3001,-2.3001,-2.3001,-2.3001,-2.3001,-2.3001,-2.3001,-2.3001,-2.3001,-2.3001,-2.3001,-2.3001,-2.3001,-2.3001,-2.3001,-2.3001,-2.3001,-2.3001,-2.3001,-2.3001,-2.3001,-2.3001,-2.3001,-2.3001,-2.3001,-2.2927,-2.2927,-2.2777,-2.2703,-2.2777,-2.2628,-2.2402,-2.2252,-2.2101,-2.1797,-2.1731,-2.1665,-2.1578,-2.1502,-2.1578,-2.1578,-2.1512,-2.141,-2.1202,-2.0858,-2.0537,-2.0018,-1.9683,-1.9531,-1.917,-1.9111,-1.9407,-1.9426,-1.9326,-1.9224,-1.9576,-1.9895,-1.9915,-2.0028,-2.0058,-2.0391,-2.0559,-2.0681,-2.0712,-2.0722,-2.0731,-2.0654,-2.0654,-2.0566,-2.0566,-2.0566,-2.0566,-2.0576,-2.0576,-2.0576,-2.0576,-2.0576,-2.0566,-2.0576,-2.0576,-2.0576,-2.0576,-2.0566,-2.0566,-2.0566,-2.0566,-2.0489,-2.0489,-2.0576,-2.0576,-2.0615,-2.0255,-1.9963,-1.9904,-1.9844,-1.9706,-1.9557,-1.9469,-1.9301,-1.9292,-1.9292,-1.9292]},{"header":{"parameterUnit":"m.s-1","parameterCategory":1,"la1":31.0,"la2":29.5877,"lo1":-88.7671,"lo2":-86.6584,"dy":0.0162,"dx":0.0185,"nx":115,"ny":88,"refTime":"2023-06-03T18:00:00:Z","depth":0,"parameterNumber":3,"parameterNumberName":"V-component_of_WINDS"},"data":[0.0,0.0,0.0,0.0,0.0,0.0,0.0,0.0,0.0,0.0,0.0,0.0,0.0,0.0,0.0,0.0,0.0,0.0,0.0,0.0,0.0,0.0,0.0,0.0,0.0,0.0,0.0,0.0,0.0,0.0,0.0,0.0,0.0,0.0,0.0,0.0,0.0,0.0,0.0,0.0,0.0,0.0,0.0,0.0,0.0,0.0,0.0,0.0,0.0,0.0,0.0,0.0,0.0,0.0,0.0,0.0,0.0,0.0,0.0,0.0,0.0,0.0,0.0,0.0,0.0,0.0,0.0,0.0,0.0,0.0,0.0,0.0,0.0,0.0,0.0,0.0,0.0,0.0,0.0,0.0,0.0,0.0,0.0,0.0,0.0,0.0,0.0,0.0,0.0,0.0,0.0,0.0,0.0,0.0,0.0,0.0,0.0,0.0,0.0,0.0,0.0,0.0,0.0,0.0,0.0,0.0,0.0,0.0,0.0,0.0,0.0,0.0,0.0,0.0,0.0,0.0,0.0,0.0,0.0,0.0,0.0,0.0,0.0,0.0,0.0,0.0,0.0,0.0,0.0,0.0,0.0,0.0,0.0,0.0,0.0,0.0,0.0,0.0,0.0,0.0,0.0,0.0,0.0,0.0,0.0,0.0,0.0,0.0,0.0,0.0,0.0,0.0,0.0,0.0,0.0,0.0,0.0,0.0,0.0,0.0,0.0,0.0,0.0,0.0,0.0,0.0,0.0,0.0,0.0,0.0,0.0,0.0,0.0,0.0,0.0,0.0,0.0,0.0,0.0,0.0,0.0,0.0,0.0,0.0,0.0,0.0,0.0,0.0,0.0,0.0,0.0,0.0,0.0,0.0,0.0,0.0,0.0,0.0,0.0,0.0,0.0,0.0,0.0,0.0,0.0,0.0,0.0,0.0,0.0,0.0,0.0,0.0,0.0,0.0,0.0,0.0,0.0,0.0,0.0,0.0,0.0,0.0,0.0,0.0,0.0,0.0,0.0,0.0,0.0,0.0,0.0,0.0,0.0,0.0,0.0,0.0,0.0,0.0,0.0,0.0,0.0,0.0,0.0,0.0,0.0,0.0,0.0,0.0,0.0,0.0,0.0,0.0,0.0,0.0,0.0,0.0,0.0,0.0,0.0,0.0,0.0,0.0,0.0,0.0,0.0,0.0,0.0,0.0,0.0,0.0,0.0,0.0,0.0,0.0,0.0,0.0,0.0,0.0,0.0,0.0,0.0,0.0,0.0,0.0,0.0,0.0,0.0,0.0,0.0,0.0,0.0,0.0,0.0,0.0,0.0,0.0,0.0,0.0,0.0,0.0,0.0,0.0,0.0,0.0,0.0,0.0,0.0,0.0,0.0,0.0,0.0,0.0,0.0,0.0,0.0,0.0,0.0,0.0,0.0,0.0,0.0,0.0,0.0,0.0,0.0,0.0,0.0,0.0,0.0,0.0,0.0,0.0,0.0,0.0,0.0,0.0,0.0,0.0,0.0,0.0,0.0,0.0,0.0,0.0,0.0,0.0,0.0,0.0,0.0,0.0,0.0,0.0,0.0,0.0,0.0,0.0,0.0,0.0,0.0,0.0,0.0,0.0,0.0,0.0,0.0,0.0,0.0,0.0,0.0,0.0,0.0,0.0,0.0,0.0,0.0,0.0,0.0,0.0,0.0,0.0,0.0,0.0,0.0,0.0,0.0,0.0,0.0,0.0,0.0,0.0,0.0,0.0,0.0,0.0,0.0,0.0,0.0,0.0,0.0,0.0,0.0,0.0,0.0,0.0,0.0,0.0,0.0,0.0,0.0,0.0,0.0,0.0,0.0,0.0,0.0,0.0,0.0,0.0,0.0,0.0,0.0,0.0,0.0,0.0,0.0,0.0,0.0,0.0,0.0,0.0,0.0,0.0,0.0,0.0,0.0,0.0,0.0,0.0,0.0,0.0,0.0,0.0,0.0,0.0,0.0,0.0,0.0,0.0,0.0,0.0,0.0,0.0,0.0,0.0,0.0,0.0,0.0,0.0,0.0,0.0,0.0,0.0,0.0,0.0,0.0,0.0,0.0,0.0,0.0,0.0,0.0,0.0,0.0,0.0,0.0,0.0,0.0,0.0,0.0,0.0,0.0,0.0,0.0,0.0,0.0,0.0,0.0,0.0,0.0,0.0,0.0,0.0,0.0,0.0,0.0,0.0,0.0,0.0,0.0,0.0,0.0,0.0,0.0,0.0,0.0,0.0,0.0,0.0,0.0,0.0,0.0,0.0,0.0,0.0,0.0,0.0,0.0,0.0,0.0,0.0,0.0,0.0,0.0,0.0,0.0,0.0,0.0,0.0,0.0,0.0,0.0,0.0,0.0,0.0,0.0,0.0,0.0,0.0,0.0,0.0,0.0,0.0,0.0,0.0,0.0,0.0,0.0,0.0,0.0,0.0,0.0,0.0,0.0,0.0,0.0,0.0,0.0,0.0,0.0,0.0,0.0,0.0,0.0,0.0,0.0,0.0,0.0,0.0,0.0,0.0,0.0,0.0,0.0,0.0,0.0,0.0,0.0,0.0,0.0,0.0,0.0,0.0,0.0,0.0,0.0,0.0,0.0,0.0,0.0,0.0,0.0,0.0,0.0,0.0,0.0,0.0,0.0,0.0,0.0,0.0,0.0,0.0,0.0,0.0,0.0,0.0,0.0,0.0,0.0,0.0,0.0,0.0,0.0,0.0,0.0,0.0,0.0,0.0,0.0,0.0,0.0,0.0,0.0,0.0,0.0,0.0,0.0,0.0,0.0,0.0,0.0,0.0,0.0,0.0,0.0,0.0,0.0,0.0,0.0,0.0,0.0,0.0,0.0,0.0,0.0,0.0,0.0,0.0,0.0,0.0,0.0,0.0,0.0,0.0,0.0,0.0,0.0,0.0,0.0,0.0,0.0,0.0,0.0,0.0,0.0,0.0,0.0,0.0,0.0,0.0,0.0,0.0,0.0,0.0,0.0,0.0,0.0,0.0,0.0,0.0,0.0,0.0,0.0,0.0,0.0,0.0,0.0,0.0,0.0,0.0,0.0,0.0,0.0,0.0,0.0,0.0,0.0,0.0,0.0,0.0,0.0,0.0,0.0,0.0,0.0,0.0,0.0,0.0,0.0,0.0,0.0,0.0,0.0,0.0,0.0,0.0,0.0,0.0,0.0,0.0,0.0,0.0,0.0,0.0,0.0,0.0,0.0,0.0,0.0,0.0,0.0,0.0,0.0,0.0,0.0,0.0,0.0,0.0,0.0,0.0,0.0,0.0,0.0,0.0,0.0,0.0,0.0,0.0,0.0,0.0,0.0,0.0,0.0,0.0,0.0,0.0,0.0,0.0,0.0,0.0,0.0,0.0,0.0,0.0,0.0,0.0,0.0,0.0,0.0,0.0,0.0,0.0,0.0,0.0,0.0,0.0,0.0,0.0,0.0,0.0,0.0,0.0,0.0,0.0,0.0,0.0,0.0,0.0,0.0,0.0,0.0,0.0,0.0,0.0,0.0,0.0,0.0,0.0,0.0,0.0,0.0,0.0,0.0,0.0,0.0,0.0,0.0,0.0,0.0,0.0,0.0,0.0,0.0,0.0,0.0,0.0,0.0,0.0,0.0,0.0,0.0,0.0,0.0,0.0,0.0,0.0,0.0,0.0,0.0,0.0,0.0,0.0,0.0,0.0,0.0,0.0,0.0,0.0,0.0,0.0,0.0,0.0,0.0,0.0,0.0,0.0,0.0,0.0,0.0,0.0,0.0,0.0,0.0,0.0,0.0,0.0,0.0,0.0,0.0,0.0,0.0,0.0,0.0,0.0,0.0,0.0,0.0,0.0,0.0,0.0,0.0,0.0,0.0,0.0,0.0,0.0,0.0,0.0,0.0,0.0,0.0,0.0,0.0,0.0,0.0,0.0,0.0,0.0,0.0,0.0,0.0,0.0,0.0,0.0,0.0,0.0,0.0,0.0,0.0,0.0,0.0,0.0,0.0,0.0,0.0,0.0,0.0,0.0,0.0,0.0,0.0,0.0,0.0,0.0,0.0,0.0,0.0,0.0,0.0,0.0,0.0,0.0,0.0,0.0,0.0,0.0,0.0,0.0,0.0,0.0,0.0,0.0,0.0,0.0,0.0,0.0,0.0,0.0,0.0,0.0,0.0,0.0,0.0,0.0,0.0,0.0,0.0,0.0,0.0,0.0,0.0,0.0,0.0,0.0,0.0,0.0,0.0,0.0,0.0,0.0,0.0,0.0,0.0,0.0,0.0,0.0,-2.2181,0.0,0.0,0.0,0.0,0.0,0.0,0.0,0.0,0.0,0.0,0.0,0.0,0.0,0.0,0.0,0.0,0.0,0.0,0.0,0.0,0.0,0.0,0.0,0.0,0.0,0.0,0.0,0.0,0.0,0.0,0.0,0.0,0.0,0.0,0.0,0.0,0.0,0.0,0.0,0.0,0.0,0.0,0.0,0.0,0.0,0.0,0.0,0.0,0.0,0.0,0.0,0.0,0.0,0.0,0.0,0.0,0.0,0.0,0.0,0.0,0.0,0.0,0.0,0.0,0.0,0.0,0.0,0.0,0.0,0.0,0.0,0.0,0.0,0.0,0.0,0.0,0.0,0.0,0.0,0.0,0.0,0.0,0.0,0.0,0.0,0.0,0.0,0.0,0.0,0.0,0.0,0.0,0.0,0.0,0.0,0.0,0.0,0.0,0.0,0.0,0.0,0.0,0.0,0.0,0.0,0.0,0.0,0.0,0.0,0.0,-2.1103,-2.1214,-2.1386,-2.157,-2.1735,0.0,0.0,0.0,0.0,0.0,0.0,0.0,0.0,0.0,0.0,0.0,0.0,0.0,0.0,0.0,0.0,0.0,0.0,0.0,0.0,0.0,0.0,0.0,0.0,0.0,0.0,0.0,0.0,0.0,0.0,0.0,0.0,0.0,0.0,0.0,0.0,0.0,0.0,0.0,0.0,0.0,0.0,0.0,0.0,0.0,0.0,0.0,0.0,0.0,0.0,0.0,0.0,0.0,0.0,0.0,0.0,0.0,0.0,0.0,0.0,0.0,0.0,0.0,0.0,0.0,0.0,0.0,0.0,0.0,0.0,0.0,0.0,0.0,0.0,0.0,0.0,0.0,0.0,0.0,0.0,0.0,0.0,0.0,0.0,0.0,0.0,0.0,0.0,0.0,0.0,0.0,0.0,0.0,0.0,0.0,0.0,0.0,0.0,0.0,0.0,0.0,0.0,0.0,0.0,0.0,0.0,0.0,0.0,0.0,0.0,0.0,0.0,-2.0861,-2.1087,-2.1308,0.0,0.0,0.0,0.0,0.0,0.0,0.0,0.0,0.0,0.0,0.0,0.0,0.0,0.0,0.0,0.0,0.0,0.0,0.0,0.0,0.0,0.0,0.0,0.0,0.0,0.0,0.0,0.0,0.0,0.0,0.0,0.0,0.0,0.0,0.0,0.0,0.0,0.0,0.0,0.0,0.0,0.0,0.0,0.0,0.0,0.0,0.0,0.0,0.0,0.0,0.0,0.0,0.0,0.0,0.0,0.0,0.0,0.0,0.0,0.0,0.0,0.0,0.0,0.0,0.0,0.0,0.0,0.0,0.0,0.0,0.0,0.0,0.0,0.0,0.0,0.0,0.0,0.0,0.0,0.0,0.0,0.0,0.0,0.0,0.0,0.0,0.0,0.0,0.0,0.0,0.0,0.0,0.0,0.0,0.0,0.0,0.0,0.0,0.0,0.0,0.0,0.0,0.0,0.0,0.0,0.0,0.0,0.0,0.0,0.0,-1.998,-2.017,-2.0258,0.0,-2.1007,0.0,0.0,0.0,0.0,0.0,0.0,0.0,0.0,0.0,0.0,0.0,0.0,0.0,0.0,0.0,0.0,0.0,0.0,0.0,0.0,0.0,0.0,0.0,0.0,0.0,0.0,0.0,0.0,0.0,0.0,0.0,0.0,0.0,0.0,0.0,0.0,0.0,0.0,0.0,0.0,0.0,0.0,0.0,0.0,0.0,0.0,0.0,0.0,0.0,0.0,0.0,0.0,0.0,0.0,0.0,0.0,0.0,0.0,0.0,0.0,0.0,0.0,0.0,0.0,0.0,0.0,0.0,0.0,0.0,0.0,0.0,0.0,0.0,0.0,0.0,0.0,0.0,0.0,0.0,0.0,0.0,0.0,0.0,0.0,0.0,0.0,0.0,0.0,0.0,0.0,0.0,0.0,0.0,0.0,0.0,0.0,0.0,0.0,0.0,0.0,0.0,0.0,0.0,0.0,0.0,0.0,0.0,0.0,0.0,0.0,-1.942,-1.9493,-1.9889,-2.0308,0.0,0.0,0.0,0.0,0.0,0.0,0.0,0.0,0.0,0.0,0.0,0.0,0.0,0.0,0.0,0.0,0.0,0.0,0.0,0.0,0.0,0.0,0.0,0.0,0.0,0.0,0.0,0.0,0.0,0.0,0.0,0.0,0.0,0.0,0.0,0.0,0.0,0.0,0.0,0.0,0.0,0.0,0.0,0.0,0.0,0.0,0.0,0.0,0.0,0.0,0.0,0.0,0.0,0.0,0.0,0.0,0.0,0.0,0.0,0.0,0.0,0.0,0.0,0.0,0.0,0.0,0.0,0.0,0.0,0.0,0.0,0.0,0.0,0.0,0.0,0.0,0.0,0.0,0.0,0.0,0.0,0.0,0.0,0.0,0.0,0.0,0.0,0.0,0.0,0.0,0.0,0.0,0.0,0.0,0.0,0.0,0.0,0.0,0.0,0.0,0.0,0.0,0.0,0.0,0.0,0.0,0.0,0.0,0.0,0.0,-1.9041,-1.9257,-1.9517,-1.9879,-2.0248,-2.0624,0.0,0.0,0.0,0.0,0.0,0.0,0.0,0.0,0.0,0.0,0.0,0.0,0.0,0.0,0.0,0.0,0.0,0.0,0.0,0.0,0.0,0.0,0.0,0.0,0.0,0.0,0.0,0.0,0.0,0.0,0.0,0.0,0.0,0.0,0.0,0.0,0.0,0.0,0.0,0.0,0.0,0.0,0.0,0.0,0.0,0.0,0.0,0.0,0.0,0.0,0.0,0.0,0.0,0.0,0.0,0.0,0.0,0.0,0.0,0.0,0.0,0.0,0.0,0.0,0.0,0.0,0.0,0.0,0.0,0.0,0.0,0.0,0.0,0.0,0.0,0.0,0.0,0.0,0.0,0.0,0.0,0.0,0.0,0.0,0.0,0.0,0.0,0.0,0.0,0.0,0.0,0.0,0.0,0.0,0.0,0.0,0.0,0.0,0.0,0.0,0.0,0.0,0.0,0.0,0.0,0.0,0.0,0.0,-1.9059,-1.9141,-1.9613,-2.0456,-2.036,-2.0427,0.0,0.0,0.0,0.0,0.0,0.0,0.0,0.0,0.0,0.0,0.0,0.0,0.0,0.0,0.0,0.0,0.0,0.0,0.0,0.0,0.0,0.0,0.0,0.0,0.0,0.0,0.0,0.0,0.0,0.0,0.0,0.0,0.0,0.0,0.0,0.0,0.0,0.0,0.0,0.0,0.0,0.0,0.0,0.0,0.0,0.0,0.0,0.0,0.0,0.0,0.0,0.0,0.0,0.0,0.0,0.0,0.0,0.0,0.0,0.0,0.0,0.0,0.0,0.0,0.0,0.0,0.0,0.0,0.0,0.0,0.0,0.0,0.0,0.0,0.0,0.0,0.0,0.0,0.0,0.0,0.0,0.0,0.0,0.0,0.0,0.0,0.0,0.0,0.0,0.0,0.0,0.0,0.0,0.0,0.0,0.0,0.0,0.0,0.0,0.0,0.0,0.0,0.0,0.0,0.0,0.0,0.0,0.0,0.0,-1.8609,-1.9173,-1.9734,-2.0259,-2.0043,-2.0138,0.0,0.0,0.0,0.0,0.0,0.0,0.0,0.0,0.0,0.0,0.0,0.0,0.0,0.0,0.0,0.0,0.0,0.0,0.0,0.0,0.0,0.0,0.0,0.0,0.0,0.0,0.0,0.0,0.0,0.0,0.0,0.0,0.0,0.0,0.0,0.0,0.0,0.0,0.0,0.0,0.0,0.0,0.0,0.0,0.0,0.0,0.0,0.0,0.0,0.0,0.0,0.0,0.0,0.0,0.0,0.0,0.0,0.0,0.0,0.0,0.0,0.0,0.0,0.0,0.0,0.0,0.0,0.0,0.0,0.0,0.0,0.0,0.0,0.0,0.0,0.0,0.0,0.0,0.0,0.0,0.0,0.0,0.0,0.0,0.0,0.0,0.0,0.0,0.0,0.0,0.0,0.0,0.0,0.0,0.0,0.0,0.0,0.0,0.0,0.0,0.0,0.0,0.0,0.0,0.0,0.0,0.0,0.0,0.0,-1.8981,0.0,-2.0307,-2.0505,-2.0315,-2.031,0.0,0.0,0.0,0.0,0.0,0.0,0.0,0.0,0.0,0.0,0.0,0.0,0.0,0.0,0.0,0.0,0.0,0.0,0.0,0.0,0.0,0.0,0.0,0.0,0.0,0.0,0.0,0.0,0.0,0.0,0.0,0.0,0.0,0.0,0.0,0.0,0.0,0.0,0.0,0.0,0.0,0.0,0.0,0.0,0.0,0.0,0.0,0.0,0.0,0.0,0.0,0.0,0.0,0.0,0.0,0.0,0.0,0.0,0.0,0.0,0.0,0.0,0.0,0.0,0.0,0.0,0.0,0.0,0.0,0.0,0.0,0.0,0.0,0.0,0.0,0.0,0.0,0.0,0.0,0.0,0.0,0.0,0.0,0.0,0.0,0.0,0.0,0.0,0.0,0.0,0.0,0.0,0.0,0.0,0.0,0.0,0.0,0.0,0.0,0.0,0.0,0.0,0.0,0.0,0.0,0.0,0.0,0.0,-1.8937,-2.0114,-2.0941,-2.1293,-2.141,-2.1204,-2.1036,0.0,0.0,0.0,0.0,0.0,0.0,0.0,0.0,0.0,0.0,0.0,0.0,0.0,0.0,0.0,0.0,0.0,0.0,0.0,0.0,0.0,0.0,0.0,0.0,0.0,0.0,0.0,0.0,0.0,0.0,0.0,0.0,0.0,0.0,0.0,0.0,0.0,0.0,0.0,0.0,0.0,0.0,0.0,0.0,0.0,0.0,0.0,0.0,0.0,0.0,0.0,0.0,0.0,0.0,0.0,0.0,0.0,0.0,0.0,0.0,0.0,0.0,0.0,0.0,0.0,0.0,0.0,0.0,0.0,0.0,0.0,0.0,0.0,0.0,0.0,0.0,0.0,0.0,0.0,0.0,0.0,0.0,0.0,0.0,0.0,0.0,0.0,0.0,0.0,0.0,0.0,0.0,0.0,0.0,0.0,0.0,0.0,0.0,0.0,0.0,0.0,0.0,0.0,0.0,0.0,0.0,0.0,0.0,0.0,-1.993,-2.0669,-2.1109,-2.1264,-2.1088,-2.1128,0.0,0.0,0.0,0.0,0.0,0.0,0.0,0.0,0.0,0.0,0.0,0.0,0.0,0.0,0.0,0.0,0.0,0.0,0.0,0.0,0.0,0.0,0.0,0.0,0.0,0.0,0.0,0.0,0.0,0.0,0.0,0.0,0.0,0.0,0.0,0.0,0.0,0.0,0.0,0.0,0.0,0.0,0.0,0.0,0.0,0.0,0.0,0.0,0.0,0.0,0.0,0.0,0.0,0.0,0.0,0.0,0.0,0.0,0.0,0.0,0.0,0.0,0.0,0.0,0.0,0.0,0.0,0.0,0.0,0.0,0.0,0.0,0.0,0.0,0.0,0.0,0.0,0.0,0.0,0.0,0.0,0.0,0.0,0.0,0.0,0.0,0.0,0.0,0.0,0.0,0.0,0.0,0.0,0.0,0.0,0.0,0.0,0.0,0.0,0.0,0.0,0.0,0.0,0.0,0.0,0.0,0.0,0.0,0.0,-2.0215,-2.0806,-2.1242,-2.1465,-2.1492,-2.1472,-2.1419,0.0,0.0,0.0,0.0,0.0,0.0,0.0,0.0,0.0,0.0,0.0,0.0,0.0,0.0,0.0,0.0,0.0,0.0,0.0,0.0,0.0,0.0,0.0,0.0,0.0,0.0,0.0,0.0,0.0,0.0,0.0,0.0,0.0,0.0,0.0,0.0,0.0,0.0,0.0,0.0,0.0,0.0,0.0,0.0,0.0,0.0,0.0,0.0,0.0,0.0,0.0,0.0,0.0,0.0,0.0,0.0,0.0,0.0,0.0,0.0,0.0,0.0,0.0,0.0,0.0,0.0,0.0,0.0,0.0,0.0,0.0,0.0,0.0,0.0,0.0,0.0,0.0,0.0,0.0,0.0,0.0,0.0,0.0,0.0,0.0,0.0,0.0,0.0,0.0,0.0,0.0,0.0,0.0,0.0,0.0,0.0,0.0,0.0,0.0,0.0,0.0,0.0,0.0,0.0,0.0,0.0,0.0,0.0,-2.0891,-2.1288,-2.1655,-2.1914,-2.2231,-2.2075,0.0,0.0,0.0,0.0,0.0,0.0,0.0,0.0,0.0,0.0,0.0,0.0,0.0,0.0,0.0,0.0,0.0,0.0,0.0,0.0,0.0,0.0,0.0,0.0,0.0,0.0,0.0,0.0,0.0,0.0,0.0,0.0,0.0,0.0,0.0,0.0,0.0,0.0,0.0,0.0,0.0,0.0,0.0,0.0,0.0,0.0,0.0,0.0,0.0,0.0,0.0,0.0,0.0,0.0,0.0,0.0,0.0,0.0,0.0,0.0,0.0,0.0,0.0,0.0,0.0,0.0,0.0,0.0,0.0,0.0,0.0,0.0,0.0,0.0,0.0,0.0,0.0,0.0,0.0,0.0,0.0,0.0,0.0,0.0,0.0,0.0,0.0,0.0,0.0,0.0,0.0,0.0,0.0,0.0,0.0,0.0,0.0,0.0,0.0,0.0,0.0,0.0,0.0,0.0,0.0,0.0,0.0,0.0,0.0,-2.1247,-2.1445,-2.1706,-2.2179,-2.219,-2.2233,0.0,0.0,0.0,0.0,0.0,0.0,0.0,0.0,0.0,0.0,0.0,0.0,0.0,0.0,0.0,0.0,0.0,0.0,0.0,0.0,0.0,0.0,0.0,0.0,0.0,0.0,0.0,0.0,0.0,0.0,0.0,0.0,0.0,0.0,0.0,0.0,0.0,0.0,0.0,0.0,0.0,0.0,0.0,0.0,0.0,0.0,0.0,0.0,0.0,0.0,0.0,0.0,0.0,0.0,0.0,0.0,0.0,0.0,0.0,0.0,0.0,0.0,0.0,0.0,0.0,0.0,0.0,0.0,0.0,0.0,0.0,0.0,0.0,0.0,0.0,0.0,0.0,0.0,0.0,0.0,0.0,0.0,0.0,0.0,0.0,0.0,0.0,0.0,0.0,0.0,0.0,0.0,0.0,0.0,0.0,0.0,0.0,0.0,0.0,0.0,0.0,0.0,0.0,0.0,0.0,0.0,0.0,0.0,-1.9851,-2.1119,-2.1606,-2.2116,-2.2755,-2.2735,-2.2665,0.0,0.0,0.0,0.0,0.0,0.0,0.0,0.0,0.0,0.0,0.0,0.0,0.0,0.0,0.0,0.0,0.0,0.0,0.0,0.0,0.0,0.0,0.0,0.0,0.0,0.0,0.0,0.0,0.0,0.0,0.0,0.0,0.0,0.0,0.0,0.0,0.0,0.0,0.0,0.0,0.0,0.0,0.0,0.0,0.0,0.0,0.0,0.0,0.0,0.0,0.0,0.0,0.0,0.0,0.0,0.0,0.0,0.0,0.0,0.0,0.0,0.0,0.0,0.0,0.0,0.0,0.0,0.0,0.0,0.0,0.0,0.0,0.0,0.0,0.0,0.0,0.0,0.0,0.0,0.0,0.0,0.0,0.0,0.0,0.0,0.0,0.0,0.0,0.0,0.0,0.0,0.0,0.0,0.0,0.0,0.0,0.0,0.0,0.0,0.0,0.0,0.0,0.0,0.0,0.0,0.0,0.0,0.0,-2.0312,-2.0619,-2.1675,-2.2644,-2.3352,-2.3511,-2.3259,0.0,0.0,0.0,0.0,0.0,0.0,0.0,0.0,0.0,0.0,0.0,0.0,0.0,0.0,0.0,0.0,0.0,0.0,0.0,0.0,0.0,0.0,0.0,0.0,0.0,0.0,0.0,0.0,0.0,0.0,0.0,0.0,0.0,0.0,0.0,0.0,0.0,0.0,0.0,0.0,0.0,0.0,0.0,0.0,0.0,0.0,0.0,0.0,0.0,0.0,0.0,0.0,0.0,0.0,0.0,0.0,0.0,0.0,0.0,0.0,0.0,0.0,0.0,0.0,0.0,0.0,0.0,0.0,0.0,0.0,0.0,0.0,0.0,0.0,0.0,0.0,0.0,0.0,0.0,0.0,0.0,0.0,0.0,0.0,0.0,0.0,0.0,0.0,0.0,0.0,0.0,0.0,0.0,0.0,0.0,0.0,0.0,0.0,0.0,0.0,0.0,0.0,0.0,0.0,0.0,0.0,0.0,0.0,-2.0145,-2.0619,-2.1513,-2.2421,-2.339,-2.3397,-2.3269,0.0,0.0,0.0,0.0,0.0,0.0,0.0,0.0,0.0,0.0,0.0,0.0,0.0,0.0,0.0,0.0,0.0,0.0,0.0,0.0,0.0,0.0,0.0,0.0,0.0,0.0,0.0,0.0,0.0,0.0,0.0,0.0,0.0,0.0,0.0,0.0,0.0,0.0,0.0,0.0,0.0,0.0,0.0,0.0,0.0,0.0,0.0,0.0,-2.1458,0.0,0.0,0.0,0.0,0.0,0.0,0.0,0.0,0.0,0.0,0.0,0.0,0.0,0.0,0.0,0.0,0.0,0.0,0.0,0.0,0.0,0.0,0.0,0.0,0.0,0.0,0.0,0.0,0.0,0.0,0.0,0.0,0.0,0.0,0.0,0.0,0.0,0.0,0.0,0.0,0.0,0.0,0.0,0.0,0.0,0.0,0.0,0.0,0.0,0.0,0.0,0.0,0.0,0.0,0.0,0.0,0.0,0.0,0.0,-2.0253,-2.0425,-2.1653,-2.2575,-2.3245,-2.3509,-2.3418,0.0,0.0,0.0,0.0,0.0,0.0,0.0,0.0,0.0,0.0,0.0,0.0,0.0,0.0,0.0,0.0,0.0,0.0,0.0,0.0,0.0,0.0,0.0,0.0,0.0,0.0,0.0,0.0,0.0,0.0,0.0,0.0,0.0,0.0,0.0,0.0,0.0,0.0,0.0,0.0,0.0,0.0,0.0,0.0,0.0,0.0,0.0,0.0,0.0,0.0,0.0,0.0,0.0,0.0,0.0,0.0,0.0,0.0,0.0,0.0,0.0,0.0,0.0,0.0,0.0,0.0,0.0,0.0,0.0,0.0,0.0,0.0,0.0,0.0,0.0,0.0,0.0,0.0,0.0,0.0,0.0,0.0,0.0,0.0,0.0,0.0,0.0,0.0,0.0,0.0,0.0,0.0,0.0,0.0,0.0,0.0,0.0,0.0,0.0,0.0,0.0,0.0,0.0,0.0,0.0,0.0,0.0,-1.9829,-2.0531,-2.0463,-2.1922,-2.286,-2.3138,-2.3582,-2.3576,-2.2978,0.0,0.0,0.0,0.0,0.0,0.0,0.0,0.0,0.0,0.0,0.0,0.0,0.0,0.0,0.0,0.0,0.0,0.0,0.0,0.0,0.0,0.0,0.0,0.0,0.0,0.0,0.0,0.0,0.0,0.0,0.0,0.0,0.0,0.0,0.0,0.0,0.0,0.0,-1.999,-1.9862,0.0,0.0,0.0,0.0,0.0,0.0,0.0,0.0,-2.1448,0.0,0.0,0.0,0.0,0.0,0.0,0.0,0.0,0.0,0.0,0.0,0.0,0.0,0.0,0.0,0.0,0.0,0.0,0.0,0.0,0.0,0.0,0.0,0.0,0.0,0.0,0.0,0.0,0.0,0.0,0.0,0.0,0.0,0.0,0.0,0.0,0.0,0.0,0.0,0.0,0.0,0.0,0.0,0.0,0.0,0.0,0.0,0.0,0.0,0.0,0.0,0.0,0.0,0.0,0.0,0.0,-1.8855,-1.9985,-2.0791,-2.1235,-2.2165,-2.2921,-2.3343,-2.3522,-2.3404,-2.2911,0.0,0.0,0.0,0.0,0.0,0.0,0.0,0.0,0.0,0.0,0.0,0.0,0.0,0.0,0.0,0.0,0.0,0.0,0.0,0.0,0.0,0.0,0.0,0.0,0.0,0.0,0.0,0.0,0.0,0.0,0.0,0.0,0.0,0.0,0.0,0.0,0.0,0.0,0.0,-1.9798,-1.9798,0.0,0.0,0.0,0.0,0.0,0.0,0.0,0.0,-2.2734,0.0,0.0,0.0,0.0,0.0,0.0,0.0,0.0,0.0,0.0,0.0,0.0,0.0,0.0,0.0,0.0,0.0,0.0,0.0,0.0,0.0,0.0,0.0,0.0,0.0,0.0,0.0,0.0,0.0,0.0,0.0,0.0,0.0,0.0,0.0,0.0,0.0,0.0,0.0,0.0,0.0,0.0,0.0,0.0,0.0,0.0,0.0,0.0,0.0,0.0,0.0,0.0,0.0,0.0,0.0,-1.9587,-2.039,-2.1058,-2.1534,-2.2431,-2.3103,-2.3403,-2.3641,-2.3404,0.0,0.0,0.0,0.0,0.0,0.0,0.0,0.0,0.0,0.0,0.0,0.0,0.0,0.0,0.0,0.0,0.0,0.0,0.0,0.0,0.0,0.0,0.0,0.0,0.0,0.0,0.0,0.0,0.0,0.0,0.0,0.0,0.0,0.0,0.0,0.0,0.0,0.0,0.0,0.0,-2.0079,-2.0085,-2.0358,0.0,0.0,0.0,0.0,0.0,0.0,-2.2361,-2.2697,0.0,0.0,0.0,0.0,0.0,0.0,0.0,0.0,0.0,0.0,0.0,0.0,0.0,0.0,0.0,0.0,0.0,0.0,0.0,0.0,0.0,0.0,0.0,0.0,0.0,0.0,0.0,0.0,0.0,0.0,0.0,0.0,0.0,0.0,0.0,0.0,0.0,0.0,0.0,0.0,0.0,0.0,0.0,0.0,0.0,0.0,0.0,0.0,0.0,0.0,0.0,0.0,0.0,0.0,0.0,-2.0439,-2.0865,-2.1408,-2.1989,-2.272,-2.3271,-2.3463,-2.3772,-2.3475,0.0,0.0,0.0,0.0,0.0,0.0,0.0,0.0,0.0,0.0,0.0,0.0,0.0,0.0,0.0,0.0,0.0,0.0,0.0,0.0,0.0,0.0,0.0,0.0,0.0,0.0,0.0,0.0,0.0,0.0,0.0,0.0,0.0,0.0,0.0,0.0,0.0,0.0,0.0,0.0,0.0,-2.0496,-2.0913,-2.0974,0.0,0.0,0.0,0.0,-2.2398,-2.2739,0.0,0.0,0.0,0.0,0.0,0.0,0.0,0.0,0.0,0.0,0.0,0.0,0.0,0.0,0.0,0.0,0.0,0.0,0.0,0.0,0.0,0.0,0.0,0.0,0.0,0.0,0.0,0.0,0.0,0.0,0.0,0.0,0.0,0.0,0.0,0.0,0.0,0.0,0.0,0.0,0.0,0.0,0.0,0.0,0.0,0.0,0.0,0.0,0.0,0.0,0.0,0.0,0.0,0.0,0.0,0.0,-2.1237,-2.14,-2.1938,-2.2915,-2.3233,-2.3535,-2.3832,-2.3891,-2.3462,0.0,0.0,0.0,0.0,0.0,0.0,0.0,0.0,0.0,0.0,0.0,0.0,0.0,0.0,0.0,0.0,0.0,0.0,0.0,0.0,0.0,0.0,0.0,0.0,0.0,0.0,0.0,0.0,0.0,0.0,0.0,0.0,0.0,0.0,0.0,0.0,0.0,0.0,0.0,0.0,0.0,-2.0969,-2.0974,-2.0974,-2.1203,0.0,0.0,-2.2957,-2.3689,-2.4515,0.0,0.0,0.0,0.0,0.0,0.0,0.0,0.0,0.0,0.0,0.0,0.0,0.0,0.0,0.0,0.0,0.0,0.0,0.0,0.0,0.0,0.0,0.0,0.0,0.0,0.0,0.0,0.0,0.0,0.0,0.0,0.0,0.0,0.0,0.0,0.0,0.0,0.0,0.0,0.0,0.0,0.0,0.0,0.0,0.0,0.0,0.0,0.0,0.0,0.0,0.0,0.0,0.0,0.0,0.0,-1.9989,-2.167,-2.1746,-2.2236,-2.3339,-2.3582,-2.3772,-2.3891,-2.3936,-2.3519,0.0,0.0,0.0,0.0,0.0,0.0,0.0,0.0,0.0,0.0,0.0,0.0,0.0,0.0,0.0,0.0,0.0,0.0,0.0,0.0,0.0,0.0,0.0,0.0,0.0,0.0,0.0,0.0,0.0,0.0,0.0,0.0,0.0,0.0,0.0,0.0,0.0,0.0,0.0,0.0,0.0,0.0,-2.2031,-2.2128,0.0,0.0,0.0,-2.3737,-2.4355,0.0,0.0,0.0,0.0,0.0,0.0,0.0,0.0,0.0,0.0,0.0,0.0,0.0,0.0,0.0,0.0,0.0,0.0,0.0,0.0,0.0,0.0,0.0,0.0,0.0,0.0,0.0,0.0,0.0,0.0,0.0,0.0,0.0,0.0,0.0,0.0,0.0,0.0,0.0,0.0,0.0,0.0,0.0,0.0,0.0,0.0,0.0,0.0,0.0,0.0,0.0,0.0,0.0,0.0,0.0,0.0,0.0,-2.1928,-2.2163,-2.2729,-2.3649,-2.3878,-2.3949,-2.3949,-2.4067,0.0,0.0,0.0,0.0,0.0,0.0,0.0,0.0,0.0,0.0,0.0,0.0,0.0,0.0,0.0,0.0,0.0,0.0,0.0,0.0,0.0,0.0,0.0,0.0,0.0,0.0,0.0,-2.2324,0.0,0.0,0.0,0.0,0.0,0.0,0.0,0.0,0.0,0.0,0.0,0.0,0.0,0.0,-2.2077,-2.2883,-2.3087,-2.3381,0.0,0.0,-2.4401,-2.5012,-2.5388,-2.5895,0.0,0.0,0.0,0.0,0.0,0.0,0.0,0.0,0.0,0.0,0.0,0.0,0.0,0.0,0.0,0.0,0.0,0.0,0.0,0.0,0.0,0.0,0.0,0.0,0.0,0.0,0.0,0.0,0.0,0.0,0.0,0.0,0.0,0.0,0.0,0.0,0.0,0.0,0.0,0.0,0.0,0.0,0.0,0.0,0.0,0.0,0.0,0.0,0.0,0.0,0.0,0.0,0.0,0.0,-2.1133,-2.2076,-2.2773,-2.3358,-2.3865,-2.3995,-2.4054,-2.4054,-2.4112,-2.3812,0.0,0.0,0.0,0.0,0.0,0.0,0.0,0.0,0.0,0.0,0.0,0.0,0.0,0.0,0.0,0.0,0.0,0.0,0.0,0.0,0.0,0.0,0.0,0.0,0.0,0.0,0.0,0.0,0.0,0.0,0.0,0.0,0.0,0.0,0.0,0.0,0.0,0.0,0.0,0.0,0.0,-2.2895,-2.2979,-2.34,-2.3791,0.0,-2.4316,-2.5005,-2.5726,-2.6696,-2.7761,-2.8838,0.0,0.0,0.0,0.0,0.0,0.0,0.0,0.0,0.0,0.0,0.0,0.0,0.0,0.0,0.0,0.0,0.0,0.0,0.0,0.0,0.0,0.0,0.0,0.0,0.0,0.0,0.0,0.0,0.0,0.0,0.0,0.0,0.0,0.0,0.0,0.0,0.0,0.0,0.0,0.0,0.0,0.0,0.0,0.0,0.0,0.0,0.0,0.0,0.0,0.0,0.0,0.0,0.0,-2.1577,-2.2294,-2.288,-2.3454,-2.3969,-2.4067,-2.4125,-2.4125,-2.4144,-2.3984,0.0,0.0,0.0,0.0,0.0,0.0,0.0,0.0,0.0,0.0,0.0,0.0,0.0,0.0,0.0,0.0,0.0,0.0,0.0,0.0,0.0,0.0,0.0,0.0,0.0,0.0,0.0,0.0,-2.2359,-2.23,-2.2072,0.0,0.0,0.0,0.0,0.0,0.0,0.0,0.0,0.0,0.0,-2.3777,-2.4237,-2.4457,0.0,0.0,-2.5819,-2.6267,-2.7095,-2.7704,-2.8408,-2.9267,-2.9442,0.0,0.0,0.0,0.0,0.0,0.0,0.0,0.0,0.0,0.0,0.0,0.0,0.0,0.0,0.0,0.0,0.0,0.0,0.0,0.0,0.0,0.0,0.0,0.0,0.0,0.0,-2.1361,-2.1277,0.0,0.0,0.0,0.0,0.0,0.0,0.0,0.0,0.0,0.0,0.0,0.0,0.0,0.0,0.0,0.0,0.0,0.0,0.0,0.0,0.0,0.0,0.0,0.0,-2.1969,-2.2415,-2.3106,-2.3694,-2.4099,-2.4125,-2.4125,-2.4112,-2.4247,-2.4107,0.0,0.0,0.0,0.0,0.0,0.0,0.0,0.0,0.0,0.0,0.0,0.0,0.0,0.0,0.0,0.0,0.0,0.0,0.0,0.0,0.0,0.0,0.0,0.0,0.0,0.0,0.0,0.0,-2.288,-2.279,-2.2738,0.0,0.0,0.0,0.0,0.0,0.0,0.0,0.0,0.0,0.0,-2.459,-2.5105,-2.5506,-2.5988,-2.6742,-2.7061,-2.7431,-2.8346,-2.8629,-2.9104,-2.9921,0.0,0.0,0.0,0.0,0.0,0.0,0.0,0.0,0.0,0.0,0.0,0.0,0.0,0.0,0.0,0.0,0.0,0.0,0.0,0.0,0.0,0.0,0.0,0.0,0.0,0.0,0.0,-2.141,0.0,0.0,-2.118,0.0,0.0,0.0,0.0,0.0,0.0,0.0,0.0,0.0,0.0,0.0,0.0,0.0,0.0,0.0,0.0,0.0,0.0,0.0,0.0,0.0,0.0,-2.2387,-2.2441,-2.3511,-2.4099,-2.4125,-2.4125,-2.4125,-2.4112,-2.4247,-2.4279,-2.4239,0.0,0.0,0.0,0.0,0.0,0.0,0.0,0.0,0.0,0.0,0.0,0.0,0.0,0.0,0.0,0.0,0.0,0.0,0.0,0.0,0.0,0.0,0.0,0.0,0.0,0.0,-2.3589,-2.3357,-2.3162,0.0,0.0,0.0,0.0,0.0,0.0,0.0,0.0,0.0,-2.4149,-2.493,-2.5411,-2.5448,-2.6483,-2.7256,-2.7306,-2.783,-2.8432,-2.9149,-2.9584,-3.0194,0.0,0.0,0.0,0.0,0.0,0.0,0.0,0.0,0.0,0.0,0.0,0.0,0.0,0.0,0.0,0.0,0.0,0.0,0.0,0.0,0.0,0.0,0.0,0.0,0.0,0.0,0.0,-2.165,-2.152,0.0,0.0,0.0,0.0,0.0,0.0,0.0,0.0,0.0,0.0,0.0,-2.3958,-2.4072,0.0,0.0,0.0,0.0,0.0,0.0,0.0,0.0,0.0,0.0,0.0,0.0,-2.2936,-2.2975,-2.3707,-2.4125,-2.4125,-2.4125,-2.4157,-2.4261,-2.4421,-2.442,-2.4297,0.0,0.0,0.0,0.0,0.0,0.0,0.0,0.0,0.0,0.0,0.0,0.0,0.0,0.0,0.0,0.0,0.0,0.0,0.0,0.0,0.0,0.0,0.0,0.0,0.0,-2.4119,0.0,0.0,0.0,0.0,0.0,0.0,0.0,0.0,0.0,0.0,-2.4023,-2.4792,-2.5281,-2.6206,-2.6911,-2.7074,-2.7697,-2.832,0.0,0.0,0.0,0.0,0.0,0.0,0.0,0.0,0.0,0.0,0.0,0.0,0.0,0.0,-3.241,-3.1654,-3.1475,-3.1461,-3.1469,0.0,0.0,0.0,0.0,0.0,0.0,0.0,0.0,0.0,0.0,0.0,0.0,0.0,0.0,-2.238,-2.2246,-2.2097,0.0,0.0,0.0,0.0,0.0,0.0,0.0,0.0,-2.3728,-2.4195,-2.4654,-2.4914,-2.5079,-2.5266,-2.5338,-2.4713,0.0,0.0,0.0,0.0,0.0,0.0,0.0,0.0,-2.3392,-2.3418,-2.3914,-2.4157,-2.4157,-2.4157,-2.4203,-2.4292,-2.4664,-2.4829,-2.4764,-2.4987,-2.4888,0.0,0.0,0.0,0.0,0.0,0.0,0.0,0.0,0.0,0.0,0.0,0.0,0.0,0.0,0.0,0.0,0.0,0.0,0.0,0.0,0.0,0.0,0.0,-2.5378,0.0,0.0,0.0,0.0,0.0,0.0,0.0,0.0,0.0,-2.46,-2.5291,-2.6055,-2.6649,-2.7439,-2.8118,-2.8477,0.0,0.0,0.0,0.0,0.0,0.0,0.0,-3.1505,-3.1904,-3.2063,-3.2223,-3.2731,-3.3086,-3.3312,-3.3312,0.0,0.0,-3.2304,-3.2095,-3.2138,-3.211,-3.2148,-3.2117,-3.2117,-3.2131,-3.2258,0.0,0.0,0.0,0.0,-2.4089,0.0,0.0,0.0,-2.364,-2.3523,0.0,-2.3239,0.0,0.0,0.0,0.0,-2.2898,-2.3404,0.0,0.0,-2.434,-2.4927,-2.5402,-2.5593,-2.6007,-2.6634,-2.6742,-2.6443,-2.5684,-2.4436,-2.3512,0.0,0.0,0.0,0.0,0.0,-2.3723,-2.375,-2.4169,-2.4319,-2.4332,-2.4358,-2.4358,-2.4429,-2.5016,-2.5466,-2.5743,-2.548,-2.5365,-2.5426,-2.4991,0.0,0.0,0.0,0.0,0.0,0.0,0.0,0.0,0.0,0.0,0.0,0.0,0.0,0.0,0.0,0.0,0.0,0.0,0.0,0.0,-2.6903,0.0,0.0,0.0,0.0,0.0,0.0,0.0,0.0,0.0,-2.708,-2.6583,-2.6541,-2.695,-2.8088,0.0,0.0,0.0,0.0,-3.0716,-3.073,-3.1249,-3.1636,-3.1609,-3.1763,-3.1998,-3.2196,0.0,0.0,-3.2915,-3.3171,-3.3312,-3.3312,-3.3312,-3.3312,-3.3227,-3.3213,-3.3213,-3.3269,-3.3241,-3.3297,-3.3297,-3.3185,-3.3227,-2.4243,0.0,0.0,0.0,0.0,-2.4118,-2.4067,-2.4016,-2.3719,-2.3602,-2.3565,-2.3332,0.0,0.0,0.0,0.0,0.0,0.0,-2.3979,-2.448,-2.4754,-2.5273,-2.5972,-2.6147,-2.6593,-2.7276,-2.7203,-2.7106,-2.7014,-2.6538,-2.5551,-2.4126,0.0,0.0,0.0,0.0,-2.4309,-2.4393,-2.4824,-2.5116,-2.5116,-2.5515,-2.5908,-2.6294,-2.6823,-2.696,-2.6735,-2.6771,-2.6633,-2.6213,-2.5763,0.0,0.0,0.0,0.0,0.0,0.0,0.0,0.0,0.0,0.0,0.0,0.0,0.0,0.0,0.0,0.0,0.0,0.0,0.0,-2.7055,-2.7435,-2.7645,0.0,0.0,0.0,0.0,0.0,0.0,0.0,0.0,0.0,-2.8874,-2.8465,-2.8526,0.0,0.0,-3.0392,-3.0566,-3.1218,-3.1739,-3.1726,-3.1829,0.0,-3.2164,-3.2204,-3.235,-3.2499,-3.2687,-3.2888,-3.2959,-3.3171,-3.3312,-3.3312,-3.3312,-3.3312,-3.3312,-3.3312,-3.3312,-3.3312,-3.3312,-3.3312,-3.3312,-3.3312,-3.3312,-2.5273,-2.4733,-2.4777,-2.4797,-2.4836,-2.485,-2.4924,-2.5135,-2.4657,-2.4565,-2.472,-2.4312,-2.4108,-2.4122,-2.4055,0.0,0.0,0.0,-2.5046,-2.5442,-2.586,-2.6387,-2.7069,-2.7273,-2.7771,-2.8464,-2.8404,-2.8292,-2.8127,-2.7966,-2.7228,-2.5911,0.0,-2.5652,-2.5639,-2.5652,-2.5652,-2.5666,-2.5945,-2.6088,-2.6088,-2.6485,-2.6917,-2.7363,-2.782,-2.7983,-2.7781,-2.7975,-2.7897,-2.749,-2.6948,-2.6614,0.0,0.0,0.0,0.0,0.0,0.0,0.0,0.0,0.0,0.0,0.0,-2.6271,-2.6881,0.0,0.0,0.0,-2.7937,-2.818,-2.8284,-2.8432,0.0,0.0,0.0,0.0,0.0,0.0,0.0,-2.9237,-2.9849,-3.0319,-3.0539,-3.0283,-3.0227,-3.0551,-3.1029,-3.1398,-3.1629,0.0,-3.2331,-3.2345,-3.2318,-3.2403,-3.2499,-3.253,-3.2561,-3.2789,-3.3016,-3.3086,-3.31,-3.3255,-3.3326,-3.3312,-3.3312,-3.3312,-3.3312,-3.3312,-3.3312,-3.3312,-3.3312,-3.3312,-3.3312,-3.3312,-3.3312,-2.6332,-2.6394,-2.6092,-2.5936,-2.5893,-2.5893,-2.6202,-2.6694,-2.6008,-2.6036,-2.6468,-2.5897,-2.5647,-2.5688,-2.5702,0.0,-2.573,-2.627,-2.6519,-2.6547,-2.7276,-2.7952,-2.8512,-2.8753,-2.9274,-2.9856,-3.0036,-2.9736,-2.9092,-2.9018,-2.8675,-2.8006,-2.7698,-2.7523,-2.7308,-2.7308,-2.7367,-2.7308,-2.7258,-2.7267,-2.7336,-2.7414,-2.7638,-2.7989,-2.8426,-2.8755,-2.8824,-2.9075,-2.9101,-2.8902,-2.8389,-2.7973,-2.7795,0.0,0.0,0.0,0.0,0.0,0.0,0.0,0.0,0.0,0.0,0.0,0.0,0.0,0.0,-2.8283,-2.8573,0.0,-2.956,-2.9645,0.0,0.0,0.0,-2.9919,-3.035,-3.0406,-3.055,-3.0906,0.0,0.0,-3.1792,-3.1917,-3.1889,-3.1777,-3.1819,-3.2068,-3.2621,-3.269,-3.2775,-3.2775,-3.2733,-3.2706,-3.2775,-3.2735,-3.2821,-3.2975,-3.3185,-3.3241,-3.3326,-3.3312,-3.3312,-3.3312,-3.3312,-3.3312,-3.3312,-3.3312,-3.3312,-3.3312,-3.3312,-3.3312,-3.3312,-3.3312,-3.3312,-2.682,-2.6392,-2.6553,-2.6329,-2.5893,-2.5893,-2.5978,-2.6104,-2.5785,-2.5868,-2.6077,-2.6231,-2.6692,-2.7241,-2.7241,-2.7241,-2.7255,-2.7395,-2.7523,-2.7639,-2.778,-2.8351,-2.9185,-2.9258,-2.9707,-3.0539,-3.0507,-3.045,-3.035,-3.0216,-3.0084,-2.9939,-2.9865,-2.908,-2.7762,-2.7661,-2.7675,-2.7661,-2.8138,-2.8554,-2.8968,-2.9139,-2.9383,-2.97,-2.9939,-3.0017,-2.9822,-2.9835,-2.9542,-2.8946,-2.8785,-2.8586,-2.8463,-2.8318,0.0,0.0,0.0,0.0,0.0,0.0,0.0,0.0,0.0,-2.845,-2.8482,0.0,-2.8867,0.0,-2.9148,-2.9386,-2.9463,-2.9961,0.0,0.0,-3.0676,-3.1106,-3.118,-3.1194,-3.125,-3.1324,-3.1758,-3.2094,-3.2234,-3.2653,-3.2961,-3.2891,-3.2793,-3.275,-3.2903,-3.3072,-3.3171,-3.3157,-3.3143,-3.3143,-3.3157,-3.3143,-3.3171,-3.3213,-3.3227,-3.3312,-3.3312,-3.3312,-3.3312,-3.3312,-3.3312,-3.3312,-3.3312,-3.3312,-3.3382,-3.3493,-3.3368,-3.3312,-3.3312,-3.3312,-3.3312,-2.6768,-2.6507,-2.6707,-2.6455,-2.5893,-2.5893,-2.6117,-2.6328,-2.602,-2.6103,-2.6521,-2.6496,-2.6708,-2.7131,-2.7145,-2.7131,-2.7159,-2.7485,-2.7726,-2.7797,-2.8182,-2.88,-2.9581,-2.9668,-3.0148,-3.094,-3.0836,-3.0836,-3.094,-3.0821,-3.0836,-3.0821,-3.0821,-3.0279,-2.9304,-2.9158,-2.9026,-2.904,-2.9309,-2.9543,-2.9884,-3.0068,-3.0266,-3.0507,-3.0747,-3.0822,-3.0628,-3.0686,-3.0465,-2.994,-2.9574,-2.9315,-2.9087,-2.8826,-2.8666,0.0,0.0,0.0,0.0,0.0,0.0,0.0,0.0,0.0,0.0,0.0,-2.9462,-2.9233,-2.9468,-2.9666,-2.9869,-3.0269,-3.0577,-3.0793,-3.1208,-3.1597,-3.1878,-3.1893,-3.2005,-3.2272,-3.2609,-3.2806,-3.2834,-3.3115,-3.3312,-3.3312,-3.3157,-3.3143,-3.3157,-3.3241,-3.3312,-3.3312,-3.3312,-3.3312,-3.3312,-3.3312,-3.3312,-3.3312,-3.3312,-3.3312,-3.3312,-3.3312,-3.334,-3.3452,-3.3466,-3.3438,-3.355,-3.3536,-3.3605,-3.366,-3.366,-3.3605,-3.355,-3.3564,-3.3648,-2.6576,-2.6635,-2.6764,-2.6455,-2.5934,-2.5948,-2.6313,-2.682,-2.6337,-2.6629,-2.7336,-2.6806,-2.6551,-2.6623,-2.6637,-2.6637,-2.6666,-2.7374,-2.7674,-2.7703,-2.8502,-2.9212,-2.9869,-3.0043,-3.0454,-3.1132,-3.1146,-3.1146,-3.1146,-3.1146,-3.1132,-3.1146,-3.1146,-3.1146,-3.1132,-3.0881,-3.0702,-3.0642,-3.0493,-3.0387,-3.0387,-3.0568,-3.0702,-3.0881,-3.1176,-3.1292,-3.1336,-3.1409,-3.1366,-3.1117,-3.0513,-3.0074,-2.9726,-2.9232,-2.8927,0.0,-2.8927,0.0,0.0,0.0,0.0,0.0,0.0,0.0,0.0,-3.0158,-2.9927,-2.9602,-2.9602,-2.9855,-3.0459,-3.06,-3.0909,-3.1527,-3.1668,-3.1935,-3.2455,-3.2525,-3.2721,-3.3255,-3.3312,-3.3312,-3.3297,-3.3312,-3.3312,-3.3312,-3.3312,-3.3241,-3.3312,-3.3312,-3.3312,-3.3312,-3.3312,-3.3312,-3.3312,-3.3312,-3.3312,-3.3312,-3.334,-3.3326,-3.3396,-3.341,-3.3452,-3.3607,-3.3649,-3.3717,-3.3908,-3.3894,-3.3977,-3.402,-3.402,-3.402,-3.3882,-3.3911,-3.3954,-2.7023,-2.6635,-2.6764,-2.6511,-2.6071,-2.6204,-2.6261,-2.6281,-2.6354,-2.6924,-2.7788,-2.7793,-2.8081,-2.855,-2.8484,-2.8388,-2.8443,-2.856,-2.8618,-2.8618,-2.8943,-2.9451,-3.0169,-3.0256,-3.0654,-3.1394,-3.1424,-3.1424,-3.1424,-3.1424,-3.1424,-3.1424,-3.1424,-3.1424,-3.1424,0.0,0.0,0.0,-3.094,-3.0955,-3.0955,-3.0955,-3.1073,-3.1234,-3.1292,0.0,-3.1467,-3.1482,-3.1366,-3.1132,-3.097,0.0,0.0,0.0,0.0,0.0,0.0,0.0,0.0,0.0,0.0,0.0,-3.0466,-3.0377,-3.0297,-3.0021,-2.9761,-2.9602,-2.9602,-2.9855,-3.0474,-3.0993,-3.1555,-3.2159,-3.2665,-3.3031,-3.3143,-3.3143,-3.3213,-3.3297,-3.3312,-3.3312,-3.3312,-3.3312,-3.3312,-3.3312,-3.3312,-3.3312,-3.3312,-3.3312,-3.3312,-3.3312,-3.3312,-3.3312,-3.3312,-3.3312,-3.3396,-3.348,-3.3536,-3.362,-3.3703,-3.3817,-3.3776,-3.3874,-3.3827,-3.3858,-3.408,-3.4037,-3.4205,-3.452,-3.4563,-3.4428,-3.4142,-3.4074,-3.4157,-2.6497,-2.6274,-2.6427,-2.6339,0.0,-2.6418,-2.6553,-2.6568,-2.6712,-2.703,-2.7548,-2.76,-2.7845,-2.8139,-2.8115,-2.8062,-2.8062,-2.8115,-2.8184,-2.8184,-2.8314,-2.8777,-2.9486,-2.9471,-3.0048,-3.1016,-3.1031,-3.1138,-3.1452,-3.1467,-3.1467,-3.1467,-3.1467,-3.1467,-3.1467,-3.1467,-3.1424,-3.1176,-3.1176,-3.1176,-3.1176,-3.1176,-3.1249,-3.1424,-3.1409,0.0,0.0,0.0,0.0,0.0,0.0,0.0,0.0,-3.0642,-3.0642,-3.0642,-3.0642,-3.0642,-3.0642,-3.0642,-3.0642,-3.0642,-3.0642,-3.0522,-3.0219,-2.9946,-2.9775,-2.9602,-2.9602,-2.9855,-3.0474,-3.1106,-3.1738,-3.2356,-3.2946,-3.3312,-3.3312,-3.3312,-3.3312,-3.3312,-3.3312,-3.3312,-3.3312,-3.3312,-3.3312,-3.3312,-3.3312,-3.3312,-3.3312,-3.3312,-3.3312,-3.3312,-3.3312,-3.3312,-3.3437,-3.3466,-3.3536,-3.3689,-3.3815,-3.3913,-3.3965,-3.4091,-3.422,-3.4252,-3.4286,-3.4365,-3.4574,-3.4667,-3.4747,-3.4963,-3.5052,-3.5037,-3.4905,-3.4787,-3.4668,-2.5993,-2.6131,-2.6325,-2.6546,-2.6748,-2.7045,-2.734,-2.752,-2.721,0.0,0.0,-2.7284,-2.7284,-2.7284,-2.7218,-2.7233,-2.7233,-2.735,-2.7401,-2.7401,-2.7539,-2.7949,-2.8577,-2.8592,-2.9205,-3.0313,-3.0328,-3.0627,-3.118,-3.13,-3.1302,-3.136,-3.148,-3.1467,-3.1467,-3.1467,-3.1467,-3.1336,-3.1351,-3.1351,-3.1336,-3.1351,-3.1394,-3.1467,-3.1467,-3.1467,-3.1467,-3.1467,-3.1351,-3.1146,-3.1087,-3.0955,-3.0642,-3.0642,-3.0642,-3.0642,-3.0642,-3.0642,-3.0642,-3.0642,-3.0642,-3.0642,-3.0642,-3.0462,-3.0172,-2.996,-2.9761,-2.9651,-2.9602,-2.9855,-3.0474,-3.0979,-3.1626,-3.2328,-3.2862,-3.3185,-3.3297,-3.3312,-3.3312,-3.3312,-3.3312,-3.3312,-3.3312,-3.3312,-3.3312,-3.3312,-3.3312,-3.3312,-3.3312,-3.3312,-3.3326,-3.3354,-3.341,-3.3452,-3.3591,-3.366,-3.3758,-3.3951,-3.412,-3.4218,-3.4307,-3.4452,-3.4569,-3.4762,-3.4811,-3.4927,-3.5165,-3.5244,-3.5341,-3.5484,-3.5464,-3.5559,-3.5688,-3.5574,-3.5394,-2.675,-2.6946,-2.7485,-2.7997,-2.8405,-2.8682,-2.9089,-2.9426,-2.798,-2.7437,-2.7524,-2.7524,-2.7524,-2.7524,-2.7437,-2.735,-2.735,-2.7401,-2.7401,-2.7401,-2.7524,-2.7934,-2.8577,-2.8592,-2.8996,-2.9669,-2.9714,-2.9759,-2.9894,-3.0387,-3.0642,-3.0731,-3.124,-3.1467,-3.1467,-3.1467,-3.1482,-3.1482,-3.1467,-3.1467,-3.1482,-3.1467,-3.1467,-3.1467,-3.1467,-3.1467,-3.1467,-3.1467,-3.1366,-3.1146,-3.1087,-3.0955,-3.0642,-3.0642,-3.0642,-3.0642,-3.0642,-3.0642,-3.0642,-3.0642,-3.0642,-3.0642,-3.0642,-3.0507,-3.0266,-3.0158,-2.9974,-2.9761,-2.9651,-2.9855,-3.0431,-3.0614,-3.1148,-3.2188,-3.2469,-3.2736,-3.3227,-3.3312,-3.3312,-3.3312,-3.3312,-3.3326,-3.3326,-3.3326,-3.3326,-3.3326,-3.3396,-3.3396,-3.3536,-3.3396,-3.3354,-3.3494,-3.3592,-3.3633,-3.3856,-3.398,-3.4142,-3.4278,-3.451,-3.4704,-3.4979,-3.5059,-3.5133,-3.5252,-3.5266,-3.5365,-3.5616,-3.5624,-3.5717,-3.5897,-3.5894,-3.5958,-3.5973,-3.5973,-3.5973,-2.7441,-2.7627,-2.7968,-2.8354,-2.8834,-2.9262,-2.9642,-2.9811,-2.9079,-2.8771,-2.8763,-2.8329,-2.8128,-2.8098,-2.7703,-2.7488,-2.7524,-2.7539,-2.7539,-2.7539,-2.756,-2.7739,-2.8008,-2.8038,-2.8397,-2.9011,-2.9056,-2.9235,-2.9594,-2.9879,-3.0178,-3.0522,-3.1195,-3.1467,-3.1467,-3.1467,-3.1467,-3.1467,-3.1467,-3.1467,-3.1467,-3.1467,-3.1467,-3.1467,-3.1467,-3.1467,-3.1467,-3.1467,-3.1424,-3.1234,-3.1132,-3.0955,-3.0702,-3.0628,-3.0642,-3.0642,-3.0642,-3.0642,-3.0642,-3.0642,-3.0642,-3.0642,-3.0642,-3.0568,-3.0433,-3.0341,-3.0083,-2.9808,-2.9775,-2.9749,-3.001,-3.0319,-3.0769,-3.1302,-3.1963,-3.2511,-3.2806,-3.3143,-3.3312,-3.3326,-3.3368,-3.3452,-3.348,-3.3564,-3.3648,-3.3619,-3.3605,-3.3675,-3.3868,-3.3799,-3.3758,-3.3774,-3.3856,-3.3937,-3.4182,-3.4399,-3.4601,-3.4802,-3.5066,-3.5311,-3.5439,-3.5533,-3.5661,-3.5714,-3.5752,-3.5821,-3.5917,-3.5982,-3.6027,-3.6212,-3.6289,-3.6304,-3.6304,-3.6352,-3.6352,-2.8135,-2.8353,-2.8626,-2.9015,-2.9581,-3.0093,-3.0325,-3.031,-3.0325,-3.0271,-3.0111,-2.9229,-2.8816,-2.8771,-2.8263,-2.8023,-2.8075,-2.8023,-2.8038,-2.8023,-2.8023,-2.8008,-2.8023,-2.8075,-2.8359,-2.8824,-2.8854,-2.9139,-2.9642,-2.9823,-3.0228,-3.0844,-3.1327,-3.1597,-3.1597,-3.1597,-3.1582,-3.1597,-3.1597,-3.1597,-3.1467,-3.1467,-3.1467,-3.1467,-3.1467,-3.1467,-3.1467,-3.1467,-3.1409,-3.1292,-3.119,-3.1014,-3.0836,-3.0702,-3.0642,-3.0642,-3.0642,-3.0642,-3.0642,-3.0642,-3.0642,-3.0642,-3.0642,-3.0642,-3.0568,-3.0447,-3.0266,-2.9946,-2.9884,-2.9837,-2.9797,-3.0073,-3.0425,-3.0608,-3.1373,-3.1977,-3.223,-3.2736,-3.3115,-3.3199,-3.3382,-3.3579,-3.3717,-3.3842,-3.398,-3.402,-3.402,-3.4157,-3.4278,-3.4317,-3.4293,-3.4254,-3.4307,-3.4356,-3.4574,-3.4846,-3.5118,-3.5344,-3.5589,-3.5719,-3.5782,-3.5932,-3.6027,-3.6054,-3.6119,-3.612,-3.6213,-3.6291,-3.6322,-3.6399,-3.6429,-3.6492,-3.6492,-3.6492,-3.6492,-2.8995,-2.9376,-2.9999,-3.0793,-3.1384,-3.1641,-3.181,-3.1891,-3.1855,-3.1702,-3.1407,-3.0153,-2.9505,-2.949,-2.9385,-2.9325,-2.934,-2.9385,-2.9355,-2.934,-2.94,-2.94,-2.9325,-2.9409,-2.9522,-2.9659,-2.9644,-2.9713,-2.9993,-3.0516,-3.1167,-3.1773,-3.191,-3.194,-3.194,-3.194,-3.1925,-3.194,-3.1925,-3.1811,-3.1524,-3.1467,-3.1467,-3.1467,-3.1467,-3.1467,-3.1467,-3.1467,-3.1409,-3.1292,-3.1176,-3.1014,-3.0836,-3.0687,-3.0642,-3.0642,-3.0642,-3.0642,-3.0642,-3.0642,-3.0642,-3.0642,-3.0642,-3.0642,-3.0642,-3.0582,-3.0507,-3.0266,-3.0158,-3.005,-3.005,-2.9984,-3.0114,-3.0581,-3.0735,-3.0923,-3.1513,-3.2117,-3.2565,-3.2701,-3.3281,-3.3649,-3.3896,-3.4031,-3.4206,-3.4332,-3.4549,-3.4683,-3.4802,-3.4935,-3.5067,-3.5118,-3.5037,-3.4957,-3.513,-3.5434,-3.5559,-3.5703,-3.5861,-3.6004,-3.6133,-3.6134,-3.6213,-3.6321,-3.6414,-3.6445,-3.6445,-3.6476,-3.6476,-3.6476,-3.6492,-3.6492,-3.6492,-3.6492,-3.6492,-2.9683,-3.0145,-3.0466,-3.1043,-3.1667,-3.1826,-3.194,-3.2038,-3.194,-3.1784,-3.1552,-3.0971,-3.0507,-3.0118,-2.9744,-2.9594,-2.9594,-2.9594,-2.9594,-2.9594,-2.9594,-2.9594,-2.9579,-2.9672,-2.978,-2.9818,-2.9856,-2.9947,-3.019,-3.0823,-3.1296,-3.153,-3.1825,-3.1996,-3.2012,-3.2012,-3.2012,-3.2012,-3.2012,-3.1925,-3.1811,-3.1826,-3.1769,-3.1655,-3.1655,-3.1597,-3.1539,-3.1467,-3.1482,-3.1409,-3.1307,-3.1117,-3.1014,-3.0821,-3.0702,-3.0642,-3.0642,-3.0642,-3.0642,-3.0642,-3.0642,-3.0642,-3.0642,-3.0642,-3.0642,-3.0642,-3.0568,-3.0447,-3.0326,-3.0205,-3.0111,-2.9898,-2.9936,-3.0205,-3.0341,-3.0628,-3.1011,-3.1589,-3.2217,-3.2882,-3.3257,-3.3696,-3.4249,-3.4587,-3.4773,-3.4868,-3.5001,-3.5169,-3.5314,-3.5444,-3.5574,-3.5688,-3.5703,-3.5608,-3.5563,-3.5785,-3.5943,-3.6006,-3.6163,-3.6367,-3.6352,-3.6399,-3.6445,-3.6492,-3.6492,-3.6492,-3.6492,-3.6492,-3.6492,-3.6492,-3.6492,-3.6492,-3.6492,-3.6492,-3.6492,-3.0251,-3.0628,-3.0821,-3.1161,-3.1682,-3.1769,-3.1856,-3.194,-3.1841,-3.167,-3.1524,-3.1467,-3.127,-3.0776,-3.0298,-3.0118,-3.0118,-3.0118,-3.0118,-3.0118,-3.0118,-3.0133,-3.0118,-3.0268,-3.0377,-3.0416,-3.0593,-3.0792,-3.096,-3.1428,-3.1651,-3.1728,-3.2048,-3.2277,-3.2221,-3.2206,-3.2277,-3.2277,-3.2277,-3.2277,-3.2221,-3.2221,-3.2109,-3.1898,-3.1841,-3.1784,-3.164,-3.1655,-3.1597,-3.1597,-3.1467,-3.1292,-3.1132,-3.0955,-3.0762,-3.0628,-3.0642,-3.0642,-3.0642,-3.0642,-3.0642,-3.0642,-3.0642,-3.0642,-3.0642,-3.0642,-3.0642,-3.0568,-3.0447,-3.0326,-3.0219,-3.0083,-2.9931,-2.9974,-3.0213,-3.0453,-3.0685,-3.1212,-3.1882,-3.2681,-3.3215,-3.3883,-3.4802,-3.5198,-3.5309,-3.5409,-3.5509,-3.5608,-3.5816,-3.5816,-3.5894,-3.61,-3.6226,-3.6133,-3.5943,-3.6085,-3.6274,-3.6274,-3.6429,-3.6492,-3.6492,-3.6492,-3.6492,-3.6492,-3.6492,-3.6492,-3.6492,-3.6492,-3.6492,-3.6492,-3.6492,-3.6492,-3.6492,-3.6492,-3.6492,-3.0642,-3.0836,-3.1292,-3.1554,-3.1799,-3.1784,-3.1784,-3.1799,-3.1784,-3.167,-3.1524,-3.1467,-3.1452,-3.1435,-3.133,-3.1347,-3.1347,-3.1345,-3.133,-3.1315,-3.1375,-3.142,-3.145,-3.1652,-3.1762,-3.1779,-3.2011,-3.2346,-3.2656,-3.2749,-3.2812,-3.2796,-3.2812,-3.2843,-3.2843,-3.2843,-3.2843,-3.2843,-3.2827,-3.2843,-3.2858,-3.2843,-3.2554,-3.2109,-3.1981,-3.1981,-3.1981,-3.1996,-3.194,-3.1784,-3.1625,-3.1437,-3.1278,-3.0984,-3.0762,-3.0642,-3.0642,-3.0642,-3.0642,-3.0642,-3.0642,-3.0642,-3.0642,-3.0642,-3.0642,-3.0642,-3.0642,-3.0642,-3.0582,-3.0582,-3.0507,-3.0326,-3.0251,-3.0251,-3.0187,-3.0258,-3.0337,-3.0974,-3.1416,-3.209,-3.3162,-3.4351,-3.5495,-3.5672,-3.5763,-3.5861,-3.5958,-3.6022,-3.6085,-3.6148,-3.6226,-3.6367,-3.6429,-3.6414,-3.6274,-3.6274,-3.6414,-3.6476,-3.6429,-3.6492,-3.6492,-3.6492,-3.6492,-3.6492,-3.6492,-3.6492,-3.6492,-3.6492,-3.6492,-3.6492,-3.6492,-3.6492,-3.6492,-3.6492,-3.6492,-3.0881,-3.1117,-3.1424,-3.1597,-3.1784,-3.1655,-3.167,-3.1799,-3.167,-3.1612,-3.1539,-3.1467,-3.1467,-3.1467,-3.1467,-3.1467,-3.1467,-3.1467,-3.1467,-3.1524,-3.1597,-3.1712,-3.1727,-3.2038,-3.2191,-3.2302,-3.2633,-3.2973,-3.3256,-3.3309,-3.3309,-3.3256,-3.3203,-3.315,-3.315,-3.315,-3.3165,-3.315,-3.3165,-3.315,-3.315,-3.315,-3.3027,-3.2812,-3.2508,-3.2342,-3.2247,-3.2135,-3.2094,-3.2038,-3.1925,-3.1682,-3.1437,-3.1043,-3.0762,-3.0702,-3.0642,-3.0642,-3.0642,-3.0642,-3.0642,-3.0642,-3.0642,-3.0642,-3.0642,-3.0642,-3.0642,-3.0642,-3.0702,-3.0702,-3.0702,-3.0507,-3.0387,-3.0447,-3.0326,-3.0326,-3.0597,-3.0921,-3.1364,-3.2287,-3.36,-3.4931,-3.5604,-3.5973,-3.6067,-3.6163,-3.6226,-3.6352,-3.6352,-3.6414,-3.6414,-3.6492,-3.6492,-3.6492,-3.6399,-3.6414,-3.6492,-3.6492,-3.6492,-3.6492,-3.6492,-3.6492,-3.6492,-3.6492,-3.6492,-3.6492,-3.6492,-3.6492,-3.6492,-3.6492,-3.6492,-3.6492,-3.6492,-3.6492,-3.6492,-3.1234,-3.1482,-3.1524,-3.1655,-3.1655,-3.1539,-3.1597,-3.167,-3.1539,-3.1467,-3.1467,-3.1467,-3.1467,-3.1467,-3.1467,-3.1467,-3.1539,-3.1539,-3.1597,-3.1612,-3.1784,-3.1883,-3.1996,-3.2262,-3.2437,-3.2602,-3.3065,-3.3398,-3.3607,-3.3642,-3.371,-3.371,-3.3591,-3.3555,-3.3555,-3.3555,-3.3555,-3.3555,-3.3555,-3.3555,-3.3555,-3.3487,-3.3503,-3.345,-3.3156,-3.2834,-3.2633,-3.2468,-3.2413,-3.2287,-3.2176,-3.1966,-3.161,-3.1204,-3.0999,-3.0925,-3.0762,-3.0642,-3.0642,-3.0642,-3.0642,-3.0642,-3.0642,-3.0642,-3.0657,-3.0657,-3.0702,-3.0762,-3.0836,-3.0895,-3.094,-3.0747,-3.0687,-3.0807,-3.0687,-3.0732,-3.1029,-3.1161,-3.1826,-3.2946,-3.394,-3.5032,-3.598,-3.6211,-3.6304,-3.6289,-3.6414,-3.6492,-3.6492,-3.6492,-3.6492,-3.6492,-3.6492,-3.6492,-3.6492,-3.6492,-3.6492,-3.6492,-3.6492,-3.6492,-3.6492,-3.6492,-3.6492,-3.6492,-3.6492,-3.6492,-3.6492,-3.6492,-3.6492,-3.6492,-3.6492,-3.6492,-3.6492,-3.6492,-3.6492,-3.1697,-3.1727,-3.1799,-3.1655,-3.1524,-3.1524,-3.1467,-3.1524,-3.1524,-3.1467,-3.1467,-3.1467,-3.1467,-3.1467,-3.1467,-3.1467,-3.1524,-3.1712,-3.1784,-3.1784,-3.194,-3.2094,-3.2206,-3.2413,-3.2656,-3.2926,-3.3419,-3.3745,-3.3899,-3.4,-3.4084,-3.4101,-3.4101,-3.405,-3.4084,-3.405,-3.4101,-3.405,-3.405,-3.405,-3.4101,-3.3949,-3.3848,-3.3848,-3.3678,-3.3435,-3.3096,-3.2935,-3.2812,-3.2617,-3.2508,-3.2176,-3.1781,-3.1567,-3.1437,-3.1278,-3.1014,-3.0836,-3.0762,-3.0702,-3.0642,-3.0642,-3.0642,-3.0731,-3.0775,-3.085,-3.0881,-3.1058,-3.1132,-3.119,-3.1292,-3.1292,-3.1263,-3.1278,-3.1278,-3.1394,-3.1625,-3.1712,-3.2352,-3.3739,-3.4408,-3.4897,-3.5999,-3.6492,-3.6429,-3.6492,-3.6492,-3.6492,-3.6492,-3.6492,-3.6492,-3.6492,-3.6492,-3.6492,-3.6492,-3.6492,-3.6492,-3.6492,-3.6492,-3.6492,-3.6492,-3.6492,-3.6492,-3.6492,-3.6492,-3.6492,-3.6492,-3.6492,-3.6492,-3.6492,-3.6492,-3.6492,-3.6492,-3.6492,-3.6492,-3.1712,-3.1597,-3.1597,-3.1539,-3.1467,-3.1467,-3.1467,-3.1467,-3.1467,-3.1467,-3.1467,-3.1467,-3.1467,-3.1467,-3.1467,-3.1597,-3.1727,-3.194,-3.1996,-3.1898,-3.215,-3.2342,-3.2508,-3.285,-3.3224,-3.3559,-3.3832,-3.405,-3.4201,-3.4284,-3.4349,-3.4349,-3.4333,-3.4399,-3.4399,-3.4349,-3.4399,-3.4349,-3.4399,-3.4333,-3.425,-3.4201,-3.4151,-3.405,-3.3899,-3.3745,-3.3658,-3.3346,-3.315,-3.3065,-3.2866,-3.2594,-3.2231,-3.1966,-3.1739,-3.1452,-3.1278,-3.1117,-3.1028,-3.0955,-3.094,-3.0955,-3.0955,-3.0984,-3.1043,-3.1087,-3.1131,-3.1276,-3.1422,-3.1567,-3.1754,-3.1853,-3.1853,-3.1625,-3.1697,-3.1868,-3.2068,-3.2629,-3.3475,-3.445,-3.501,-3.5644,-3.6338,-3.6507,-3.643,-3.6445,-3.6476,-3.6492,-3.6492,-3.6492,-3.6492,-3.6492,-3.6492,-3.6492,-3.6492,-3.6492,-3.6492,-3.6492,-3.6492,-3.6492,-3.6492,-3.6492,-3.6492,-3.6492,-3.6492,-3.6492,-3.6492,-3.6492,-3.6492,-3.6492,-3.6492,-3.6492,-3.6492,-3.6492,-3.6492,-3.1826,-3.1597,-3.1597,-3.1597,-3.1524,-3.1467,-3.1467,-3.1467,-3.1467,-3.1467,-3.1467,-3.1467,-3.1524,-3.1597,-3.1597,-3.1712,-3.194,-3.2206,-3.2247,-3.2262,-3.2484,-3.2742,-3.2888,-3.333,-3.3658,-3.3949,-3.4151,-3.43,-3.4448,-3.4611,-3.4626,-3.4659,-3.4659,-3.4643,-3.4643,-3.4594,-3.4594,-3.4546,-3.4529,-3.4448,-3.4399,-3.43,-3.425,-3.4151,-3.405,-3.4,-3.3949,-3.371,-3.3503,-3.3398,-3.3203,-3.2881,-3.2578,-3.2302,-3.2079,-3.1823,-3.161,-3.1394,-3.1292,-3.1219,-3.1234,-3.119,-3.1234,-3.1264,-3.1308,-3.1439,-3.148,-3.1634,-3.1792,-3.1966,-3.2191,-3.2287,-3.2287,-3.2206,-3.2191,-3.2318,-3.249,-3.2965,-3.3675,-3.4322,-3.469,-3.5236,-3.5687,-3.6137,-3.6091,-3.6138,-3.6338,-3.6492,-3.6492,-3.6492,-3.6461,-3.6461,-3.6492,-3.6492,-3.6492,-3.6492,-3.6492,-3.6492,-3.6492,-3.6492,-3.6492,-3.6492,-3.6492,-3.6492,-3.6492,-3.6492,-3.6492,-3.6492,-3.6492,-3.6492,-3.6368,-3.6492,-3.6492,-3.6492,-3.6492,-3.1996,-3.1799,-3.1799,-3.1655,-3.1524,-3.1467,-3.1467,-3.1467,-3.1467,-3.1467,-3.1467,-3.1467,-3.1597,-3.1784,-3.1784,-3.1955,-3.2206,-3.2342,-3.2602,-3.2819,-3.3065,-3.324,-3.3398,-3.3745,-3.4,-3.4151,-3.4349,-3.4546,-3.4578,-3.4739,-3.4899,-3.4787,-3.4787,-3.4851,-3.4787,-3.4739,-3.4659,-3.4643,-3.4546,-3.4497,-3.4448,-3.4366,-3.43,-3.425,-3.4151,-3.4101,-3.405,-3.3949,-3.3797,-3.3694,-3.345,-3.3203,-3.2951,-3.2633,-3.2453,-3.2342,-3.1951,-3.1739,-3.161,-3.1552,-3.1509,-3.1394,-3.1509,-3.1567,-3.1685,-3.1769,-3.1921,-3.2139,-3.2201,-3.2358,-3.2563,-3.2602,-3.2672,-3.2812,-3.2687,-3.2687,-3.2897,-3.3045,-3.3513,-3.3864,-3.3861,-3.4053,-3.4818,-3.5241,-3.5413,-3.5507,-3.5861,-3.6045,-3.6122,-3.603,-3.6261,-3.6215,-3.5999,-3.5922,-3.5753,-3.5753,-3.5737,-3.5737,-3.5891,-3.6107,-3.6292,-3.6306,-3.6106,-3.6137,-3.623,-3.6307,-3.6245,-3.6045,-3.5999,-3.5907,-3.6014,-3.6338,-3.6399,-3.6245,-3.6338,-3.1769,-3.1597,-3.1597,-3.1539,-3.1467,-3.1467,-3.1467,-3.1467,-3.1467,-3.1467,-3.1467,-3.1467,-3.1612,-3.1799,-3.1784,-3.1996,-3.2358,-3.2602,-3.2873,-3.3171,-3.3539,-3.3745,-3.3899,-3.4201,-3.43,-3.43,-3.4399,-3.4448,-3.4399,-3.4546,-3.4594,-3.4594,-3.4643,-3.4594,-3.4594,-3.4594,-3.4546,-3.4562,-3.4546,-3.4448,-3.4333,-3.4284,-3.425,-3.4151,-3.4101,-3.4101,-3.4101,-3.405,-3.3949,-3.3694,-3.3642,-3.345,-3.3203,-3.3081,-3.2888,-3.2602,-3.2342,-3.2176,-3.2023,-3.191,-3.1868,-3.1811,-3.191,-3.2038,-3.2038,-3.2247,-3.2367,-3.2516,-3.2633,-3.2773,-3.292,-3.2973,-3.3027,-3.315,-3.3027,-3.2973,-3.3212,-3.3644,-3.3967,-3.4062,-3.4326,-3.4436,-3.4523,-3.467,-3.4737,-3.4768,-3.4953,-3.5137,-3.5276,-3.5245,-3.5337,-3.5091,-3.4906,-3.4937,-3.4937,-3.4937,-3.4922,-3.486,-3.5076,-3.546,-3.5707,-3.5968,-3.5476,-3.5154,-3.5278,-3.54,-3.5169,-3.4939,-3.5,-3.5291,-3.523,-3.5368,-3.5646,-3.5676,-3.5984,-3.167,-3.1467,-3.1467,-3.1467,-3.1467,-3.1467,-3.1467,-3.1467,-3.1467,-3.1467,-3.1467,-3.1467,-3.1655,-3.1898,-3.1955,-3.2206,-3.2578,-3.2888,-3.3171,-3.3503,-3.3899,-3.405,-3.4151,-3.43,-3.43,-3.43,-3.4399,-3.4399,-3.4399,-3.4448,-3.4497,-3.4497,-3.448,-3.448,-3.4497,-3.4448,-3.4399,-3.4399,-3.4333,-3.43,-3.4184,-3.4184,-3.4201,-3.4101,-3.4101,-3.4101,-3.4101,-3.4101,-3.4,-3.3848,-3.3745,-3.371,-3.3487,-3.3361,-3.3187,-3.2888,-3.2742,-3.2539,-3.2413,-3.2373,-3.2318,-3.2318,-3.2413,-3.2484,-3.2554,-3.2648,-3.2726,-3.285,-3.2935,-3.3043,-3.315,-3.3203,-3.3203,-3.324,-3.3203,-3.315,-3.3309,-3.3593,-3.3776,-3.3771,-3.3897,-3.4011,-3.3857,-3.3959,-3.4056,-3.4091,-3.4368,-3.4491,-3.4568,-3.4445,-3.4368,-3.4275,-3.4306,-3.4445,-3.4491,-3.4491,-3.4445,-3.4352,-3.4337,-3.4722,-3.4939,-3.5309,-3.5003,-3.4562,-3.4484,-3.4419,-3.4321,-3.4334,-3.4642,-3.4719,-3.4519,-3.4522,-3.4893,-3.5049,-3.5383,-3.1655,-3.1467,-3.1467,-3.1467,-3.1467,-3.1467,-3.1467,-3.1467,-3.1467,-3.1467,-3.1524,-3.1539,-3.1712,-3.1996,-3.215,-3.2484,-3.2897,-3.3134,-3.345,-3.3761,-3.405,-3.4201,-3.4101,-3.4201,-3.425,-3.43,-3.43,-3.4349,-3.4399,-3.4399,-3.4448,-3.4399,-3.4399,-3.4448,-3.4399,-3.43,-3.43,-3.425,-3.4201,-3.4151,-3.4101,-3.4101,-3.4101,-3.4101,-3.4101,-3.4101,-3.4101,-3.4101,-3.405,-3.3949,-3.3899,-3.3848,-3.3694,-3.3503,-3.3346,-3.3293,-3.3081,-3.292,-3.278,-3.2866,-3.2881,-3.2742,-3.2827,-3.2951,-3.2951,-3.2935,-3.2989,-3.3096,-3.3096,-3.315,-3.3256,-3.3309,-3.3256,-3.3256,-3.315,-3.315,-3.3256,-3.3256,-3.3203,-3.3043,-3.2982,-3.2788,-3.2748,-3.2931,-3.3306,-3.3336,-3.3583,-3.369,-3.3752,-3.3721,-3.3767,-3.386,-3.3952,-3.4091,-3.4106,-3.4106,-3.4014,-3.3921,-3.3814,-3.3952,-3.4029,-3.4217,-3.4248,-3.4094,-3.3741,-3.3686,-3.3851,-3.3976,-3.414,-3.3994,-3.3732,-3.4006,-3.4315,-3.4352,-3.4506,-3.1524,-3.1467,-3.1467,-3.1467,-3.1467,-3.1467,-3.1467,-3.1482,-3.1467,-3.1467,-3.1524,-3.1655,-3.1826,-3.1996,-3.2247,-3.2648,-3.3058,-3.3293,-3.3658,-3.4016,-3.4101,-3.4151,-3.4151,-3.425,-3.4349,-3.43,-3.43,-3.425,-3.4201,-3.4201,-3.4184,-3.4201,-3.4201,-3.4184,-3.4201,-3.4201,-3.4151,-3.4151,-3.4101,-3.4101,-3.4101,-3.4101,-3.4101,-3.4101,-3.4101,-3.4101,-3.4101,-3.4101,-3.4101,-3.405,-3.405,-3.4,-3.3848,-3.3797,-3.3694,-3.3607,-3.3435,-3.3346,-3.3277,-3.324,-3.3187,-3.3134,-3.3134,-3.3187,-3.3203,-3.3203,-3.3203,-3.3256,-3.324,-3.3256,-3.3256,-3.3219,-3.3165,-3.3165,-3.2989,-3.2951,-3.3005,-3.3005,-3.2951,-3.2773,-3.2703,-3.2594,-3.2468,-3.2545,-3.269,-3.2659,-3.2752,-3.2859,-3.2952,-3.3044,-3.3136,-3.3306,-3.329,-3.3367,-3.3367,-3.3367,-3.3383,-3.3367,-3.3306,-3.326,-3.3336,-3.3372,-3.351,-3.326,-3.2782,-3.2903,-3.3286,-3.3067,-3.3131,-3.2982,-3.2998,-3.3285,-3.3517,-3.3552,-3.3675,-3.1467,-3.1467,-3.1467,-3.1467,-3.1467,-3.1467,-3.1467,-3.1409,-3.1467,-3.1467,-3.1482,-3.167,-3.1898,-3.2038,-3.2342,-3.2687,-3.3043,-3.3398,-3.3761,-3.405,-3.4101,-3.4101,-3.4101,-3.4201,-3.425,-3.4184,-3.4201,-3.4151,-3.4101,-3.4101,-3.4101,-3.4101,-3.4101,-3.4101,-3.4101,-3.4101,-3.4101,-3.4101,-3.4101,-3.4101,-3.4101,-3.4101,-3.4101,-3.4101,-3.4101,-3.4101,-3.4101,-3.4101,-3.4101,-3.4101,-3.4101,-3.405,-3.4,-3.3949,-3.3848,-3.3797,-3.3642,-3.3591,-3.3555,-3.3555,-3.345,-3.3414,-3.3398,-3.3361,-3.3309,-3.3293,-3.3293,-3.3293,-3.3309,-3.3309,-3.3203,-3.315,-3.3112,-3.3005,-3.2827,-3.2773,-3.2788,-3.2843,-3.2843,-3.2648,-3.2633,-3.2523,-3.2468,-3.2398,-3.2413,-3.2536,-3.2536,-3.2628,-3.2613,-3.2675,-3.2613,-3.2659,-3.2567,-3.2536,-3.2552,-3.2582,-3.2659,-3.269,-3.2736,-3.2721,-3.2752,-3.2788,-3.2839,-3.2619,-3.2514,-3.2444,-3.2678,-3.2398,-3.2398,-3.2552,-3.2675,-3.2705,-3.2782,-3.2952,-3.3029,-3.1467,-3.1467,-3.1467,-3.1467,-3.1482,-3.1467,-3.1409,-3.1351,-3.1409,-3.1409,-3.1409,-3.1655,-3.1898,-3.2109,-3.2468,-3.2757,-3.3134,-3.345,-3.3899,-3.405,-3.4101,-3.4101,-3.4101,-3.4101,-3.4151,-3.4101,-3.4101,-3.4101,-3.4101,-3.4101,-3.4101,-3.4101,-3.4101,-3.4101,-3.4101,-3.4101,-3.4101,-3.4101,-3.4101,-3.4101,-3.4101,-3.4101,-3.4101,-3.4101,-3.4101,-3.4101,-3.4101,-3.4101,-3.4101,-3.4101,-3.4101,-3.4101,-3.405,-3.4,-3.3949,-3.3965,-3.3848,-3.3797,-3.3745,-3.3694,-3.3642,-3.3555,-3.3503,-3.345,-3.3346,-3.3293,-3.3293,-3.3293,-3.324,-3.3203,-3.3112,-3.3005,-3.2935,-3.2827,-3.2648,-3.2594,-3.2594,-3.2703,-3.2718,-3.2594,-3.2523,-3.2453,-3.2453,-3.2398,-3.2398,-3.2398,-3.2398,-3.2398,-3.2398,-3.2398,-3.2398,-3.2398,-3.2398,-3.2398,-3.2398,-3.2398,-3.2398,-3.2398,-3.2398,-3.2398,-3.2398,-3.2521,-3.2604,-3.2496,-3.2413,-3.2398,-3.2398,-3.2398,-3.2398,-3.2398,-3.2428,-3.2536,-3.249,-3.2413,-3.2505,-3.1467,-3.1467,-3.1467,-3.1467,-3.1482,-3.1409,-3.1278,-3.1292,-3.1292,-3.1351,-3.1351,-3.1769,-3.194,-3.215,-3.2609,-3.3096,-3.345,-3.3745,-3.3949,-3.4101,-3.4101,-3.4101,-3.4101,-3.4101,-3.4101,-3.4101,-3.4101,-3.4101,-3.4101,-3.4101,-3.4101,-3.4101,-3.4101,-3.4101,-3.4101,-3.4101,-3.4101,-3.4101,-3.4101,-3.4101,-3.4101,-3.4101,-3.4101,-3.4101,-3.4101,-3.4101,-3.4101,-3.4101,-3.4101,-3.4101,-3.4101,-3.4101,-3.4101,-3.405,-3.405,-3.405,-3.4,-3.3949,-3.3848,-3.3848,-3.3813,-3.371,-3.3555,-3.3503,-3.345,-3.333,-3.3293,-3.324,-3.3203,-3.3043,-3.2951,-3.2827,-3.2703,-3.2594,-3.2523,-3.2468,-3.2468,-3.2578,-3.2648,-3.2594,-3.2508,-3.2453,-3.2523,-3.2468,-3.2453,-3.2453,-3.2398,-3.2398,-3.2398,-3.2398,-3.2398,-3.2398,-3.2398,-3.2398,-3.2398,-3.2398,-3.2398,-3.2398,-3.2398,-3.2398,-3.2398,-3.2398,-3.2398,-3.2398,-3.2398,-3.2398,-3.2398,-3.2398,-3.2398,-3.2398,-3.2398,-3.2398,-3.2398,-3.2398,-3.2398,-3.121,-3.1467,-3.1409,-3.1409,-3.1351,-3.1234,-3.1117,-3.1058,-3.1132,-3.119,-3.1292,-3.164,-3.1925,-3.2206,-3.2679,-3.3203,-3.3607,-3.3848,-3.3949,-3.405,-3.4101,-3.4101,-3.4101,-3.4101,-3.4101,-3.4101,-3.4101,-3.4101,-3.4101,-3.4101,-3.4101,-3.4101,-3.4101,-3.4101,-3.4101,-3.4101,-3.4101,-3.4101,-3.4101,-3.4101,-3.4101,-3.4101,-3.4101,-3.4101,-3.4101,-3.4101,-3.4101,-3.4101,-3.4101,-3.4101,-3.4101,-3.4101,-3.4101,-3.4101,-3.4101,-3.4101,-3.4101,-3.405,-3.3949,-3.3899,-3.3813,-3.3607,-3.3503,-3.345,-3.3398,-3.3346,-3.324,-3.3203,-3.3043,-3.2935,-3.2757,-3.2648,-3.2594,-3.2523,-3.2453,-3.2453,-3.2523,-3.2578,-3.2578,-3.2648,-3.2703,-3.2703,-3.2648,-3.2648,-3.2508,-3.2453,-3.2453,-3.2453,-3.2398,-3.2398,-3.2398,-3.2398,-3.2398,-3.2398,-3.2398,-3.2398,-3.2398,-3.2398,-3.2398,-3.2398,-3.2398,-3.2398,-3.2398,-3.2398,-3.2398,-3.2398,-3.2398,-3.2398,-3.2398,-3.2398,-3.2453,-3.2453,-3.2398,-3.2398,-3.2453,-3.0989,-3.1467,-3.1336,-3.1278,-3.1234,-3.1117,-3.0955,-3.0895,-3.1014,-3.1087,-3.1132,-3.1567,-3.1966,-3.2262,-3.2757,-3.3256,-3.3745,-3.3848,-3.4,-3.4101,-3.4101,-3.4101,-3.4101,-3.4101,-3.4101,-3.4101,-3.4101,-3.4101,-3.4101,-3.4101,-3.4101,-3.4101,-3.4101,-3.4101,-3.4101,-3.4101,-3.4101,-3.4101,-3.4101,-3.4101,-3.4101,-3.4101,-3.4101,-3.4101,-3.4101,-3.4101,-3.4101,-3.4101,-3.4101,-3.4101,-3.4101,-3.4101,-3.4101,-3.4101,-3.4101,-3.4101,-3.4117,-3.4,-3.3899,-3.3797,-3.3694,-3.3503,-3.345,-3.3398,-3.3361,-3.3256,-3.3203,-3.3043,-3.2881,-3.2773,-3.2594,-3.2594,-3.2523,-3.2468,-3.2398,-3.2453,-3.2578,-3.2633,-3.2773,-3.2827,-3.2935,-3.2935,-3.2881,-3.2773,-3.2703,-3.2648,-3.2594,-3.2523,-3.2468,-3.2398,-3.2398,-3.2398,-3.2398,-3.2398,-3.2398,-3.2398,-3.2398,-3.2398,-3.2398,-3.2398,-3.2398,-3.2398,-3.2398,-3.2413,-3.2398,-3.2398,-3.2398,-3.2437,-3.2477,-3.2477,-3.2492,-3.2508,-3.2594,-3.2594,-3.2594,-3.1334,-3.1351,-3.1292,-3.1234,-3.1132,-3.0895,-3.0821,-3.0821,-3.1014,-3.1087,-3.1146,-3.1712,-3.2038,-3.2358,-3.2973,-3.3503,-3.3813,-3.3899,-3.4,-3.4101,-3.4101,-3.4101,-3.4101,-3.4101,-3.4101,-3.4101,-3.4101,-3.4101,-3.4101,-3.4101,-3.4101,-3.4101,-3.4101,-3.4101,-3.4101,-3.4101,-3.4101,-3.4101,-3.4101,-3.4101,-3.4101,-3.4101,-3.4101,-3.4101,-3.4101,-3.4101,-3.4101,-3.4101,-3.4101,-3.4101,-3.4101,-3.4101,-3.4101,-3.4101,-3.4101,-3.405,-3.4,-3.3848,-3.3745,-3.3642,-3.3539,-3.3398,-3.3346,-3.3309,-3.3256,-3.315,-3.2989,-3.2703,-3.2648,-3.2594,-3.2523,-3.2453,-3.2382,-3.2398,-3.2398,-3.2453,-3.2578,-3.2757,-3.2897,-3.3096,-3.3187,-3.3096,-3.3043,-3.2935,-3.2827,-3.2773,-3.2718,-3.2648,-3.2578,-3.2523,-3.2468,-3.2468,-3.2398,-3.2398,-3.2398,-3.2398,-3.2453,-3.2453,-3.2453,-3.2453,-3.2523,-3.2523,-3.2484,-3.2499,-3.2484,-3.2492,-3.2501,-3.2555,-3.2555,-3.2571,-3.2672,-3.2757,-3.2843,-3.2843,-3.2773,-3.1351,-3.1292,-3.1117,-3.0999,-3.0895,-3.0762,-3.0687,-3.0702,-3.0895,-3.1058,-3.1234,-3.1625,-3.215,-3.2703,-3.3293,-3.3642,-3.3848,-3.3949,-3.405,-3.4101,-3.4101,-3.4101,-3.4101,-3.4101,-3.4101,-3.4101,-3.4101,-3.4101,-3.4101,-3.4101,-3.4101,-3.4101,-3.4101,-3.4101,-3.4101,-3.4101,-3.4101,-3.4101,-3.4101,-3.4101,-3.4101,-3.4101,-3.4101,-3.4101,-3.4101,-3.4101,-3.4101,-3.4101,-3.4101,-3.4101,-3.4101,-3.4101,-3.405,-3.405,-3.4,-3.3949,-3.3797,-3.371,-3.371,-3.3555,-3.345,-3.3346,-3.3309,-3.3256,-3.315,-3.2989,-3.2812,-3.2633,-3.2523,-3.2468,-3.2453,-3.2398,-3.2398,-3.2398,-3.2398,-3.2578,-3.2703,-3.2827,-3.2951,-3.3203,-3.3398,-3.3346,-3.3293,-3.3346,-3.3256,-3.3096,-3.2989,-3.2881,-3.2757,-3.2648,-3.2594,-3.2523,-3.2468,-3.2398,-3.2398,-3.2398,-3.2508,-3.2508,-3.2523,-3.2578,-3.2687,-3.2703,-3.2655,-3.2662,-3.2748,-3.2726,-3.2664,-3.2671,-3.2633,-3.2749,-3.285,-3.2935,-3.3005,-3.2904,-3.2888,-3.1161,-3.1176,-3.0895,-3.0762,-3.0762,-3.0642,-3.0642,-3.0642,-3.0821,-3.1058,-3.1394,-3.1781,-3.2413,-3.3081,-3.3503,-3.3761,-3.3949,-3.4034,-3.4101,-3.4101,-3.4101,-3.4101,-3.4101,-3.4101,-3.4101,-3.4101,-3.4101,-3.4101,-3.4101,-3.4101,-3.4101,-3.4101,-3.4101,-3.4101,-3.4101,-3.4101,-3.4101,-3.4101,-3.4101,-3.4101,-3.4101,-3.4101,-3.4101,-3.4101,-3.4101,-3.4101,-3.4101,-3.4101,-3.4101,-3.4101,-3.405,-3.405,-3.4,-3.3899,-3.3848,-3.3797,-3.3658,-3.3555,-3.3555,-3.3503,-3.3398,-3.3309,-3.3256,-3.315,-3.2935,-3.2703,-3.2578,-3.2523,-3.2453,-3.2453,-3.2398,-3.2398,-3.2398,-3.2398,-3.2398,-3.2648,-3.2843,-3.2897,-3.3058,-3.3346,-3.3555,-3.3694,-3.3694,-3.3761,-3.3658,-3.345,-3.3256,-3.3165,-3.2989,-3.2827,-3.2773,-3.2703,-3.2648,-3.2594,-3.2594,-3.2578,-3.2633,-3.2633,-3.2664,-3.2703,-3.2796,-3.2905,-3.292,-3.2927,-3.3022,-3.3058,-3.3072,-3.2892,-3.2779,-3.2879,-3.3033,-3.3081,-3.3081,-3.3033,-3.3124,-3.0821,-3.0821,-3.0836,-3.0687,-3.0628,-3.0642,-3.0642,-3.0642,-3.0955,-3.119,-3.1509,-3.216,-3.2834,-3.3398,-3.3607,-3.3864,-3.405,-3.4101,-3.4101,-3.4101,-3.4101,-3.4101,-3.4101,-3.4101,-3.4101,-3.4101,-3.4101,-3.4101,-3.4101,-3.4101,-3.4101,-3.4101,-3.4101,-3.4101,-3.4101,-3.4101,-3.4101,-3.4101,-3.4101,-3.4101,-3.4101,-3.4101,-3.4101,-3.4101,-3.4101,-3.4101,-3.4101,-3.4101,-3.405,-3.405,-3.3949,-3.3899,-3.3899,-3.3797,-3.3694,-3.371,-3.3539,-3.3503,-3.3503,-3.3398,-3.3346,-3.3256,-3.315,-3.2973,-3.2757,-3.2648,-3.2523,-3.2468,-3.2398,-3.2398,-3.2398,-3.2398,-3.2398,-3.2398,-3.2453,-3.2594,-3.2788,-3.2843,-3.3058,-3.345,-3.3658,-3.3797,-3.3984,-3.405,-3.4,-3.3745,-3.3555,-3.3414,-3.3203,-3.3043,-3.3005,-3.2951,-3.2897,-3.2843,-3.2843,-3.2843,-3.2827,-3.2858,-3.2889,-3.2951,-3.2958,-3.3045,-3.3248,-3.3224,-3.3323,-3.3371,-3.3438,-3.3316,-3.3208,-3.3166,-3.3214,-3.3366,-3.3503,-3.3523,-3.3626,-3.0747,-3.0702,-3.0687,-3.0642,-3.0642,-3.0642,-3.0642,-3.0762,-3.1014,-3.1409,-3.191,-3.2539,-3.3027,-3.345,-3.3658,-3.3864,-3.405,-3.4101,-3.4101,-3.4101,-3.4101,-3.4101,-3.4101,-3.4101,-3.4101,-3.4101,-3.4101,-3.4101,-3.4101,-3.4101,-3.4101,-3.4101,-3.4101,-3.4101,-3.4101,-3.4101,-3.4101,-3.4101,-3.4101,-3.4101,-3.4101,-3.4101,-3.4101,-3.4101,-3.4101,-3.4101,-3.4101,-3.4,-3.4,-3.3949,-3.3848,-3.3797,-3.3745,-3.3642,-3.3607,-3.3555,-3.345,-3.3398,-3.3398,-3.3293,-3.3256,-3.315,-3.292,-3.2757,-3.2578,-3.2523,-3.2453,-3.2398,-3.2398,-3.2398,-3.2398,-3.2398,-3.2398,-3.2398,-3.2468,-3.2594,-3.2718,-3.2843,-3.3112,-3.345,-3.371,-3.3848,-3.405,-3.4284,-3.4201,-3.4101,-3.3899,-3.371,-3.3503,-3.3346,-3.3309,-3.3203,-3.315,-3.3096,-3.3112,-3.3058,-3.2951,-3.3052,-3.3152,-3.3228,-3.3287,-3.3514,-3.364,-3.3652,-3.3666,-3.3751,-3.3824,-3.3758,-3.3655,-3.3531,-3.3594,-3.3745,-3.3848,-3.4,-3.4101,-3.0702,-3.0642,-3.0642,-3.0642,-3.0642,-3.0642,-3.0702,-3.0821,-3.1073,-3.1625,-3.2358,-3.2827,-3.3203,-3.3503,-3.3694,-3.3848,-3.405,-3.4101,-3.4101,-3.4101,-3.4101,-3.4101,-3.4101,-3.4101,-3.4101,-3.4101,-3.4101,-3.4101,-3.4101,-3.4101,-3.4101,-3.4101,-3.4101,-3.4101,-3.4101,-3.4101,-3.4101,-3.4101,-3.4101,-3.4101,-3.4101,-3.4101,-3.4101,-3.4101,-3.4101,-3.4101,-3.405,-3.4,-3.3949,-3.3848,-3.3745,-3.3658,-3.3591,-3.3539,-3.345,-3.3398,-3.3361,-3.3293,-3.3293,-3.3256,-3.315,-3.292,-3.2881,-3.2703,-3.2594,-3.2594,-3.2594,-3.2594,-3.2523,-3.2453,-3.2468,-3.2453,-3.2398,-3.2398,-3.2398,-3.2523,-3.2703,-3.2827,-3.3203,-3.3503,-3.371,-3.3949,-3.43,-3.448,-3.4497,-3.4349,-3.4151,-3.4,-3.3899,-3.3745,-3.3658,-3.3555,-3.3503,-3.3398,-3.3309,-3.3309,-3.3361,-3.3377,-3.3493,-3.3541,-3.3678,-3.391,-3.4021,-3.3985,-3.4053,-3.4152,-3.4203,-3.4154,-3.4022,-3.3853,-3.3951,-3.405,-3.425,-3.4349,-3.4464,-3.0642,-3.0642,-3.0642,-3.0642,-3.0642,-3.0642,-3.0702,-3.0881,-3.1234,-3.1838,-3.2547,-3.3011,-3.3398,-3.3642,-3.3797,-3.3949,-3.405,-3.4101,-3.4101,-3.4101,-3.4101,-3.4101,-3.4101,-3.4101,-3.4101,-3.4101,-3.4101,-3.4101,-3.4101,-3.4101,-3.4101,-3.4101,-3.4101,-3.4101,-3.4101,-3.4101,-3.4101,-3.4101,-3.4101,-3.4101,-3.4101,-3.4101,-3.4101,-3.4101,-3.4101,-3.4101,-3.405,-3.3949,-3.3848,-3.3864,-3.3658,-3.3503,-3.3487,-3.3382,-3.3346,-3.3309,-3.3309,-3.3293,-3.3309,-3.3203,-3.3043,-3.2812,-3.2827,-3.2773,-3.2718,-3.2718,-3.2843,-3.2773,-3.2718,-3.2594,-3.2578,-3.2523,-3.2453,-3.2453,-3.2453,-3.2523,-3.2703,-3.2935,-3.324,-3.3555,-3.3797,-3.405,-3.4448,-3.4691,-3.4739,-3.4643,-3.4399,-3.43,-3.43,-3.4201,-3.405,-3.3965,-3.3848,-3.3797,-3.3694,-3.371,-3.371,-3.3726,-3.379,-3.387,-3.4024,-3.4228,-3.4272,-3.431,-3.4457,-3.4594,-3.4591,-3.4523,-3.4446,-3.4399,-3.4267,-3.4399,-3.4546,-3.4691,-3.4804,-3.0642,-3.0642,-3.0642,-3.0642,-3.0642,-3.0702,-3.0881,-3.1219,-3.1709,-3.2272,-3.2656,-3.3065,-3.345,-3.3642,-3.3848,-3.3949,-3.405,-3.4101,-3.4101,-3.4101,-3.4101,-3.4101,-3.4101,-3.4101,-3.4101,-3.4101,-3.4101,-3.4101,-3.4101,-3.4101,-3.4101,-3.4101,-3.4101,-3.4101,-3.4101,-3.4101,-3.4101,-3.4101,-3.4101,-3.4101,-3.4101,-3.4101,-3.4101,-3.4101,-3.4101,-3.4101,-3.405,-3.3899,-3.3797,-3.3761,-3.3555,-3.3398,-3.3398,-3.3293,-3.3293,-3.3293,-3.3309,-3.3256,-3.3203,-3.315,-3.315,-3.2989,-3.2935,-3.2897,-3.2827,-3.2843,-3.2912,-3.2912,-3.2897,-3.2773,-3.2594,-3.2578,-3.2523,-3.2523,-3.2594,-3.2757,-3.2935,-3.3096,-3.3361,-3.3607,-3.3797,-3.4101,-3.4497,-3.4851,-3.4947,-3.4994,-3.4835,-3.4739,-3.4691,-3.4594,-3.4497,-3.4415,-3.4316,-3.4184,-3.4068,-3.4101,-3.405,-3.4117,-3.418,-3.4258,-3.4378,-3.4529,-3.4677,-3.4759,-3.4904,-3.4996,-3.4958,-3.4875,-3.4958,-3.493,-3.4787,-3.4739,-3.4947,-3.5058,-3.5152,-3.0642,-3.0642,-3.0642,-3.0642,-3.0702,-3.0762,-3.1058,-3.1495,-3.2176,-3.2563,-3.2796,-3.3224,-3.3539,-3.3694,-3.3899,-3.4,-3.4101,-3.4101,-3.4101,-3.4101,-3.4101,-3.4101,-3.4101,-3.4101,-3.4101,-3.4101,-3.4101,-3.4101,-3.4101,-3.4101,-3.4101,-3.4101,-3.4101,-3.4101,-3.4101,-3.4101,-3.4101,-3.4101,-3.4101,-3.4101,-3.4101,-3.4101,-3.4101,-3.4101,-3.4101,-3.4101,-3.4,-3.3899,-3.3694,-3.3658,-3.3503,-3.3293,-3.3293,-3.3293,-3.3293,-3.3293,-3.3309,-3.3256,-3.3309,-3.3309,-3.3346,-3.3398,-3.3203,-3.3112,-3.3096,-3.3203,-3.3203,-3.3203,-3.3112,-3.2989,-3.2866,-3.2796,-3.2703,-3.2703,-3.2773,-3.2935,-3.3043,-3.3203,-3.3414,-3.3642,-3.3899,-3.4184,-3.4546,-3.4899,-3.5152,-3.5198,-3.5228,-3.5135,-3.5041,-3.4947,-3.4835,-3.4739,-3.4707,-3.4594,-3.4529,-3.4497,-3.4497,-3.4513,-3.4529,-3.4593,-3.4726,-3.4919,-3.5044,-3.5118,-3.5178,-3.5207,-3.527,-3.527,-3.5258,-3.5228,-3.5198,-3.5245,-3.5354,-3.54,-3.54,-3.0642,-3.0642,-3.0642,-3.0702,-3.0762,-3.0881,-3.1219,-3.1724,-3.2327,-3.2742,-3.2951,-3.345,-3.3694,-3.3745,-3.4,-3.4101,-3.4101,-3.4101,-3.4101,-3.4101,-3.4101,-3.4101,-3.4101,-3.4101,-3.4101,-3.4101,-3.4101,-3.4101,-3.4101,-3.4101,-3.4101,-3.4101,-3.4101,-3.4101,-3.4101,-3.4101,-3.4101,-3.4101,-3.4101,-3.4101,-3.4101,-3.4101,-3.4101,-3.4101,-3.4101,-3.4101,-3.4,-3.3848,-3.3745,-3.3591,-3.345,-3.3346,-3.3293,-3.3293,-3.3293,-3.3293,-3.3293,-3.3414,-3.3503,-3.3555,-3.3658,-3.3813,-3.371,-3.3607,-3.3555,-3.3607,-3.3607,-3.3555,-3.3503,-3.3398,-3.3293,-3.3096,-3.2951,-3.2951,-3.2951,-3.3058,-3.315,-3.3361,-3.3503,-3.3761,-3.4,-3.4349,-3.4739,-3.5088,-3.5291,-3.5383,-3.5429,-3.5412,-3.5321,-3.5245,-3.5182,-3.5118,-3.5024,-3.4994,-3.4947,-3.4835,-3.4835,-3.4851,-3.4936,-3.5003,-3.5129,-3.5171,-3.5274,-3.5328,-3.5335,-3.5335,-3.5419,-3.5379,-3.5383,-3.54,-3.5429,-3.5429,-3.5475,-3.552,-3.552,-3.0642,-3.0642,-3.0642,-3.0702,-3.0881,-3.1219,-3.1667,-3.2064,-3.2594,-3.2935,-3.3187,-3.3555,-3.3761,-3.3832,-3.4016,-3.4101,-3.4101,-3.4101,-3.4101,-3.4101,-3.4101,-3.4101,-3.4101,-3.4101,-3.4101,-3.4101,-3.4101,-3.4101,-3.4101,-3.4101,-3.4101,-3.4101,-3.4101,-3.4101,-3.4101,-3.4101,-3.4101,-3.4101,-3.4101,-3.4101,-3.4101,-3.4101,-3.4101,-3.4101,-3.4101,-3.4101,-3.405,-3.3848,-3.3761,-3.3658,-3.345,-3.3309,-3.3293,-3.3309,-3.3309,-3.345,-3.345,-3.3503,-3.3745,-3.3848,-3.4,-3.4201,-3.425,-3.4151,-3.405,-3.4,-3.4,-3.3965,-3.3848,-3.3694,-3.3591,-3.345,-3.3346,-3.3293,-3.3346,-3.3398,-3.3503,-3.3642,-3.3848,-3.405,-3.43,-3.4611,-3.4994,-3.5165,-3.5367,-3.5475,-3.552,-3.5549,-3.5503,-3.5475,-3.5429,-3.535,-3.5304,-3.5228,-3.5211,-3.5148,-3.5165,-3.5198,-3.5221,-3.5271,-3.5345,-3.5383,-3.5419,-3.5476,-3.5476,-3.5493,-3.5526,-3.5532,-3.552,-3.5549,-3.5594,-3.5594,-3.5594,-3.5656,-3.5701,-3.0642,-3.0642,-3.0642,-3.0762,-3.1058,-3.1582,-3.2023,-3.2358,-3.2718,-3.3043,-3.3293,-3.3607,-3.3761,-3.3899,-3.405,-3.4101,-3.4101,-3.4101,-3.4101,-3.4101,-3.4101,-3.4101,-3.4101,-3.4101,-3.4101,-3.4101,-3.4101,-3.4101,-3.4101,-3.4101,-3.4101,-3.4101,-3.4101,-3.4101,-3.4101,-3.4101,-3.4101,-3.4101,-3.4101,-3.4101,-3.4101,-3.4101,-3.4101,-3.4101,-3.4101,-3.4101,-3.405,-3.3864,-3.3813,-3.3761,-3.3555,-3.345,-3.345,-3.345,-3.3555,-3.3642,-3.3642,-3.3797,-3.4,-3.4201,-3.4349,-3.4546,-3.4707,-3.4724,-3.4611,-3.4464,-3.4415,-3.4316,-3.4151,-3.3984,-3.3899,-3.3848,-3.3797,-3.3745,-3.3745,-3.3797,-3.3949,-3.4034,-3.425,-3.4448,-3.4643,-3.4899,-3.5135,-3.5304,-3.5424,-3.5487,-3.5549,-3.5594,-3.5577,-3.5549,-3.5549,-3.547,-3.5441,-3.5396,-3.5396,-3.5396,-3.5396,-3.5412,-3.5429,-3.5463,-3.552,-3.5549,-3.5543,-3.5543,-3.5622,-3.5622,-3.556,-3.5622,-3.5594,-3.5667,-3.5728,-3.5745,-3.579,-3.5834,-3.5861,-3.0642,-3.0642,-3.0628,-3.094,-3.1336,-3.1811,-3.2247,-3.2602,-3.2827,-3.3058,-3.3361,-3.3607,-3.3797,-3.3949,-3.405,-3.4101,-3.4101,-3.4101,-3.4101,-3.4101,-3.4101,-3.4101,-3.4101,-3.4101,-3.4101,-3.4101,-3.4101,-3.4101,-3.4101,-3.4101,-3.4101,-3.4101,-3.4101,-3.4101,-3.4101,-3.4101,-3.4101,-3.4101,-3.4101,-3.4101,-3.4101,-3.4101,-3.4101,-3.4101,-3.4101,-3.4101,-3.405,-3.4,-3.3899,-3.3848,-3.3797,-3.3745,-3.3745,-3.3745,-3.3797,-3.3899,-3.3899,-3.4084,-3.4284,-3.4497,-3.4659,-3.4851,-3.5058,-3.5138,-3.5044,-3.4868,-3.4756,-3.4724,-3.4562,-3.4448,-3.4349,-3.425,-3.4151,-3.4151,-3.4151,-3.4201,-3.4349,-3.448,-3.4626,-3.4771,-3.4913,-3.5165,-3.5304,-3.5453,-3.547,-3.5577,-3.5577,-3.5622,-3.5622,-3.5577,-3.5577,-3.556,-3.5577,-3.5532,-3.5532,-3.5532,-3.5577,-3.5577,-3.5577,-3.5577,-3.5549,-3.5594,-3.5639,-3.5639,-3.5639,-3.5639,-3.5622,-3.5639,-3.5684,-3.5728,-3.5834,-3.5895,-3.5939,-3.601,-3.601,-3.0642,-3.0642,-3.0881,-3.1176,-3.1509,-3.1868,-3.2333,-3.2827,-3.2843,-3.315,-3.3555,-3.3694,-3.3848,-3.405,-3.405,-3.4101,-3.4101,-3.4101,-3.4101,-3.4101,-3.4101,-3.4101,-3.4101,-3.4101,-3.4101,-3.4101,-3.4101,-3.4101,-3.4101,-3.4101,-3.4101,-3.4101,-3.4101,-3.4101,-3.4101,-3.4101,-3.4101,-3.4101,-3.4101,-3.4101,-3.4101,-3.4101,-3.4101,-3.4101,-3.4101,-3.4101,-3.4101,-3.4101,-3.405,-3.405,-3.405,-3.4,-3.4,-3.4,-3.4101,-3.4201,-3.4201,-3.4399,-3.4593,-3.4721,-3.4797,-3.5052,-3.5224,-3.5388,-3.5375,-3.5232,-3.5135,-3.5041,-3.498,-3.4868,-3.4756,-3.4659,-3.4562,-3.4562,-3.4562,-3.4659,-3.4739,-3.4835,-3.4977,-3.5102,-3.5195,-3.5316,-3.5453,-3.5498,-3.5543,-3.556,-3.5577,-3.5639,-3.5639,-3.5577,-3.5577,-3.5622,-3.5622,-3.5594,-3.5639,-3.5639,-3.5639,-3.5639,-3.5577,-3.5577,-3.5639,-3.5639,-3.5639,-3.5639,-3.5639,-3.5622,-3.5667,-3.5728,-3.5773,-3.5878,-3.5966,-3.601,-3.6096,-3.6165,-3.6182,-3.0642,-3.0628,-3.0955,-3.1292,-3.161,-3.1966,-3.2388,-3.2843,-3.3005,-3.3293,-3.3658,-3.3694,-3.3848,-3.405,-3.4101,-3.4101,-3.4101,-3.4101,-3.4101,-3.4101,-3.4101,-3.4101,-3.4101,-3.4101,-3.4101,-3.4101,-3.4101,-3.4101,-3.4101,-3.4101,-3.4101,-3.4101,-3.4101,-3.4101,-3.4101,-3.4101,-3.4101,-3.4101,-3.4101,-3.4101,-3.4101,-3.4101,-3.4151,-3.4151,-3.4201,-3.4201,-3.425,-3.4284,-3.4284,-3.43,-3.43,-3.43,-3.43,-3.43,-3.4349,-3.4448,-3.4546,-3.4707,-3.48,-3.4788,-3.4697,-3.4801,-3.4583,-3.4415,-3.4387,-3.4263,-3.4841,-3.4818,-3.5148,-3.5105,-3.5105,-3.5011,-3.4947,-3.4947,-3.4947,-3.4994,-3.5088,-3.5198,-3.5245,-3.5321,-3.5396,-3.547,-3.556,-3.556,-3.556,-3.5577,-3.5622,-3.5639,-3.5639,-3.5639,-3.5639,-3.5639,-3.5639,-3.5639,-3.5639,-3.5639,-3.5639,-3.5639,-3.5639,-3.5639,-3.5639,-3.5639,-3.5639,-3.5639,-3.5622,-3.5677,-3.5677,-3.58,-3.5905,-3.601,-3.6096,-3.6182,-3.6251,-3.6276,-3.6233,-3.0642,-3.0642,-3.0955,-3.1292,-3.1682,-3.2023,-3.2484,-3.2897,-3.315,-3.345,-3.3694,-3.3694,-3.3915,-3.4,-3.4101,-3.4101,-3.4101,-3.4101,-3.4101,-3.4101,-3.4101,-3.4101,-3.4101,-3.4101,-3.4101,-3.4101,-3.4101,-3.4101,-3.4101,-3.4101,-3.4101,-3.4101,-3.4101,-3.4101,-3.4101,-3.4101,-3.4101,-3.4101,-3.4101,-3.4101,-3.4101,-3.4101,-3.4201,-3.425,-3.4349,-3.4399,-3.4497,-3.4546,-3.4546,-3.4594,-3.4643,-3.4643,-3.4643,-3.4643,-3.4691,-3.4787,-3.462,-3.4745,-3.4751,-3.4354,-3.4269,-3.4071,-3.3617,-3.3397,-3.3399,-3.3722,-3.425,-3.4536,-3.4858,-3.4985,-3.4968,-3.494,-3.494,-3.5157,-3.5157,-3.5258,-3.5383,-3.5429,-3.5492,-3.5537,-3.5549,-3.5577,-3.556,-3.556,-3.5622,-3.5622,-3.5639,-3.5639,-3.5639,-3.5639,-3.5639,-3.5639,-3.5639,-3.5639,-3.5639,-3.5639,-3.5622,-3.5639,-3.5639,-3.5639,-3.5639,-3.5639,-3.5639,-3.5656,-3.5684,-3.5705,-3.5793,-3.5871,-3.6019,-3.614,-3.6208,-3.6251,-3.6276,-3.6259,-3.6284,-3.0642,-3.0642,-3.0955,-3.1292,-3.1595,-3.2007,-3.2484,-3.2897,-3.3203,-3.345,-3.3694,-3.3848,-3.3949,-3.4101,-3.4101,-3.4101,-3.4101,-3.4101,-3.4101,-3.4101,-3.4101,-3.4101,-3.4101,-3.4101,-3.4101,-3.4101,-3.4101,-3.4101,-3.4101,-3.4101,-3.4101,-3.4101,-3.4101,-3.4101,-3.4101,-3.4101,-3.4101,-3.4101,-3.4151,-3.4151,-3.425,-3.43,-3.425,-3.4349,-3.4497,-3.4594,-3.4691,-3.4883,-3.4947,-3.5011,-3.5041,-3.5088,-3.5041,-3.5041,-3.5105,-3.4938,-3.4768,-3.4543,-3.4348,-3.3816,-3.3583,-3.349,-3.3203,-3.3102,-3.3111,-3.3144,-3.3474,-3.3465,-3.3736,-3.3775,-3.3809,-3.3832,-3.3883,-3.4617,-3.4903,-3.5284,-3.5515,-3.5532,-3.5549,-3.5594,-3.5594,-3.5622,-3.5622,-3.5622,-3.5622,-3.5639,-3.5639,-3.5639,-3.5639,-3.5639,-3.5622,-3.5639,-3.5639,-3.5639,-3.5639,-3.5622,-3.5622,-3.5622,-3.5622,-3.5667,-3.5667,-3.5639,-3.5639,-3.5707,-3.58,-3.583,-3.5907,-3.5985,-3.6105,-3.6208,-3.6233,-3.6301,-3.6284,-3.6284,-3.6284]}]]